[[{"header":{"parameterUnit":"m.s-1","parameterCategory":1,"la1":30.6,"la2":29.2853,"lo1":-89.7004,"lo2":-87.6739,"dy":0.0162,"dx":0.0183,"nx":112,"ny":82,"refTime":"2023-10-28T06:00:00:Z","depth":0,"parameterNumber":2,"parameterNumberName":"U-component_of_WINDS"},"data":[0.0,0.0,0.0,0.0,0.0,0.0,0.0,0.0,0.0,0.0,0.0,0.0,0.0,0.0,0.0,0.0,0.0,0.0,0.0,0.0,0.0,0.0,0.0,0.0,0.0,0.0,0.0,0.0,0.0,0.0,0.0,0.0,0.0,0.0,0.0,0.0,0.0,0.0,0.0,0.0,0.0,0.0,0.0,0.0,0.0,0.0,0.0,0.0,0.0,0.0,0.0,0.0,0.0,0.0,0.0,0.0,0.0,0.0,0.0,0.0,0.0,0.0,0.0,0.0,0.0,0.0,0.0,0.0,0.0,0.0,0.0,0.0,0.0,0.0,0.0,0.0,0.0,0.0,0.0,0.0,0.0,0.0,0.0,0.0,0.0,0.0,0.0,0.0,0.0,0.0,-2.3061,-2.7178,-3.3749,-3.7742,-3.7427,-3.4188,-3.0109,-2.5264,0.0,0.0,0.0,0.0,0.0,0.0,0.0,0.0,0.0,0.0,0.0,0.0,0.0,0.0,0.0,0.0,0.0,0.0,0.0,0.0,0.0,0.0,0.0,0.0,0.0,0.0,0.0,0.0,0.0,0.0,0.0,0.0,0.0,0.0,0.0,0.0,0.0,0.0,0.0,0.0,0.0,0.0,0.0,0.0,0.0,0.0,0.0,0.0,0.0,0.0,0.0,0.0,0.0,0.0,0.0,0.0,0.0,0.0,0.0,0.0,0.0,0.0,0.0,0.0,0.0,0.0,0.0,0.0,0.0,0.0,0.0,0.0,0.0,0.0,0.0,0.0,0.0,0.0,0.0,0.0,0.0,0.0,0.0,0.0,0.0,0.0,0.0,0.0,0.0,0.0,0.0,0.0,0.0,0.0,0.0,0.0,0.0,0.0,0.0,0.0,0.0,0.0,0.0,0.0,-2.508,-3.2245,-3.5309,-3.6245,-3.4802,-3.0892,-2.7164,-2.4037,0.0,0.0,0.0,0.0,0.0,0.0,0.0,0.0,0.0,0.0,0.0,0.0,0.0,0.0,0.0,0.0,0.0,0.0,0.0,0.0,0.0,0.0,0.0,0.0,0.0,0.0,0.0,0.0,0.0,0.0,0.0,0.0,0.0,0.0,0.0,0.0,0.0,0.0,0.0,0.0,0.0,0.0,0.0,0.0,0.0,0.0,0.0,0.0,0.0,0.0,0.0,0.0,0.0,0.0,0.0,0.0,0.0,0.0,0.0,0.0,0.0,0.0,0.0,0.0,0.0,0.0,0.0,0.0,0.0,0.0,0.0,0.0,0.0,0.0,0.0,0.0,0.0,0.0,0.0,0.0,0.0,0.0,0.0,0.0,0.0,0.0,0.0,0.0,0.0,0.0,0.0,0.0,0.0,0.0,0.0,0.0,0.0,0.0,0.0,0.0,0.0,0.0,0.0,-2.2546,-2.6657,-3.4546,-3.5594,-3.5447,-3.4703,-3.0319,-2.644,-2.3769,-1.9281,0.0,0.0,0.0,0.0,0.0,0.0,0.0,0.0,0.0,0.0,0.0,0.0,0.0,0.0,0.0,0.0,0.0,0.0,0.0,0.0,0.0,0.0,0.0,0.0,0.0,0.0,0.0,0.0,0.0,0.0,0.0,0.0,0.0,0.0,0.0,0.0,0.0,0.0,0.0,0.0,0.0,0.0,0.0,0.0,0.0,0.0,0.0,0.0,0.0,0.0,0.0,0.0,0.0,0.0,0.0,0.0,0.0,0.0,0.0,0.0,0.0,0.0,0.0,0.0,0.0,0.0,0.0,0.0,0.0,0.0,0.0,0.0,0.0,0.0,0.0,0.0,0.0,0.0,0.0,0.0,0.0,0.0,0.0,0.0,0.0,0.0,0.0,0.0,0.0,0.0,0.0,0.0,0.0,0.0,0.0,0.0,0.0,0.0,0.0,0.0,0.0,0.0,-2.5846,-2.8507,-3.5303,-3.5173,-3.4434,-3.4055,-2.9369,-2.5442,-2.302,-1.7436,0.0,0.0,0.0,0.0,0.0,0.0,0.0,0.0,0.0,0.0,0.0,0.0,0.0,0.0,0.0,0.0,0.0,0.0,0.0,0.0,0.0,0.0,0.0,0.0,0.0,0.0,0.0,0.0,0.0,0.0,0.0,0.0,0.0,0.0,0.0,0.0,0.0,0.0,0.0,0.0,0.0,0.0,0.0,0.0,0.0,0.0,0.0,0.0,0.0,0.0,0.0,0.0,0.0,0.0,0.0,0.0,0.0,0.0,0.0,0.0,0.0,0.0,0.0,0.0,0.0,0.0,0.0,0.0,0.0,0.0,0.0,0.0,0.0,0.0,0.0,0.0,0.0,0.0,0.0,0.0,0.0,0.0,0.0,0.0,0.0,0.0,0.0,0.0,0.0,0.0,0.0,0.0,0.0,0.0,0.0,0.0,0.0,0.0,0.0,0.0,0.0,0.0,-2.7709,-3.1045,-3.4548,-3.4024,-3.2714,-3.0974,-2.6274,-2.2642,-2.0825,-1.5416,0.0,0.0,0.0,0.0,0.0,0.0,0.0,0.0,0.0,0.0,0.0,0.0,0.0,0.0,0.0,0.0,0.0,0.0,0.0,0.0,0.0,0.0,0.0,0.0,0.0,0.0,0.0,0.0,0.0,0.0,0.0,0.0,0.0,0.0,0.0,0.0,0.0,0.0,0.0,0.0,0.0,0.0,0.0,0.0,0.0,0.0,0.0,0.0,0.0,0.0,0.0,0.0,0.0,0.0,0.0,0.0,0.0,0.0,0.0,0.0,0.0,0.0,0.0,0.0,0.0,0.0,0.0,0.0,0.0,0.0,0.0,0.0,0.0,0.0,0.0,0.0,0.0,0.0,0.0,0.0,0.0,0.0,0.0,0.0,0.0,0.0,0.0,0.0,0.0,0.0,0.0,0.0,0.0,0.0,0.0,0.0,0.0,0.0,0.0,0.0,0.0,0.0,-2.5701,-2.8671,-3.2567,-3.2614,-3.1493,-2.9306,-2.6349,-2.3221,-1.996,0.0,0.0,0.0,0.0,0.0,0.0,0.0,0.0,0.0,0.0,0.0,0.0,0.0,0.0,0.0,0.0,0.0,0.0,0.0,0.0,0.0,0.0,0.0,0.0,0.0,0.0,0.0,0.0,0.0,0.0,0.0,0.0,0.0,0.0,0.0,0.0,0.0,0.0,0.0,0.0,0.0,0.0,0.0,0.0,0.0,0.0,0.0,0.0,0.0,0.0,0.0,0.0,0.0,0.0,0.0,0.0,0.0,0.0,0.0,0.0,0.0,0.0,0.0,0.0,0.0,0.0,0.0,0.0,0.0,0.0,0.0,0.0,0.0,0.0,0.0,0.0,0.0,0.0,0.0,0.0,0.0,0.0,0.0,0.0,0.0,0.0,0.0,0.0,0.0,0.0,0.0,0.0,0.0,0.0,0.0,0.0,0.0,0.0,0.0,0.0,0.0,0.0,-2.1896,-2.4533,-2.7323,-3.1028,-3.0875,-2.9704,-2.7766,-2.5233,-2.2283,-1.8921,0.0,0.0,0.0,0.0,0.0,0.0,0.0,0.0,0.0,0.0,0.0,0.0,0.0,0.0,0.0,0.0,0.0,0.0,0.0,0.0,0.0,0.0,0.0,0.0,0.0,0.0,0.0,0.0,0.0,0.0,0.0,0.0,0.0,0.0,0.0,0.0,0.0,0.0,0.0,0.0,0.0,0.0,0.0,0.0,0.0,0.0,0.0,0.0,0.0,0.0,0.0,0.0,0.0,0.0,0.0,0.0,0.0,0.0,0.0,0.0,0.0,0.0,0.0,0.0,0.0,0.0,0.0,0.0,0.0,0.0,0.0,0.0,0.0,0.0,0.0,0.0,0.0,0.0,0.0,0.0,0.0,0.0,0.0,0.0,0.0,0.0,0.0,0.0,0.0,0.0,0.0,0.0,0.0,0.0,0.0,0.0,0.0,0.0,0.0,0.0,0.0,0.0,-2.1359,-2.48,-2.7821,-3.0113,-2.8743,-2.7225,-2.6147,-2.2282,-1.92,0.0,0.0,0.0,0.0,0.0,0.0,0.0,0.0,0.0,0.0,0.0,0.0,0.0,0.0,0.0,0.0,0.0,0.0,0.0,0.0,0.0,0.0,0.0,0.0,0.0,0.0,0.0,0.0,0.0,0.0,0.0,0.0,0.0,0.0,0.0,0.0,0.0,0.0,0.0,0.0,0.0,0.0,0.0,0.0,0.0,0.0,0.0,0.0,0.0,0.0,0.0,0.0,0.0,0.0,0.0,0.0,0.0,0.0,0.0,0.0,0.0,0.0,0.0,0.0,0.0,0.0,0.0,0.0,0.0,0.0,0.0,0.0,0.0,0.0,0.0,0.0,0.0,0.0,0.0,0.0,0.0,0.0,0.0,0.0,0.0,0.0,0.0,0.0,0.0,0.0,0.0,0.0,0.0,0.0,0.0,0.0,0.0,0.0,0.0,0.0,0.0,0.0,0.0,-2.0038,-2.2965,-2.5439,-2.7253,-2.6501,-2.5205,-2.356,-2.1654,-1.9288,-1.638,0.0,0.0,0.0,0.0,0.0,0.0,0.0,0.0,0.0,0.0,0.0,0.0,0.0,0.0,0.0,0.0,0.0,0.0,0.0,0.0,0.0,0.0,0.0,0.0,0.0,0.0,0.0,0.0,0.0,0.0,0.0,0.0,0.0,0.0,0.0,0.0,0.0,0.0,0.0,0.0,0.0,0.0,0.0,0.0,0.0,0.0,0.0,0.0,0.0,0.0,0.0,0.0,0.0,0.0,0.0,0.0,0.0,0.0,0.0,0.0,0.0,0.0,0.0,0.0,0.0,0.0,0.0,0.0,0.0,0.0,0.0,0.0,0.0,0.0,0.0,0.0,0.0,0.0,0.0,0.0,0.0,0.0,0.0,0.0,0.0,0.0,0.0,0.0,0.0,0.0,0.0,0.0,0.0,0.0,0.0,0.0,0.0,0.0,0.0,0.0,0.0,0.0,-1.8866,-2.1419,-2.3586,-2.5183,-2.4384,-2.3275,-2.2118,-2.0885,-1.8739,-1.5382,0.0,0.0,0.0,0.0,0.0,0.0,0.0,0.0,0.0,0.0,0.0,0.0,0.0,0.0,0.0,0.0,0.0,0.0,0.0,0.0,0.0,0.0,0.0,0.0,0.0,0.0,0.0,0.0,0.0,0.0,0.0,0.0,0.0,0.0,0.0,0.0,0.0,0.0,0.0,0.0,0.0,0.0,0.0,0.0,0.0,0.0,0.0,0.0,0.0,0.0,0.0,0.0,0.0,0.0,0.0,0.0,0.0,0.0,0.0,0.0,0.0,0.0,0.0,0.0,0.0,0.0,0.0,0.0,0.0,0.0,0.0,0.0,0.0,0.0,0.0,0.0,0.0,0.0,0.0,0.0,0.0,0.0,0.0,0.0,0.0,0.0,0.0,0.0,0.0,0.0,0.0,0.0,0.0,0.0,0.0,0.0,0.0,0.0,0.0,0.0,0.0,0.0,-1.7874,-2.0187,-2.2202,-2.3815,-2.2544,-2.1559,-2.1468,-1.9993,-1.7781,-1.4755,0.0,0.0,0.0,0.0,0.0,0.0,0.0,0.0,0.0,0.0,0.0,0.0,0.0,0.0,0.0,0.0,0.0,0.0,0.0,0.0,0.0,0.0,0.0,0.0,0.0,0.0,0.0,0.0,0.0,0.0,0.0,0.0,0.0,0.0,0.0,0.0,0.0,0.0,0.0,0.0,0.0,0.0,0.0,0.0,0.0,0.0,0.0,0.0,0.0,0.0,0.0,0.0,0.0,0.0,0.0,0.0,0.0,0.0,0.0,0.0,-1.4273,-1.3072,0.0,0.0,0.0,0.0,0.0,0.0,0.0,0.0,0.0,0.0,0.0,0.0,0.0,0.0,0.0,0.0,0.0,0.0,0.0,0.0,0.0,0.0,0.0,0.0,0.0,0.0,0.0,0.0,0.0,0.0,0.0,0.0,0.0,0.0,0.0,0.0,0.0,0.0,0.0,0.0,-1.7671,-1.964,-2.1412,-2.2922,-2.1731,-2.072,-2.045,-1.899,-1.7462,-1.5907,-1.473,0.0,0.0,0.0,0.0,0.0,0.0,0.0,0.0,0.0,0.0,0.0,0.0,0.0,0.0,0.0,0.0,0.0,0.0,0.0,0.0,0.0,0.0,0.0,0.0,0.0,0.0,0.0,0.0,0.0,0.0,0.0,0.0,0.0,0.0,0.0,0.0,0.0,0.0,0.0,0.0,0.0,0.0,0.0,0.0,0.0,0.0,0.0,0.0,0.0,0.0,0.0,0.0,0.0,0.0,0.0,0.0,0.0,0.0,0.0,-1.6868,-1.5257,0.0,0.0,0.0,0.0,0.0,0.0,0.0,0.0,0.0,0.0,0.0,0.0,0.0,0.0,0.0,0.0,0.0,0.0,0.0,0.0,0.0,0.0,0.0,0.0,0.0,0.0,0.0,0.0,0.0,0.0,0.0,0.0,0.0,0.0,0.0,0.0,0.0,0.0,0.0,0.0,-1.7814,-1.9362,-2.0788,-2.2268,-2.1113,-2.0121,-1.993,-1.8552,-1.7149,-1.5803,-1.4939,0.0,0.0,0.0,0.0,0.0,0.0,0.0,0.0,0.0,0.0,0.0,0.0,0.0,0.0,0.0,0.0,0.0,0.0,0.0,0.0,0.0,0.0,0.0,0.0,0.0,0.0,0.0,0.0,0.0,0.0,0.0,0.0,0.0,0.0,0.0,0.0,0.0,0.0,0.0,0.0,0.0,0.0,0.0,0.0,0.0,0.0,0.0,0.0,0.0,0.0,0.0,0.0,0.0,-2.1153,-2.2061,-2.2829,-2.232,-2.2435,-2.2828,-2.031,-1.8488,-1.7212,-1.6305,0.0,0.0,0.0,0.0,0.0,0.0,0.0,0.0,0.0,0.0,0.0,0.0,0.0,0.0,0.0,0.0,0.0,0.0,0.0,0.0,0.0,0.0,-1.7224,-1.7248,-1.8056,-1.7906,-1.4516,0.0,0.0,0.0,0.0,0.0,0.0,0.0,0.0,0.0,0.0,0.0,-1.7965,-1.9105,-2.0264,-2.1817,-2.0567,-1.9605,-1.9621,-1.8265,-1.6837,-1.5479,-1.5189,-1.4154,0.0,0.0,0.0,0.0,0.0,0.0,0.0,0.0,0.0,0.0,0.0,0.0,0.0,0.0,0.0,0.0,0.0,0.0,0.0,0.0,0.0,0.0,0.0,0.0,0.0,0.0,0.0,0.0,0.0,0.0,0.0,0.0,-1.2287,-1.2567,0.0,0.0,0.0,0.0,0.0,0.0,0.0,0.0,0.0,0.0,0.0,0.0,0.0,-1.9921,-2.0894,-2.3608,-2.4664,-2.4093,-2.6507,-2.7438,-2.7016,-2.6932,-2.6736,-2.6382,-2.567,0.0,-1.99,-1.8635,0.0,0.0,0.0,0.0,0.0,0.0,0.0,0.0,0.0,0.0,0.0,0.0,0.0,0.0,0.0,0.0,0.0,0.0,0.0,0.0,0.0,0.0,-1.9957,-1.9498,-1.9572,-1.9429,-1.8327,-1.6789,-1.5379,-1.4486,-1.3434,-1.2817,0.0,0.0,0.0,0.0,0.0,0.0,-1.7746,-1.8633,-1.9817,-2.1718,-2.0071,-1.8984,-1.9323,-1.7682,-1.6528,-1.6266,-1.5618,-1.5015,-1.4476,-1.2826,0.0,0.0,0.0,0.0,0.0,0.0,0.0,0.0,0.0,0.0,0.0,0.0,0.0,0.0,0.0,0.0,0.0,0.0,0.0,0.0,0.0,0.0,0.0,0.0,0.0,0.0,0.0,0.0,0.0,-1.2324,-1.3538,-1.3446,-1.3872,-1.3868,0.0,0.0,0.0,0.0,0.0,0.0,0.0,0.0,0.0,-2.1056,-2.2312,-2.3535,-2.4795,-2.6276,-2.7046,-2.7171,-2.8238,-2.8983,-2.9416,-2.9108,-2.9031,-2.9085,-2.861,-2.7231,-2.5033,-2.1951,-1.9668,-1.7996,0.0,0.0,0.0,0.0,-1.6598,-1.7003,-1.7645,-1.769,-1.7404,-1.6875,0.0,0.0,0.0,0.0,0.0,0.0,0.0,-1.7502,-1.7548,-1.9009,-2.0509,-2.089,-2.1401,-2.1705,-2.1277,-2.0179,-1.8511,-1.5842,-1.5127,-1.4712,-1.3944,-1.3857,0.0,0.0,0.0,-1.6637,-1.8509,-1.8857,-1.9425,-2.0698,-1.9621,-1.8737,-1.8531,-1.7378,-1.6646,-1.6567,-1.5741,-1.4991,-1.4417,-1.3037,-1.1737,0.0,0.0,0.0,0.0,0.0,0.0,0.0,0.0,0.0,0.0,0.0,0.0,0.0,0.0,0.0,0.0,0.0,0.0,0.0,0.0,0.0,0.0,0.0,0.0,0.0,0.0,0.0,0.0,-1.3211,-1.4564,-1.385,-1.4978,-1.5218,0.0,0.0,0.0,0.0,0.0,0.0,-1.8681,-1.9937,-2.1547,-2.3622,-2.5148,-2.6518,-2.7736,-2.8213,-2.8863,-2.9659,-2.9568,-3.0055,-3.0975,-3.057,-3.0566,-3.0735,-3.0294,-2.9767,-2.894,-2.5161,-2.2563,-2.0844,-1.9863,-1.9066,-1.85,-1.8933,-1.9379,-1.9856,-2.0486,-2.058,-2.0273,-1.9224,-1.8416,-1.7577,-1.5806,0.0,0.0,0.0,0.0,-1.7953,-1.8549,-1.9648,-2.084,-2.1816,-2.2615,-2.3128,-2.3101,-2.2566,-2.1099,-1.7752,-1.7059,-1.6638,-1.5431,-1.5297,0.0,-1.6217,-1.6541,-1.7374,-1.912,-1.9077,-1.918,-1.9903,-1.9147,-1.8377,-1.782,-1.6986,-1.6459,-1.6419,-1.5543,-1.4749,-1.4147,-1.3141,-1.188,-1.0361,0.0,0.0,0.0,0.0,0.0,0.0,0.0,0.0,0.0,0.0,0.0,0.0,0.0,0.0,0.0,0.0,0.0,0.0,0.0,0.0,0.0,0.0,0.0,0.0,0.0,0.0,0.0,0.0,0.0,-1.3099,-1.5879,0.0,0.0,0.0,0.0,-1.7984,-1.7794,-1.8782,-2.136,-2.2104,-2.3069,-2.4406,-2.654,-2.8096,-2.8984,-2.9794,-3.0603,-3.1476,-3.1646,-3.1783,-3.185,-3.1809,-3.15,-3.0962,-3.0757,-3.0361,-2.9703,-2.7697,-2.5937,-2.4417,-2.3156,-2.2226,-2.1543,-2.1345,-2.1372,-2.1534,-2.133,-2.0732,-2.0221,-2.1417,-2.1135,-2.0197,-1.9511,-1.903,0.0,0.0,-1.9024,-1.9847,-2.027,-2.0907,-2.1617,-2.2312,-2.2597,-2.2852,-2.3274,-2.2807,-2.1954,-2.0873,-1.9129,-1.7979,-1.8489,0.0,-1.6863,-1.7584,-1.7816,-1.8234,-1.9099,-1.9029,-1.9162,-1.9829,-1.8623,-1.7667,-1.744,-1.6332,-1.5668,-1.5668,-1.4945,-1.452,-1.4477,-1.3271,-1.2526,-1.2363,-1.0888,0.0,0.0,0.0,0.0,0.0,0.0,0.0,0.0,0.0,0.0,0.0,0.0,0.0,0.0,0.0,0.0,0.0,0.0,0.0,0.0,0.0,0.0,0.0,0.0,0.0,0.0,0.0,0.0,-1.5854,-1.8248,0.0,-1.7603,-1.8102,-1.884,-1.9579,-2.0015,-2.0997,-2.2755,-2.3532,-2.4902,-2.7014,-2.7572,-2.8648,-3.0417,-3.0267,-3.0375,-3.0842,-3.1343,-3.1465,-3.127,-3.1827,-3.1669,-3.0976,-3.1468,-3.1093,-3.0118,-2.9632,-2.8182,-2.6237,-2.5044,-2.4187,-2.359,-2.3486,-2.3485,-2.3563,-2.3472,-2.2817,-2.1957,-2.13,-2.0746,-2.0268,-2.0053,-2.013,-2.0207,-1.9739,-2.0117,-2.0651,-2.0475,-2.094,-2.1587,-2.2225,-2.2466,-2.2717,-2.3224,-2.3127,-2.2778,-2.2234,-2.0567,-1.9182,-1.897,-1.8513,-1.827,-1.8526,-1.8621,-1.8899,-1.9621,-1.928,-1.8888,-1.8702,-1.8218,-1.7531,-1.6637,-1.5765,-1.5278,-1.5278,-1.439,-1.3747,-1.3535,-1.2642,-1.1651,-1.0593,-1.0176,-0.9539,0.0,0.0,0.0,0.0,0.0,0.0,0.0,0.0,0.0,0.0,0.0,0.0,0.0,0.0,0.0,0.0,0.0,0.0,0.0,0.0,0.0,0.0,0.0,0.0,0.0,-1.628,-1.8081,-1.7816,-2.0236,-2.1293,-1.9744,-2.0207,-2.0789,-2.1293,-2.2006,-2.3004,-2.4487,-2.53,-2.652,-2.8169,-2.8051,-2.8673,-3.015,-2.9545,-2.9453,-2.9918,-3.031,-3.038,-3.019,-3.0657,-3.0568,-3.005,-3.0606,-3.0327,-2.9428,-2.9394,-2.8376,-2.6795,-2.6546,-2.61,-2.5557,-2.5359,-2.516,-2.4948,-2.4506,-2.4039,-2.339,-2.1747,-2.1178,-2.1033,-2.0844,-2.1131,-2.1394,-2.086,-2.1057,-2.1316,-2.0798,-2.1029,-2.1506,-2.1884,-2.2095,-2.2342,-2.2881,-2.2971,-2.29,-2.2679,-2.1547,-2.0427,-1.9867,-1.9594,-1.9389,-1.9269,-1.9305,-1.9489,-1.9788,-1.9541,-1.9079,-1.8411,-1.8042,-1.7391,-1.6291,-1.547,-1.495,-1.474,-1.3808,-1.3087,-1.2701,-1.216,-1.1262,-0.9958,-0.9996,-0.9588,-0.8713,0.0,0.0,0.0,0.0,0.0,0.0,0.0,0.0,0.0,0.0,0.0,0.0,0.0,0.0,0.0,0.0,0.0,0.0,0.0,0.0,0.0,0.0,0.0,-1.3794,-1.8043,-2.0481,-1.8706,-2.1628,-2.2891,-2.0695,-2.1737,-2.2749,-2.3207,-2.3684,-2.4732,-2.6485,-2.7327,-2.7734,-2.7656,-2.796,-2.8159,-2.8205,-2.7725,-2.7999,-2.8966,-2.877,-2.8691,-2.8627,-2.8394,-2.8302,-2.8263,-2.8302,-2.8053,-2.7599,-2.7055,-2.6526,-2.6251,-2.7662,-2.7905,-2.7378,-2.6778,-2.625,-2.5636,-2.4365,-2.4171,-2.4266,-2.2945,-2.2643,-2.2711,-2.2112,-2.2144,-2.2272,-2.1875,-2.1938,-2.1995,-2.1403,-2.134,-2.1423,-2.145,-2.1533,-2.1746,-2.2278,-2.2319,-2.2267,-2.2269,-2.2003,-2.1655,-2.132,-2.0716,-2.0133,-1.9744,-1.9889,0.0,-1.9533,-1.9762,-1.9697,-1.9046,-1.81,-1.7202,-1.6445,-1.5479,-1.4637,-1.4041,-1.3249,-1.2578,-1.213,-1.191,-1.1479,-1.0806,-1.0473,-1.0311,-1.0299,0.0,0.0,0.0,0.0,0.0,0.0,0.0,0.0,0.0,0.0,0.0,0.0,0.0,0.0,0.0,0.0,0.0,0.0,0.0,0.0,0.0,-1.554,-1.6868,-1.6818,-1.8416,-1.9801,-2.032,-2.1979,-2.2814,-2.2203,-2.3248,-2.4023,-2.4148,-2.4878,-2.55,-2.5859,-2.607,-2.6331,-2.6693,-2.6395,-2.6936,-2.832,-2.7534,-2.753,-2.8272,-2.8297,-2.8168,-2.7855,-2.8168,-2.7996,-2.7446,-2.8064,-2.7738,-2.684,-2.7296,-2.6788,-2.5753,-2.5972,-2.633,-2.6621,-2.6029,-2.5775,-2.56,-2.461,-2.4201,-2.3971,-2.2985,-2.2836,-2.3073,-2.2902,-2.3194,-2.3464,-2.2831,-2.2696,-2.2692,-2.2374,-2.1979,-2.1784,-2.2223,-2.2052,-2.1793,-2.1926,-2.1959,-2.1857,-2.1617,-2.124,-2.0831,-2.0561,-1.9946,-1.9409,-1.9169,-1.9173,-1.9192,-1.908,-1.9062,-1.8848,-1.8261,-1.7869,-1.7234,-1.6203,-1.5372,-1.4654,-1.4113,-1.3179,-1.265,-1.2618,-1.2086,-1.1457,-1.075,-1.0726,-1.056,0.0,0.0,0.0,0.0,0.0,0.0,0.0,0.0,0.0,0.0,0.0,0.0,0.0,0.0,0.0,0.0,0.0,0.0,0.0,0.0,0.0,0.0,-1.6696,-1.808,-1.8376,-1.9522,-2.0624,-2.15,-2.2398,-2.2931,-2.2931,-2.3887,-2.4317,-2.393,-2.5338,-2.6033,-2.5612,-2.6249,-2.6747,-2.6977,-2.6538,-2.6778,-2.7786,-2.6988,-2.6692,-2.6973,-2.6981,-2.6763,-2.6412,-2.6614,-2.6449,-2.6027,-2.6491,-2.6195,-2.5444,-2.5935,-2.5509,-2.4659,0.0,0.0,0.0,0.0,-2.5261,-2.4796,-2.4079,-2.3592,-2.3167,-2.2493,-2.223,-2.2201,-2.2502,-2.2904,-2.3119,-2.227,-2.2356,-2.2597,-2.2273,-2.2003,-2.2008,-2.268,-2.2498,-2.2156,-2.2107,-2.1939,-2.1661,-2.122,-2.0904,0.0,-1.9788,-1.9435,-1.9199,-1.8926,-1.9016,-1.9072,-1.8907,-1.8945,-1.8852,-1.844,-1.7727,-1.6973,-1.618,-1.5112,0.0,0.0,0.0,-1.2778,-1.2907,-1.2257,0.0,0.0,0.0,-1.1348,-1.1368,-1.2121,0.0,0.0,-1.2307,-1.2319,0.0,0.0,0.0,0.0,0.0,0.0,0.0,0.0,0.0,0.0,0.0,0.0,0.0,0.0,0.0,0.0,-1.7493,-1.8096,-1.9095,-2.0738,-2.1911,-2.2035,-2.2497,-2.2809,-2.2857,-2.3697,-2.3891,-2.3101,-2.5026,-2.5992,-2.5401,-2.6851,0.0,0.0,0.0,-2.711,-2.6915,-2.6245,-2.5829,-2.5688,-2.5359,-2.5158,-2.4903,-2.4658,-2.454,-2.4497,-2.4497,-2.4322,-2.395,-2.395,-2.3691,-2.3375,-2.4854,-2.528,-2.5146,-2.5388,-2.4806,-2.3826,-2.3272,0.0,0.0,-2.1939,-2.1391,-2.1002,-2.1572,-2.1947,-2.1952,-2.1003,-2.1385,-2.1977,-2.1599,-2.1661,-2.1976,-2.2684,-2.2763,-2.2603,-2.2424,-2.2114,-2.1677,-2.107,-2.0905,-2.0497,-1.9316,-1.9231,-1.9207,-1.8817,-1.9026,-1.9101,-1.8803,-1.9007,-1.912,-1.8969,-1.7647,0.0,-1.6262,-1.4996,-1.3954,-1.3342,-1.3193,-1.3174,-1.3295,-1.2592,-1.2483,-1.3087,-1.2464,-1.2451,-1.3103,-1.3103,-1.3414,-1.3957,-1.2913,-1.282,0.0,0.0,0.0,0.0,0.0,0.0,0.0,0.0,0.0,0.0,0.0,0.0,0.0,0.0,0.0,-1.8385,-1.8998,-1.959,-2.0567,-2.0474,-2.0322,-2.0377,-2.0644,-2.0949,-2.1274,-2.2153,-2.2684,-2.2537,-2.3639,-2.4185,-2.3847,-2.5133,-2.5747,-2.5344,-2.6243,-2.6621,-2.6446,-2.6059,-2.6001,-2.6141,-2.5743,0.0,-2.5115,-2.4903,-2.47,-2.4497,-2.4497,-2.4456,-2.4373,-2.4373,-2.4013,-2.3505,-2.4084,-2.4146,-2.4009,-2.4637,-2.4732,-2.4437,-2.3746,-2.342,-2.3247,-2.2564,-2.2268,-2.2132,-2.2034,-2.1949,0.0,-2.1173,-2.1075,-2.121,-2.1447,-2.1353,-2.1328,-2.1955,-2.2248,-2.2244,-2.1719,-2.192,-2.2027,-2.1417,-2.1008,-2.0667,-2.0389,-1.9596,-1.8755,-1.8051,-1.7989,-1.8023,-1.7929,-1.7882,-1.7882,-1.7969,-1.7598,-1.694,-1.598,-1.6062,-1.5699,-1.4622,-1.4487,-1.447,-1.4555,-1.3832,-1.3517,-1.3638,-1.3549,-1.3582,-1.3733,-1.3775,-1.3844,-1.3911,-1.3738,-1.3736,0.0,0.0,0.0,0.0,0.0,0.0,0.0,0.0,0.0,0.0,0.0,-1.5803,-1.6483,0.0,-1.8623,-1.9583,-2.0116,-2.0509,-2.0875,-2.0512,-2.0197,-2.0197,-2.0046,-2.0058,-2.0382,-2.1329,-2.1737,-2.1276,-2.2951,-2.3551,-2.2643,-2.4183,-2.4798,-2.4192,-2.545,-2.6013,-2.5793,-2.5855,-2.5956,-2.6087,-2.5605,-2.5338,-2.52,-2.5115,-2.4988,-2.4871,-2.4871,-2.4786,-2.47,-2.47,-2.4462,-2.4145,-2.4082,-2.3607,-2.3139,-2.4288,-2.4204,-2.3529,-2.3202,-2.2855,-2.2446,-2.211,-2.1604,-2.1191,-2.1397,-2.1217,-2.0849,-2.0271,-2.0272,-2.056,-2.0743,-2.0801,-2.0991,-2.1677,-2.2242,-2.2515,-2.2008,-2.2115,-2.2113,-2.1554,-2.1017,-2.0558,-2.0241,-1.9707,-1.9155,-1.8731,-1.8777,-1.8806,-1.8658,-1.8451,-1.839,-1.8625,-1.8084,-1.7424,-1.6769,-1.6455,-1.6059,-1.5501,-1.5166,-1.501,-1.5044,-1.4363,-1.399,-1.399,-1.3745,-1.3711,-1.3904,-1.3698,-1.3698,-1.3854,-1.3911,-1.3927,0.0,0.0,0.0,0.0,0.0,0.0,0.0,-1.3811,-1.4536,-1.5189,-1.6271,-1.7415,-1.8449,-1.8937,-1.9566,-2.0636,-2.0923,-2.1044,-2.0897,-2.0665,-2.0513,-2.0513,-2.0092,-1.9895,-2.0138,-2.1017,-2.1212,-2.0452,-2.2421,-2.3069,-2.1755,-2.342,-2.411,-2.3466,-2.4746,-2.5295,-2.4912,-2.5454,-2.5639,-2.5493,-2.5338,-2.5242,-2.52,-2.52,-2.52,-2.52,-2.52,-2.5115,-2.4946,-2.4988,-2.4924,-2.4772,-2.4457,-2.3709,-2.2913,-2.3993,-2.3596,-2.2537,-2.259,-2.2157,-2.1592,-2.1607,-2.0921,-2.0146,-2.0627,-2.043,-1.9932,-1.9328,-1.9528,-1.9922,-1.9954,-2.0234,-2.0726,-2.1315,-2.2219,-2.2815,-2.2326,-2.226,-2.213,-2.1588,-2.1016,-2.0441,-1.996,-1.9869,-1.9766,-1.9507,-1.9646,-1.9734,-1.957,-1.926,-1.9168,-1.952,-1.8714,-1.8057,-1.7771,-1.675,-1.6169,-1.6233,-1.5626,-1.5278,-1.5278,-1.4478,-1.4069,-1.4086,-1.3501,-1.3365,-1.3708,-1.328,-1.3246,-1.3556,-1.3641,-1.3725,-1.3529,-1.3055,-1.3,-1.4138,-1.4164,-1.4493,0.0,-1.6725,-1.6608,-1.7359,-1.8204,-1.8973,-1.9453,-1.9808,-2.0373,-2.1619,-2.1297,-2.1079,-2.145,-2.092,-2.0513,-2.0513,-2.0458,-2.0614,-2.1156,-2.1442,-2.1552,-2.1519,-2.1812,-2.1786,-2.1407,-2.2449,-2.3076,-2.2959,-2.4082,-2.4275,-2.3505,-2.4575,-2.4725,-2.4044,-2.5062,-2.5422,-2.52,-2.52,-2.52,-2.52,-2.52,-2.52,-2.52,-2.5422,-2.5227,-2.4816,-2.4987,-2.473,-2.4174,-2.3468,-2.3075,-2.2916,-2.2761,-2.2504,-2.228,-2.2077,-2.1528,-2.0923,-2.0757,-2.0317,-1.9763,-1.94,-1.9241,-1.9236,-1.936,-1.9885,-2.0387,-2.0304,-2.157,-2.2592,-2.1781,-2.1965,-2.211,-2.1542,-2.0964,-2.0597,-2.0506,-2.0493,-2.0152,-1.913,-1.8996,-1.911,-1.9301,-1.909,-1.9031,-1.931,-1.9226,-1.8932,-1.8363,-1.7474,-1.6995,-1.7057,-1.612,-1.5547,-1.5547,-1.423,-1.3539,-1.3661,-1.3129,-1.2908,-1.3,-1.2779,-1.2656,-1.265,-1.2838,-1.3271,-1.3527,-1.3851,-1.4471,-1.4721,-1.5356,-1.6059,-1.6773,-1.7109,-1.7507,-1.8407,-1.9249,-1.9977,-2.0689,-2.0759,-2.1061,-2.2011,-2.1827,-2.1588,-2.1805,-2.138,-2.087,-2.0436,-2.0458,-2.0606,-2.0835,-2.1006,-2.1188,-2.1378,-2.1601,-2.1584,-2.1269,-2.1845,-2.2114,-2.1903,-2.3024,-2.3689,-2.3824,-2.4487,-2.4955,-2.5195,-2.5328,-2.5464,-2.5591,-2.5464,-2.5506,-2.5591,-2.5464,-2.5506,-2.5591,-2.5601,-2.5525,-2.5411,-2.4948,-2.4661,-2.4399,-2.3689,-2.3427,-2.3346,-2.2875,-2.2628,-2.2472,-2.1898,-2.1387,-2.0936,-2.0428,-2.0002,-1.9626,-1.937,-1.9241,-1.9199,-1.9187,-1.9391,-1.9738,-2.0136,-2.0979,-2.1634,-2.1435,-2.1592,-2.1602,-2.1032,-2.0874,-2.0711,-2.0333,-2.0563,-2.0494,-1.9502,-1.9395,-1.9318,-1.8983,-1.861,-1.8533,-1.9026,-1.875,-1.8577,-1.868,-1.7704,-1.7004,-1.6737,-1.6065,-1.555,-1.5253,-1.4388,-1.3961,-1.3999,-1.3514,-1.34,-1.3658,-1.3209,-1.3163,-1.3431,-1.3331,-1.3509,-1.3509,-1.4201,-1.5152,-1.5282,-1.6205,-1.7064,-1.6916,-1.7443,-1.8209,-1.9067,-1.981,-2.0523,-2.1177,-2.1049,-2.1032,-2.1686,-2.1599,-2.1426,-2.1535,-2.1216,-2.0786,-2.0293,-2.0239,-2.0335,-2.0615,-2.0824,-2.1104,-2.1396,-2.1677,-2.1711,-2.1437,-2.1627,-2.1601,-2.1437,-2.212,-2.2788,-2.3327,-2.37,-2.436,-2.5256,-2.4783,-2.485,-2.5422,-2.5338,-2.538,-2.5506,-2.5644,-2.5644,-2.5506,-2.5559,-2.5652,-2.5633,-2.4611,-2.4226,-2.4093,-2.3559,-2.3443,-2.3444,-2.2934,-2.274,-2.2611,-2.1961,-2.1426,-2.0896,-2.0407,-1.9959,-1.9604,-1.9565,-1.9573,-1.9561,-1.9619,-1.9711,-1.996,-2.0456,-2.1002,-2.1376,-2.1385,-2.1517,-2.1429,-2.0784,-2.0783,-2.073,-2.0111,-2.0406,-2.0464,-1.9685,-1.9598,-1.9465,-1.9088,-1.8729,-1.8704,-1.9121,-1.8636,-1.8414,-1.8794,-1.7845,-1.7073,-1.6563,-1.5938,-1.5445,-1.5091,-1.4371,-1.3991,-1.4,-1.3586,-1.3517,-1.3833,-1.3376,-1.3335,-1.3683,-1.3433,-1.3463,-1.3332,-1.3677,-1.4348,-1.5947,-1.6715,-1.7261,-1.7919,-1.852,-1.9099,-1.9512,-2.0004,-2.0441,-2.0513,-2.0226,-2.0074,-2.0424,-2.0205,-2.0101,-2.0395,-2.014,-1.9974,-2.0077,-1.9823,-1.9941,-2.0793,-2.1309,-2.1686,-2.203,-2.2064,-2.2072,-2.2055,-2.1818,-2.1818,-2.2055,-2.1528,-2.1179,-2.1094,-2.1693,-2.2288,-2.2906,-2.2896,-2.3367,-2.4251,-2.4456,-2.4541,-2.4584,-2.5506,-2.538,-2.4584,-2.5295,-2.5456,-2.5104,-2.4033,-2.3464,-2.3171,-2.2704,-2.2758,-2.3023,-2.3001,-2.2852,-2.2703,-2.2681,-2.191,-2.0995,-2.0974,-2.0326,-1.9701,-2.0135,-2.0262,-2.0358,-2.0828,-2.1286,-2.1556,-2.1317,-2.198,-2.2464,-2.1732,-2.1908,-2.1913,-2.0976,-2.0741,-2.0556,-2.0071,-2.0018,-1.9872,-1.9361,-1.9201,-1.9308,-1.9802,-1.9866,-1.9855,-1.9855,-1.9332,-1.8872,-1.8643,-1.8045,-1.7451,-1.6911,-1.5901,-1.5317,-1.5295,-1.3893,-1.3176,-1.3232,-1.2958,-1.2858,-1.2931,-1.2858,-1.2753,-1.2648,-1.2637,-1.2753,-1.4093,-1.5177,-1.6352,-1.7128,-1.7777,-1.8261,-1.8326,-1.8512,-1.8776,-1.9138,-1.8778,-1.8537,-1.8973,-1.8726,-1.8575,-1.8928,-1.9525,-1.9957,-2.0027,-2.0138,-1.99,-1.9268,-1.9594,-1.9906,-2.0029,-2.0716,-2.1372,-2.1984,-2.2026,-2.2129,-2.2426,-2.2342,-2.2342,-2.2443,-2.1994,-2.1896,-2.2197,-2.2393,-2.2675,-2.3018,-2.2683,-2.2692,-2.3008,-2.2892,-2.2838,-2.2863,-2.2926,-2.2836,-2.2591,-2.2968,-2.3374,-2.3639,-2.2773,-2.2554,-2.2625,-2.1537,-2.1632,-2.2268,-2.2804,-2.2964,-2.2835,-2.2362,-2.1844,-2.1382,-2.1242,-2.061,-2.0008,-2.0393,-2.0252,-2.0123,-2.0458,-2.0424,-2.0543,-2.1535,-2.1421,-2.1161,-2.1347,-2.1511,-2.1419,-2.0807,-2.1069,-2.1243,-2.069,-2.066,-2.0494,-1.9785,-1.9133,-1.8698,-1.8635,-1.8635,-1.8756,-1.9004,-1.8228,-1.7792,-1.812,-1.7351,-1.6634,-1.6121,-1.5854,-1.5561,-1.5241,-1.4549,-1.4071,-1.3879,-1.3765,-1.3584,-1.3303,-1.3505,-1.3564,-1.3519,-1.3257,-1.3259,-1.5358,-1.6609,-1.7711,-1.8224,-1.8631,-1.8847,-1.8636,-1.8426,-1.8297,-1.8433,-1.7743,-1.7188,-1.7243,-1.6872,-1.679,-1.7445,-1.8016,-1.859,-1.9213,-1.9437,-1.9375,-1.8878,-1.9288,-1.9669,-1.9686,-2.005,-2.0802,-2.1944,-2.1917,-2.1996,-2.2274,-2.2089,-2.2089,-2.2291,-2.1602,-2.1673,-2.2506,-2.189,-2.1717,-2.1977,-2.2048,-2.2028,-2.1898,-2.1515,-2.1382,-2.1364,-2.1496,-2.1348,-2.1132,-2.1705,-2.2121,-2.2321,-2.1514,-2.1308,-2.1312,-2.0419,-2.0421,-2.1068,-2.2182,-2.2767,-2.2909,-2.2494,-2.2118,-2.1819,-2.1713,-2.1194,-2.0729,-2.1105,-2.0854,-2.0594,-2.0943,-2.0801,-2.0836,-2.1858,-2.1668,-2.1298,-2.1382,-2.1677,-2.1666,-2.0854,-2.1384,-2.1744,-2.1016,-2.0985,-2.0804,-2.0096,-1.9608,-1.9167,-1.8649,-1.8554,-1.868,-1.894,-1.8035,-1.7594,-1.7959,-1.7111,-1.6409,-1.6116,-1.6031,-1.5827,-1.5521,-1.5135,-1.4768,-1.4395,-1.4421,-1.4231,-1.3744,-1.3977,-1.3995,-1.3822,-1.3643,-1.3527,-1.7067,-1.7846,-1.8383,-1.9217,-1.9225,-1.8981,-1.8775,-1.8259,-1.7754,-1.7434,-1.6883,-1.6189,-1.5306,-1.4816,-1.4891,-1.5917,-1.5938,-1.6334,-1.79,-1.8152,-1.8383,-1.8878,-1.8965,-1.9155,-1.9687,-1.9485,-2.0047,-2.1715,-2.1703,-2.1633,-2.1674,-2.1173,-2.1121,-2.1623,-2.0547,-2.0541,-2.1889,-2.0183,-1.9588,-2.006,-2.0936,-2.1179,-2.0908,-2.0322,-2.0051,-2.0096,-2.0998,-2.0908,-2.0187,-2.1355,-2.1602,-2.1161,-2.0428,-1.9871,-1.9475,-1.9288,-1.9262,-1.9529,-2.1106,-2.2193,-2.2889,-2.2964,-2.2648,-2.2252,-2.231,-2.1996,-2.1691,-2.2182,-2.1985,-2.1734,-2.2193,-2.2299,-2.2321,-2.239,-2.2717,-2.2783,-2.1854,-2.2368,-2.2597,-2.1233,-2.168,-2.2018,-2.1091,-2.0938,-2.0774,-2.0249,-2.0609,-2.0607,-1.9745,-1.9605,-1.9605,-1.9605,-1.8775,-1.8211,-1.819,-1.736,-1.6839,-1.6818,-1.6392,-1.6148,-1.6148,-1.5658,-1.5169,-1.4715,-1.4817,-1.4631,-1.4123,-1.4177,-1.3972,-1.3485,-1.3704,-1.3499,-1.7744,-1.8668,-1.9433,-1.9407,-1.9359,-1.905,-1.7989,-1.7235,-1.656,-1.5746,-1.4521,-1.3466,-1.3054,-1.3508,-1.4073,-1.4479,-1.6088,-1.7272,-1.7239,-1.7643,-1.801,-1.8131,-1.8506,-1.8677,-1.8538,-1.9684,-2.0222,-1.9793,-2.0153,-2.056,-2.1089,-2.0968,-2.0968,-2.1121,-2.053,-2.0388,-2.0733,-2.0118,-2.0042,-2.0447,-1.9802,-1.9537,-1.9629,-1.8719,-1.8357,-1.8342,-1.8344,-1.8421,-1.865,-1.906,-1.9628,-2.0192,-1.9677,-1.9461,-1.9393,-1.8605,-1.8745,-1.9381,-1.9805,-2.0459,-2.1346,-2.258,-2.2268,-2.1592,-2.2533,-2.2248,-2.1691,-2.2182,-2.2226,-2.216,-2.228,-2.2575,-2.2914,-2.3247,-2.3422,-2.3372,-2.2772,-2.2826,-2.2794,-2.2084,-2.2149,-2.2127,-2.1505,-2.1407,-2.1363,-2.1243,-2.1319,-2.1032,-1.9975,-1.9835,-1.9769,-1.9605,-1.9073,-1.8573,-1.8222,-1.7648,-1.7169,-1.6828,-1.6701,-1.6637,-1.6637,-1.5839,-1.522,-1.4849,-1.4542,-1.3983,-1.3162,-1.3864,-1.3916,-1.3363,-1.375,-1.3875,-1.9036,-1.9743,-2.0221,-1.9652,-1.9248,-1.8665,-1.7198,-1.6374,-1.5506,-1.3987,-1.2785,-1.1874,-1.1456,-1.1972,-1.2792,-1.3756,-1.5493,-1.6735,-1.6854,-1.775,-1.8353,-1.815,-1.8795,-1.9003,-1.8279,-1.9411,-1.9665,-1.8576,-1.9439,-2.0144,-2.0534,-2.0351,-2.03,-2.0557,-1.9961,-1.9664,-1.9709,-2.0013,-2.0127,-2.0022,-1.9154,-1.8691,-1.8681,-1.7893,-1.7527,-1.752,-1.7335,-1.7442,-1.7738,-1.7965,-1.832,-1.8762,-1.88,-1.8797,-1.8726,-1.8246,-1.8252,-1.8638,-1.9075,-1.943,-1.9905,-2.1302,-2.1595,-2.1516,-2.2136,-2.2273,-2.2313,-2.2794,-2.2783,-2.2663,-2.2844,-2.3132,-2.3356,-2.3629,-2.3858,-2.3929,-2.3427,-2.3318,-2.3187,-2.2706,-2.2455,-2.2237,-2.1953,-2.1909,-2.1832,-2.1625,-2.1686,-2.1474,-2.0635,-2.0421,-2.028,-2.018,-1.9501,-1.8912,-1.8644,-1.7931,-1.74,-1.7116,-1.697,-1.6881,-1.6881,-1.646,-1.6035,-1.56,-1.5343,-1.4855,-1.4128,-1.466,-1.4514,-1.3786,-1.4189,-1.4166,-2.0467,-2.0835,-2.0852,-1.9898,-1.9151,-1.8171,-1.6473,-1.5466,-1.4348,-1.2349,-1.1533,-1.095,-1.0272,-1.0588,-1.1541,-1.3427,-1.4642,-1.5604,-1.6453,-1.7805,-1.8513,-1.8017,-1.8932,-1.9181,-1.8112,-1.8744,-1.8759,-1.7772,-1.9132,-1.9983,-1.9983,-1.9524,-1.9509,-1.9914,-1.9139,-1.8784,-1.8897,-1.962,-1.9703,-1.9209,-1.8592,-1.8227,-1.8087,-1.752,-1.7279,-1.7279,-1.7279,-1.7326,-1.7419,-1.7699,-1.7645,-1.7529,-1.8114,-1.8168,-1.7905,-1.8002,-1.7889,-1.7775,-1.8671,-1.8798,-1.8736,-1.985,-2.0881,-2.1607,-2.156,-2.2179,-2.3026,-2.3575,-2.3476,-2.3286,-2.3618,-2.3764,-2.3801,-2.3813,-2.405,-2.4216,-2.3811,-2.3539,-2.3263,-2.2901,-2.2544,-2.2316,-2.2437,-2.2426,-2.2284,-2.186,-2.1945,-2.1901,-2.1514,-2.1125,-2.0925,-2.0925,-2.0031,-1.9382,-1.9296,-1.8355,-1.7739,-1.7547,-1.7331,-1.7168,-1.7011,-1.7183,-1.7038,-1.6498,-1.6432,-1.6171,-1.5713,-1.5778,-1.5342,-1.4459,-1.4817,-1.4553,-2.1115,-2.1387,-2.124,-2.0209,-1.9298,-1.811,-1.5961,-1.4137,-1.2548,-1.1352,-1.0481,-0.9807,-0.9441,-1.0321,-1.1573,-1.3121,-1.4491,-1.5413,-1.5492,-1.6078,-1.6332,-1.5903,-1.6141,-1.6325,-1.6091,-1.7566,-1.8035,-1.6802,-1.8404,-1.9428,-1.9428,-1.9324,-1.9199,-1.9029,-1.8605,-1.8407,-1.8397,-1.7869,-1.7952,-1.8733,-1.7476,-1.7315,-1.8087,-1.752,-1.7279,-1.7279,-1.7279,-1.7567,-1.7986,-1.8265,-1.835,-1.8319,-1.8483,-1.8258,-1.7905,-1.779,-1.7877,-1.804,-1.8272,-1.8329,-1.8499,-1.9981,-2.0556,-2.0865,-2.1549,-2.2126,-2.2745,-2.3508,-2.396,-2.4183,-2.3855,-2.4049,-2.4347,-2.4379,-2.3897,-2.3474,-2.3711,-2.2615,-2.1599,-2.18,-2.2053,-2.2425,-2.3101,-2.3062,-2.2915,-2.2841,-2.2563,-2.2291,-2.2216,-2.1496,-2.0973,-2.0973,-2.0823,-2.0418,-1.9759,-1.9512,-1.8921,-1.7819,-1.8143,-1.7988,-1.7043,-1.7183,-1.7038,-1.6498,-1.6127,-1.5691,-1.5236,-1.5615,-1.5455,-1.4828,-1.5264,-1.5339,-2.1115,-2.1317,-2.111,-1.9947,-1.8996,-1.7637,-1.486,-1.3376,-1.2063,-1.036,-0.9681,-0.9361,-0.9237,-1.0059,-1.1141,-1.2223,-1.323,-1.3896,-1.4135,-1.4879,-1.5317,-1.5093,-1.576,-1.5999,-1.5498,-1.6592,-1.6778,-1.5561,-1.6731,-1.8042,-1.922,-1.9111,-1.895,-1.8796,-1.8474,-1.8063,-1.7638,-1.6988,-1.6931,-1.7498,-1.6042,-1.617,-1.766,-1.6897,-1.6803,-1.7279,-1.7279,-1.7473,-1.7707,-1.7846,-1.78,-1.7746,-1.8003,-1.7987,-1.7835,-1.7894,-1.7948,-1.8041,-1.8033,-1.8229,-1.8591,-1.9358,-2.0186,-2.086,-2.0829,-2.1901,-2.302,-2.248,-2.2848,-2.3371,-2.3421,-2.3586,-2.3841,-2.4138,-2.3701,-2.3188,-2.3084,-2.2369,-2.1873,-2.2128,-2.192,-2.198,-2.2711,-2.2188,-2.167,-2.167,-2.1348,-2.1116,-2.1116,-2.0707,-2.0663,-2.1284,-2.0755,-2.0302,-2.0209,-1.9942,-1.9469,-1.8664,-1.839,-1.8002,-1.7449,-1.7173,-1.6935,-1.666,-1.6445,-1.6245,-1.6087,-1.6315,-1.6158,-1.5616,-1.5853,-1.5763,-2.0965,-2.1219,-2.1025,-1.9693,-1.8547,-1.6951,-1.4017,-1.2713,-1.1601,-0.9626,-0.9159,-0.9106,-0.9106,-0.9708,-1.0493,-1.1395,-1.1944,-1.2459,-1.3053,-1.3933,-1.448,-1.4386,-1.5356,-1.5727,-1.4908,-1.5485,-1.5543,-1.4564,-1.5366,-1.6658,-1.8475,-1.8219,-1.8123,-1.8326,-1.7747,-1.7218,-1.6766,-1.5945,-1.5682,-1.6021,-1.4644,-1.5032,-1.6943,-1.6177,-1.6231,-1.699,-1.7232,-1.7232,-1.7091,-1.738,-1.7387,-1.7261,-1.7675,-1.7815,-1.7815,-1.804,-1.811,-1.8114,-1.8065,-1.8334,-1.8714,-1.8912,-1.9925,-2.0933,-2.0303,-2.1486,-2.2775,-2.1566,-2.1546,-2.2038,-2.2505,-2.2707,-2.2872,-2.311,-2.3006,-2.2611,-2.1736,-2.1536,-2.1613,-2.197,-2.1434,-2.1165,-2.1863,-2.118,-2.051,-2.051,-2.0183,-1.9893,-1.9809,-1.9706,-2.0038,-2.1124,-2.0464,-2.0201,-2.0786,-2.0411,-1.9884,-1.9297,-1.854,-1.7929,-1.7507,-1.721,-1.6888,-1.6584,-1.6717,-1.6807,-1.6814,-1.6775,-1.6633,-1.6374,-1.6374,-1.61,-2.085,-2.1448,-2.1309,-2.0009,-1.8293,-1.6301,-1.4028,-1.1902,-1.0208,-0.9358,-0.9008,-0.8831,-0.8831,-0.9004,-0.9631,-1.1168,-1.1565,-1.1981,-1.2794,-1.3349,-1.3353,-1.2714,-1.3109,-1.3412,-1.3322,-1.4106,-1.4619,-1.4509,-1.5366,-1.5968,-1.618,-1.5694,-1.5872,-1.6784,-1.5395,-1.5048,-1.5886,-1.401,-1.3522,-1.4507,-1.3403,-1.3926,-1.594,-1.5846,-1.5846,-1.5988,-1.6897,-1.6904,-1.6379,-1.7559,-1.804,-1.804,-1.8288,-1.8288,-1.8087,-1.8087,-1.8265,-1.848,-1.8512,-1.8556,-1.8733,-1.9393,-2.0009,-2.0504,-2.0742,-2.0825,-2.0995,-2.1489,-2.1179,-2.0752,-2.1042,-2.1445,-2.1629,-2.0911,-2.1277,-2.1273,-1.9112,-1.869,-1.8888,-1.9668,-1.9808,-2.0114,-2.0878,-2.0989,-2.0927,-2.0927,-2.0368,-1.9811,-1.9593,-1.9096,-1.9039,-1.9652,-2.0361,-2.1024,-2.1568,-2.1385,-2.057,-1.8954,-1.8972,-1.8265,-1.6524,-1.7365,-1.723,-1.5824,-1.6457,-1.659,-1.6189,-1.6046,-1.6197,-1.6564,-1.6564,-1.6479,-1.9679,-2.0327,-2.0305,-1.9218,-1.7809,-1.6075,-1.3596,-1.1817,-1.0343,-0.9199,-0.8883,-0.8804,-0.8804,-0.891,-0.9296,-1.0241,-1.0114,-1.0316,-1.1435,-1.1408,-1.1494,-1.2103,-1.2269,-1.2413,-1.2668,-1.2935,-1.3077,-1.3077,-1.3287,-1.3477,-1.362,-1.4556,-1.5256,-1.5531,-1.471,-1.4166,-1.3926,-1.3113,-1.292,-1.3307,-1.2301,-1.2974,-1.5134,-1.508,-1.5181,-1.5473,-1.6911,-1.7044,-1.6285,-1.738,-1.7761,-1.766,-1.8094,-1.7807,-1.7293,-1.8048,-1.8087,-1.7863,-1.8356,-1.8545,-1.8619,-1.9211,-1.9615,-1.9825,-1.9788,-2.0117,-2.0316,-1.9402,-1.932,-1.9523,-1.9632,-2.0024,-2.0315,-1.9894,-1.9892,-1.9815,-1.8998,-1.8704,-1.8841,-1.9577,-1.9315,-1.9315,-2.0375,-1.966,-1.9029,-1.9339,-1.8619,-1.8143,-1.8225,-1.7963,-1.8151,-1.9039,-1.9329,-1.9706,-2.0274,-2.0077,-1.9508,-1.8634,-1.834,-1.7729,-1.6745,-1.6878,-1.6546,-1.5581,-1.5856,-1.5917,-1.5682,-1.582,-1.5989,-1.62,-1.6542,-1.6637,-1.8238,-1.9015,-1.9178,-1.8247,-1.6998,-1.5461,-1.3109,-1.1551,-1.0269,-0.8992,-0.8778,-0.8778,-0.8752,-0.8877,-0.9126,-0.9501,-0.9304,-0.9498,-1.0543,-1.0306,-1.0476,-1.1614,-1.1633,-1.1685,-1.2035,-1.2001,-1.1991,-1.1991,-1.1902,-1.1855,-1.1897,-1.3289,-1.4121,-1.4283,-1.3679,-1.3162,-1.2678,-1.2393,-1.2301,-1.2349,-1.1678,-1.2403,-1.4376,-1.4561,-1.4752,-1.5099,-1.681,-1.7052,-1.6237,-1.6958,-1.7239,-1.7185,-1.7271,-1.6897,-1.648,-1.738,-1.7552,-1.739,-1.7939,-1.8288,-1.8527,-1.8888,-1.8986,-1.8891,-1.8761,-1.928,-1.9609,-1.8103,-1.802,-1.8417,-1.8724,-1.915,-1.9454,-1.9374,-1.9203,-1.9052,-1.8902,-1.8635,-1.8635,-1.9171,-1.8719,-1.8535,-1.9392,-1.8559,-1.7864,-1.8182,-1.759,-1.7203,-1.7297,-1.7329,-1.7632,-1.8303,-1.8224,-1.8413,-1.9236,-1.8955,-1.8513,-1.8015,-1.7498,-1.7022,-1.6604,-1.6413,-1.5971,-1.5258,-1.5596,-1.5713,-1.5564,-1.5888,-1.6166,-1.6308,-1.6751,-1.6821,-1.6596,-1.7619,-1.8278,-1.7345,-1.5812,-1.4151,-1.2627,-1.0973,-0.9519,-0.8751,-0.8718,-0.8752,-0.8626,-0.8817,-0.9058,-0.9198,-0.9599,-1.0089,-1.0603,-1.0645,-1.0743,-1.1144,-1.1018,-1.0986,-1.1189,-1.1576,-1.1817,-1.1817,-1.1817,-1.1732,-1.1534,-1.152,-1.2013,-1.2998,-1.184,-1.1722,-1.2678,-1.1722,-1.134,-1.159,-1.1585,-1.2262,-1.3559,-1.4328,-1.4704,-1.4806,-1.6567,-1.6904,-1.619,-1.619,-1.6473,-1.6788,-1.5832,-1.5596,-1.5798,-1.5846,-1.6452,-1.7296,-1.7296,-1.7839,-1.8481,-1.852,-1.8095,-1.7689,-1.8018,-1.8383,-1.8645,-1.8279,-1.7758,-1.7552,-1.8565,-1.8988,-1.918,-1.918,-1.9355,-1.9255,-1.8311,-1.7908,-1.7721,-1.7721,-1.7721,-1.7721,-1.7721,-1.7947,-1.8079,-1.8079,-1.7893,-1.7587,-1.722,-1.7505,-1.7579,-1.7258,-1.7137,-1.7639,-1.8968,-1.8632,-1.7923,-1.7066,-1.6709,-1.6261,-1.564,-1.6104,-1.584,-1.4641,-1.5852,-1.6287,-1.5899,-1.6291,-1.6775,-1.7292,-1.7292,-1.7109,-1.4363,-1.5021,-1.5307,-1.4606,-1.3878,-1.2907,-1.1296,-1.04,-0.9626,-0.867,-0.8235,-0.8103,-0.8295,-0.8123,-0.819,-0.8834,-0.9559,-1.0028,-0.9956,-1.0643,-1.1144,-1.1076,-1.1341,-1.1553,-1.1614,-1.1482,-1.1453,-1.1605,-1.1477,-1.143,-1.1515,-1.1378,-1.1441,-1.1781,-1.1423,-1.1438,-1.1917,-1.1634,-1.159,-1.1878,-1.1878,-1.217,-1.2802,-1.3709,-1.3757,-1.3232,-1.4949,-1.5086,-1.413,-1.4848,-1.5276,-1.5419,-1.5425,-1.5425,-1.5615,-1.6318,-1.6875,-1.7343,-1.7738,-1.8133,-1.8481,-1.828,-1.8049,-1.7825,-1.8026,-1.8026,-1.7983,-1.8087,-1.7717,-1.7414,-1.788,-1.8087,-1.8218,-1.836,-1.847,-1.845,-1.8179,-1.7908,-1.7628,-1.7481,-1.7426,-1.752,-1.79,-1.7753,-1.766,-1.804,-1.7566,-1.7185,-1.7257,-1.7222,-1.7193,-1.7265,-1.7076,-1.7181,-1.769,-1.6998,-1.6562,-1.6737,-1.6252,-1.5945,-1.5878,-1.5943,-1.5708,-1.5153,-1.6077,-1.6378,-1.5977,-1.6368,-1.6558,-1.6527,-1.6167,-1.6004,-1.2362,-1.3019,-1.33,-1.2787,-1.2288,-1.1626,-1.0347,-0.9754,-0.9266,-0.8497,-0.7996,-0.775,-0.7975,-0.7744,-0.7673,-0.8224,-0.8981,-0.9466,-0.9377,-1.0142,-1.0719,-1.0711,-1.1091,-1.1378,-1.1463,-1.1302,-1.125,-1.1387,-1.1274,-1.1304,-1.1537,-1.1318,-1.1292,-1.1492,-1.1389,-1.1487,-1.1731,-1.1731,-1.1883,-1.2175,-1.2175,-1.2273,-1.2565,-1.3474,-1.3522,-1.2894,-1.428,-1.437,0.0,-1.3938,-1.437,-1.48,-1.4813,-1.5146,-1.5615,-1.6271,-1.6788,-1.721,-1.7552,-1.79,-1.8148,-1.8001,-1.7903,-1.7865,-1.8025,-1.7895,-1.7682,-1.8025,-1.7707,-1.7328,-1.7598,-1.7657,-1.7716,-1.7881,-1.7988,-1.8087,-1.8087,-1.7908,-1.7628,-1.7473,-1.738,-1.7426,-1.7753,-1.752,-1.7426,-1.7753,-1.7396,-1.7106,-1.7257,-1.7157,-1.7106,-1.7264,-1.7047,-1.6905,-1.7011,-1.6629,-1.6367,-1.6378,-1.6277,-1.613,-1.5977,-1.5745,-1.5566,-1.5349,-1.6032,-1.626,-1.5959,-1.6251,-1.6308,-1.6085,-1.553,-1.5272,0.0,-1.1484,-1.2017,-1.1625,-1.0958,-1.027,-0.9714,-0.9057,0.0,-0.8137,-0.7836,-0.7595,-0.7639,-0.7509,-0.7413,-0.7503,-0.8092,-0.8628,-0.8889,-0.9232,-0.9692,-1.022,-1.0472,-1.0712,-1.0896,-1.1085,-1.1194,-1.1194,-1.1198,-1.1345,-1.1585,-1.134,-1.1487,-1.2029,-1.1785,-1.178,-1.2029,-1.2029,-1.2175,-1.2419,-1.2419,-1.2565,-1.2813,-1.3522,-1.3661,-1.3463,-1.4184,-1.437,-1.4028,-1.3312,-1.3746,-1.4806,-1.419,-1.4711,-1.5846,-1.5846,-1.6318,-1.6983,-1.6936,-1.7279,-1.7721,-1.7645,-1.766,-1.7768,-1.7994,-1.79,-1.7768,-1.804,-1.7707,-1.738,-1.7628,-1.7721,-1.7675,-1.7721,-1.79,-1.8087,-1.8087,-1.7861,-1.7675,-1.7675,-1.7481,-1.7279,-1.7279,-1.7279,-1.7279,-1.7279,-1.7279,-1.7279,-1.7279,-1.7279,-1.7279,-1.7279,-1.7062,-1.6939,-1.6939,-1.7226,-1.6991,-1.61,-1.6616,-1.6641,-1.5943,-1.5593,-1.5381,-1.5237,-1.584,-1.6081,-1.597,-1.6017,-1.5975,-1.5849,-1.5289,-1.4915,-0.9328,0.0,-1.0212,-0.9743,-0.9672,-0.9495,0.0,-0.8302,-0.804,-0.7155,-0.675,-0.6666,-0.7104,-0.6709,-0.6651,-0.7501,-0.8397,-0.8788,-0.8317,-0.878,-0.9477,-1.0288,-1.0569,-1.0793,-1.1088,-1.1165,-1.1194,-1.1194,-1.1389,-1.1541,-1.1585,-1.1536,-1.1731,-1.2273,-1.2029,-1.2029,-1.2322,-1.2322,-1.2419,-1.271,-1.271,-1.2764,-1.2813,-1.3001,-1.2899,-1.2657,-1.2651,-1.2457,-1.2257,-1.2262,-1.2791,-1.3601,-1.4046,-1.5105,-1.6386,-1.6386,-1.6998,-1.7753,-1.7372,-1.7426,-1.7684,-1.7377,-1.7474,-1.7721,-1.7939,-1.7846,-1.7768,-1.804,-1.7707,-1.7426,-1.79,-1.7861,-1.7768,-1.7947,-1.804,-1.804,-1.7861,-1.7721,-1.7628,-1.7426,-1.7333,-1.7279,-1.7279,-1.7279,-1.7279,-1.7279,-1.7279,-1.7279,-1.7279,-1.7279,-1.7279,-1.7279,-1.726,-1.7216,-1.7216,-1.6696,-1.6432,-1.668,-1.6396,-1.6257,-1.6265,-1.5965,-1.5727,-1.5588,-1.6245,-1.6505,-1.643,-1.5852,-1.548,-1.5287,-1.4741,-1.433,-0.8771,-0.9092,-0.9364,-0.893,-0.8714,-0.8475,-0.7933,-0.7585,-0.7241,-0.6815,-0.6453,-0.6324,-0.6781,-0.6346,-0.6205,-0.7128,-0.7641,-0.8069,-0.8515,-0.9205,-0.9923,-1.0698,-1.0848,-1.1019,-1.1159,-1.1194,-1.1243,-1.1389,-1.1536,-1.1639,-1.1785,-1.1683,-1.1834,-1.237,-1.2127,-1.2175,-1.257,-1.2565,-1.2667,-1.2813,-1.2813,-1.2813,-1.2813,-1.2813,-1.2667,-1.237,-1.2273,-1.198,-1.1634,-1.2024,-1.284,-1.3836,-1.4526,-1.5818,-1.7286,-1.7286,-1.7574,-1.7854,-1.7574,-1.7481,-1.7498,-1.732,-1.7379,-1.7574,-1.78,-1.7707,-1.768,-1.8508,-1.8449,-1.8173,-1.8448,-1.8315,-1.8097,-1.7938,-1.79,-1.7854,-1.7574,-1.7527,-1.7481,-1.7326,-1.7279,-1.7279,-1.7279,-1.7279,-1.7279,-1.7279,-1.7279,-1.7279,-1.7279,-1.7279,-1.7279,-1.7279,-1.7279,-1.7279,-1.7279,-1.6873,-1.675,-1.7062,-1.7078,-1.6937,-1.6631,-1.6155,-1.5837,-1.5699,-1.6011,-1.6141,-1.6049,-1.545,-1.495,-1.4506,-1.4216,-1.3807,-0.8501,-0.8712,-0.8957,-0.8723,-0.8166,-0.7672,-0.7678,-0.6971,-0.6404,-0.6649,-0.6433,-0.6261,-0.6562,-0.6317,-0.6244,-0.6838,-0.6827,-0.7342,-0.8952,-0.962,-1.014,-1.0745,-1.0832,-1.0886,-1.1005,-1.1077,-1.1292,-1.159,-1.1634,-1.178,-1.198,-1.1731,-1.1834,-1.237,-1.2127,-1.2273,-1.2813,-1.2813,-1.2813,-1.2813,-1.2764,-1.2764,-1.2813,-1.2764,-1.2619,-1.2419,-1.237,-1.2078,-1.1634,-1.2078,-1.3082,-1.4364,-1.4902,-1.6096,-1.7559,-1.7753,-1.7697,-1.7554,-1.7702,-1.7564,-1.7279,-1.7279,-1.7279,-1.734,-1.7641,-1.7601,-1.7767,-1.9008,-1.9115,-1.8839,-1.8883,-1.8695,-1.835,-1.7836,-1.7675,-1.7628,-1.7426,-1.7326,-1.7279,-1.7279,-1.7279,-1.7279,-1.7279,-1.7279,-1.7279,-1.7279,-1.7279,-1.7279,-1.7279,-1.7279,-1.7279,-1.7279,-1.7333,-1.738,-1.738,-1.738,-1.7419,-1.7419,-1.788,-1.7794,-1.6994,-1.6294,-1.5902,-1.5857,-1.5746,-1.5611,-1.5475,-1.5179,-1.4709,-1.4022,-1.4022,-1.3639,-0.783,-0.7924,-0.8236,-0.8802,-0.8478,-0.7941,-0.7593,-0.6756,-0.6023,-0.5832,-0.597,-0.6142,-0.617,-0.6754,-0.7288,-0.746,-0.7732,-0.8107,-0.8558,-0.835,-0.8343,-0.8858,-0.9086,-0.9457,-1.0224,-1.0648,-1.1047,-1.1536,-1.1834,-1.198,-1.198,-1.1731,-1.1834,-1.237,-1.2127,-1.2273,-1.2813,-1.2813,-1.2813,-1.2813,-1.257,-1.2565,-1.2813,-1.2565,-1.2419,-1.237,-1.2175,-1.1883,-1.159,-1.1688,-1.2209,-1.3017,-1.3553,-1.4226,-1.5032,-1.6089,-1.6633,-1.6987,-1.7824,-1.7749,-1.7279,-1.7279,-1.7279,-1.7384,-1.771,-1.8077,-1.8447,-1.8728,-1.8234,-1.7672,-1.8173,-1.8093,-1.7836,-1.7736,-1.7675,-1.7675,-1.7628,-1.7481,-1.7279,-1.7279,-1.7279,-1.7279,-1.7279,-1.7279,-1.7279,-1.7279,-1.7279,-1.7279,-1.7279,-1.7279,-1.7279,-1.7279,-1.7481,-1.7628,-1.7628,-1.7854,-1.7994,-1.7994,-1.7654,-1.7366,-1.7145,-1.6498,-1.6262,-1.648,-1.6186,-1.5973,-1.5833,-1.5779,-1.5474,-1.4985,-1.4985,-1.4593,-0.7182,-0.7309,-0.7599,-0.7768,-0.7502,-0.7145,-0.7028,-0.6314,-0.5776,-0.607,-0.6302,-0.648,-0.6648,-0.7017,-0.7358,-0.7524,-0.8187,-0.871,-0.8758,-0.8679,-0.8713,-0.9051,-0.9178,-0.9489,-1.0184,-1.0457,-1.0883,-1.1563,-1.1735,-1.1853,-1.1853,-1.1711,-1.1767,-1.1943,-1.1852,-1.1996,-1.2384,-1.2384,-1.2496,-1.2813,-1.2516,-1.2516,-1.2813,-1.237,-1.2273,-1.237,-1.2127,-1.1861,-1.1606,-1.1755,-1.2177,-1.2835,-1.3317,-1.3969,-1.4675,-1.617,-1.725,-1.8035,-1.8149,-1.804,-1.7742,-1.7431,-1.738,-1.7549,-1.7712,-1.8033,-1.8384,-1.876,-1.8898,-1.8977,-1.8906,-1.9018,-1.9005,-1.8358,-1.818,-1.808,-1.7611,-1.738,-1.7279,-1.7279,-1.7279,-1.7279,-1.7279,-1.7279,-1.7279,-1.7279,-1.7279,-1.7279,-1.7279,-1.7279,-1.7279,-1.7279,-1.7527,-1.7675,-1.7675,-1.7955,-1.8087,-1.8087,-1.7846,-1.7649,-1.7417,-1.6926,-1.6716,-1.6753,-1.6414,-1.6197,-1.6055,-1.6055,-1.5803,-1.5307,-1.5231,-1.4888,-0.6696,-0.6722,-0.6844,-0.6587,-0.6467,-0.6474,-0.6746,-0.6156,-0.5759,-0.6609,-0.6823,-0.6941,-0.7132,-0.7231,-0.743,-0.7829,-0.8529,-0.8959,-0.8601,-0.8639,-0.8781,-0.8909,-0.8939,-0.931,-1.0147,-1.0359,-1.0768,-1.1571,-1.1688,-1.1676,-1.1676,-1.163,-1.1621,-1.1613,-1.1618,-1.1759,-1.1994,-1.1994,-1.221,-1.263,-1.234,-1.2366,-1.2613,-1.2127,-1.1999,-1.22,-1.2004,-1.1776,-1.1529,-1.1726,-1.2026,-1.2487,-1.2901,-1.3679,-1.4804,-1.6573,-1.7931,-1.8859,-1.8607,-1.8368,-1.81,-1.757,-1.7544,-1.7732,-1.7697,-1.7961,-1.8286,-1.8698,-1.9428,-1.9959,-1.9532,-1.9766,-1.9838,-1.8908,-1.8651,-1.8426,-1.7737,-1.7478,-1.738,-1.7333,-1.7419,-1.7473,-1.738,-1.7473,-1.7473,-1.7473,-1.7473,-1.7473,-1.7473,-1.7473,-1.7473,-1.7473,-1.7721,-1.7916,-1.7955,-1.8133,-1.8272,-1.8272,-1.8179,-1.8018,-1.7804,-1.7382,-1.7167,-1.7126,-1.6732,-1.647,-1.6333,-1.6332,-1.611,-1.5584,-1.547,-1.5183,-0.6425,-0.6131,-0.5708,-0.5681,-0.6045,-0.6584,-0.7288,-0.6653,-0.6195,-0.7086,-0.7285,-0.7285,-0.7155,-0.7576,-0.8151,-0.8856,-0.8948,-0.856,-0.7499,-0.7117,-0.6968,-0.6977,-0.7061,-0.7804,-0.9556,-1.0195,-1.0825,-1.161,-1.1686,-1.1676,-1.1676,-1.1446,-1.1456,-1.1702,-1.1702,-1.184,-1.2075,-1.2075,-1.2101,-1.2057,-1.1772,-1.1783,-1.2029,-1.178,-1.1627,-1.164,-1.1647,-1.1494,-1.1302,-1.1278,-1.1272,-1.1347,-1.1414,-1.2622,-1.4571,-1.6779,-1.7869,-1.836,-1.9223,-1.8913,-1.8137,-1.7882,-1.7779,-1.7776,-1.7725,-1.808,-1.8499,-1.8248,-1.862,-1.9112,-1.9123,-1.9123,-1.9104,-1.9051,-1.8819,-1.859,-1.8512,-1.808,-1.7581,-1.7333,-1.7707,-1.7947,-1.7721,-1.79,-1.804,-1.804,-1.804,-1.804,-1.804,-1.804,-1.804,-1.804,-1.8288,-1.852,-1.8689,-1.8735,-1.8735,-1.8735,-1.8319,-1.8218,-1.845,-1.7743,-1.7501,-1.7731,-1.7176,-1.6789,-1.6657,-1.6773,-1.6627,-1.6127,-1.6142,-1.585,-0.5579,-0.5557,-0.5601,-0.5345,-0.5834,-0.6499,-0.6865,-0.6757,-0.6899,-0.7918,-0.8147,-0.8135,-0.8159,-0.8069,-0.8245,-0.8935,-0.9005,-0.8836,-0.8513,-0.815,-0.7926,-0.8014,-0.785,-0.8233,-0.951,-0.9871,-1.0334,-1.1124,-1.137,-1.1435,-1.1435,-1.1347,-1.1366,-1.1462,-1.1467,-1.1422,-1.1427,-1.1563,-1.1514,-1.1375,-1.1559,-1.1812,-1.2036,-1.1569,-1.1441,-1.1609,-1.1403,-1.1313,-1.1303,-1.1253,-1.1278,-1.1344,-1.2183,-1.3949,-1.6143,-1.6967,-1.7889,-1.8757,-1.8754,-1.8499,-1.8137,-1.7912,-1.7919,-1.8038,-1.8063,-1.8411,-1.8743,-1.8485,-1.8621,-1.8871,-1.8793,-1.91,-1.9299,-1.8913,-1.8901,-1.8799,-1.8241,-1.8062,-1.7928,-1.7618,-1.7854,-1.8087,-1.7955,-1.804,-1.8087,-1.8087,-1.8087,-1.8087,-1.8087,-1.8087,-1.8087,-1.8087,-1.8334,-1.8574,-1.8781,-1.8781,-1.8781,-1.8781,-1.8643,-1.8596,-1.8697,-1.8051,-1.7736,-1.7814,-1.7215,-1.6828,-1.6689,-1.6609,-1.6497,-1.6321,-1.5989,-1.5706,-0.5215,-0.5195,-0.5342,-0.535,-0.588,-0.6506,-0.6882,-0.7083,-0.7466,-0.8494,-0.8574,-0.8535,-0.8794,-0.8371,-0.8194,-0.8926,-0.8965,-0.8856,-0.8781,-0.8463,-0.8236,-0.8339,-0.8164,-0.8415,-0.9453,-0.9793,-1.0191,-1.0691,-1.1022,-1.116,-1.1085,-1.115,-1.1219,-1.1205,-1.1284,-1.1232,-1.1105,-1.1305,-1.1305,-1.111,-1.158,-1.1819,-1.1824,-1.1423,-1.1306,-1.1494,-1.1306,-1.1275,-1.1283,-1.1315,-1.147,-1.192,-1.3449,-1.4937,-1.632,-1.7138,-1.7957,-1.8629,-1.8544,-1.8488,-1.8446,-1.8066,-1.8074,-1.8249,-1.8262,-1.86,-1.8904,-1.8757,-1.8722,-1.8659,-1.8565,-1.9059,-1.9452,-1.9068,-1.903,-1.8943,-1.8345,-1.8221,-1.8187,-1.7907,-1.8087,-1.8319,-1.8234,-1.8272,-1.8319,-1.8319,-1.8319,-1.8319,-1.8319,-1.8319,-1.8319,-1.8319,-1.8512,-1.8658,-1.8781,-1.8781,-1.8781,-1.8781,-1.8781,-1.8781,-1.8781,-1.8222,-1.7879,-1.7814,-1.7352,-1.7071,-1.6938,-1.6745,-1.6607,-1.655,-1.6126,-1.5802,-0.5577,-0.5107,-0.4815,-0.5684,-0.616,-0.666,-0.7596,-0.7716,-0.785,-0.8804,-0.8559,-0.8332,-0.8823,-0.8371,-0.8147,-0.898,-0.887,-0.8483,-0.7883,-0.7559,-0.7411,-0.7411,-0.7598,-0.8163,-0.9291,-1.0117,-1.049,-1.0311,-1.0731,-1.088,-1.0608,-1.0853,-1.0982,-1.0982,-1.1177,-1.1305,-1.1305,-1.158,-1.158,-1.1311,-1.1822,-1.1814,-1.1303,-1.1308,-1.1308,-1.1308,-1.1308,-1.1323,-1.1297,-1.1297,-1.1915,-1.3049,-1.5033,-1.5196,-1.4648,-1.722,-1.7943,-1.7761,-1.8793,-1.9162,-1.8988,-1.8447,-1.8299,-1.8289,-1.823,-1.8648,-1.9066,-1.8962,-1.8722,-1.8481,-1.8481,-1.8965,-1.9407,-1.9497,-1.9221,-1.9019,-1.9011,-1.8762,-1.8435,-1.8141,-1.8458,-1.8743,-1.8527,-1.8658,-1.8781,-1.8781,-1.8781,-1.8781,-1.8781,-1.8781,-1.8781,-1.8781,-1.8781,-1.8781,-1.8781,-1.8781,-1.8781,-1.8781,-1.8781,-1.8781,-1.8781,-1.8222,-1.7906,-1.7906,-1.7718,-1.7549,-1.7386,-1.7236,-1.7099,-1.6873,-1.6676,-1.6281,-0.484,-0.4892,-0.5208,-0.5923,-0.6664,-0.7298,-0.7833,-0.7894,-0.8086,-0.891,-0.875,-0.8589,-0.8983,-0.8452,-0.8197,-0.8865,-0.8874,-0.8818,-0.8929,-0.8616,-0.8416,-0.8589,-0.8353,-0.8402,-0.8905,-0.9302,-0.9656,-1.0005,-1.0319,-1.0549,-1.0608,-1.0662,-1.074,-1.074,-1.0972,-1.1006,-1.0794,-1.1203,-1.1288,-1.1094,-1.1572,-1.1756,-1.1587,-1.1543,-1.1553,-1.1584,-1.14,-1.1323,-1.1337,-1.2043,-1.3359,-1.4962,-1.5582,-1.5636,-1.5517,-1.703,-1.7055,-1.6473,-1.7497,-1.7842,-1.7853,-1.793,-1.8059,-1.8334,-1.879,-1.8927,-1.8999,-1.9235,-1.9052,-1.8697,-1.8697,-1.8822,-1.8933,-1.8898,-1.8995,-1.9026,-1.8787,-1.8744,-1.8699,-1.8427,-1.8604,-1.8781,-1.8743,-1.8743,-1.8781,-1.8781,-1.8781,-1.8781,-1.8781,-1.8781,-1.8781,-1.8781,-1.8781,-1.8781,-1.8781,-1.8781,-1.8781,-1.8781,-1.8658,-1.8658,-1.8781,-1.851,-1.8292,-1.8168,-1.7944,-1.7663,-1.7344,-1.7195,-1.6959,-1.6676,-1.6299,-1.6033,-0.4584,-0.4904,-0.5554,-0.6217,-0.6948,-0.7617,-0.8041,-0.8231,-0.8499,-0.908,-0.8807,-0.8561,-0.8919,-0.8444,-0.8205,-0.8758,-0.8841,-0.8893,-0.9112,-0.8958,-0.8815,-0.884,-0.8661,-0.8594,-0.8688,-0.898,-0.931,-0.9592,-0.9881,-1.0156,-1.0324,-1.041,-1.0498,-1.0498,-1.0724,-1.0808,-1.0773,-1.1139,-1.1224,-1.1138,-1.1497,-1.1654,-1.1575,-1.1543,-1.1502,-1.1491,-1.1445,-1.1583,-1.1971,-1.3102,-1.4423,-1.5851,-1.6246,-1.5894,-1.5365,-1.6782,-1.6325,-1.5133,-1.6462,-1.7077,-1.726,-1.7366,-1.7862,-1.8491,-1.888,-1.8961,-1.8947,-1.9213,-1.902,-1.8781,-1.8781,-1.8781,-1.879,-1.8722,-1.883,-1.8931,-1.8721,-1.8761,-1.8793,-1.8651,-1.8697,-1.8781,-1.8697,-1.8697,-1.8697,-1.8697,-1.8735,-1.8781,-1.8697,-1.8697,-1.8697,-1.8697,-1.8697,-1.8697,-1.8697,-1.8697,-1.8697,-1.8697,-1.8381,-1.8288,-1.8504,-1.8288,-1.8234,-1.8389,-1.8017,-1.7771,-1.7627,-1.7429,-1.7175,-1.6813,-1.6416,-1.616,-0.47,-0.5124,-0.5879,-0.6587,-0.7196,-0.772,-0.8243,-0.8589,-0.8889,-0.9265,-0.8756,-0.8336,-0.8722,-0.8348,-0.8178,-0.8654,-0.8759,-0.8771,-0.8771,-0.8714,-0.8616,-0.844,-0.8583,-0.8624,-0.8417,-0.8874,-0.9154,-0.9118,-0.9384,-0.9635,-0.9825,-1.0045,-1.0207,-1.0268,-1.0449,-1.0686,-1.0918,-1.1123,-1.1241,-1.1246,-1.1521,-1.1545,-1.1329,-1.1371,-1.1298,-1.1166,-1.1517,-1.2078,-1.2904,-1.4095,-1.5074,-1.5814,-1.6843,-1.6052,-1.457,-1.6514,-1.5765,-1.3981,-1.5678,-1.6619,-1.7104,-1.6877,-1.7665,-1.869,-1.875,-1.8834,-1.8909,-1.8941,-1.8902,-1.8781,-1.8781,-1.8781,-1.8735,-1.8735,-1.8781,-1.8781,-1.8781,-1.8781,-1.8781,-1.8781,-1.8805,-1.8728,-1.8481,-1.8458,-1.8419,-1.8396,-1.8604,-1.8651,-1.8481,-1.8481,-1.8527,-1.8481,-1.8527,-1.8527,-1.8481,-1.8481,-1.8435,-1.8435,-1.7962,-1.7761,-1.804,-1.7807,-1.7908,-1.8388,-1.7916,-1.7746,-1.7994,-1.7753,-1.7503,-1.7175,-1.6825,-1.6505,-0.5031,-0.5453,-0.6065,-0.69,-0.7728,-0.8482,-0.8832,-0.8767,-0.869,-0.8767,-0.8645,-0.8532,-0.8617,-0.8399,-0.8225,-0.8199,-0.8308,-0.8406,-0.8406,-0.8152,-0.7942,-0.7858,-0.7846,-0.7816,-0.7634,-0.7992,-0.8325,-0.8551,-0.8503,-0.8727,-0.9332,-0.9306,-0.9462,-0.9902,-1.0138,-1.0346,-1.0439,-1.0635,-1.0748,-1.0753,-1.1025,-1.1011,-1.0767,-1.0999,-1.095,-1.0773,-1.163,-1.2334,-1.2932,-1.3582,-1.4396,-1.5347,-1.6116,-1.5678,-1.483,-1.6419,-1.578,-1.4333,-1.5449,-1.6107,-1.6472,-1.6909,-1.7739,-1.8659,-1.9184,-1.9105,-1.8901,-1.9186,-1.9059,-1.8781,-1.8781,-1.855,-1.8272,-1.8272,-1.855,-1.8781,-1.8781,-1.8781,-1.8781,-1.8781,-1.8668,-1.8486,-1.8225,-1.8072,-1.7871,-1.7611,-1.7947,-1.8226,-1.8179,-1.8512,-1.8697,-1.8527,-1.8658,-1.8604,-1.8234,-1.8187,-1.8094,-1.7869,-1.7574,-1.7426,-1.7473,-1.7426,-1.7426,-1.7567,-1.7426,-1.7294,-1.709,-1.713,-1.7186,-1.7175,-1.6512,-1.6258,-0.4906,-0.5591,-0.6501,-0.7365,-0.8089,-0.8661,-0.88,-0.8629,-0.8434,-0.8434,-0.8551,-0.8584,-0.8494,-0.8357,-0.81,-0.7503,-0.7915,-0.8132,-0.7663,-0.7689,-0.7746,-0.7578,-0.759,-0.7544,-0.7419,-0.7639,-0.7962,-0.8365,-0.8207,-0.8321,-0.8783,-0.9014,-0.9233,-0.9421,-0.9835,-1.0117,-1.0293,-1.0412,-1.0445,-1.0476,-1.0522,-1.0319,-1.0014,-1.0532,-1.0723,-1.0643,-1.1528,-1.2358,-1.3053,-1.3467,-1.4125,-1.4935,-1.5206,-1.493,-1.4611,-1.5847,-1.5424,-1.4281,-1.528,-1.5944,-1.6384,-1.671,-1.7497,-1.8415,-1.875,-1.8681,-1.8497,-1.873,-1.8792,-1.8735,-1.8504,-1.8272,-1.804,-1.78,-1.7893,-1.8079,-1.8079,-1.8079,-1.8079,-1.8079,-1.7982,-1.7861,-1.7604,-1.7486,-1.7348,-1.7182,-1.7473,-1.7667,-1.7581,-1.7815,-1.8001,-1.8102,-1.8087,-1.8032,-1.79,-1.7807,-1.7621,-1.7402,-1.6972,-1.6817,-1.6958,-1.6244,-1.6332,-1.7279,-1.7091,-1.6926,-1.6907,-1.6987,-1.6987,-1.6899,-1.6465,-1.6309,-0.4709,-0.5669,-0.6899,-0.7756,-0.8223,-0.8522,-0.8555,-0.8377,-0.8243,-0.8243,-0.8341,-0.8424,-0.8227,-0.8199,-0.7929,-0.7047,-0.7658,-0.7921,-0.7044,-0.739,-0.7639,-0.7338,-0.742,-0.7412,-0.7338,-0.7482,-0.7785,-0.8225,-0.8021,-0.797,-0.8281,-0.8702,-0.8913,-0.883,-0.9416,-0.9841,-1.0087,-1.0131,-1.0188,-1.0176,-1.0016,-0.9769,-0.9513,-1.0231,-1.0551,-1.0558,-1.1292,-1.2115,-1.2898,-1.3211,-1.3694,-1.422,-1.4159,-1.4193,-1.4364,-1.5283,-1.5035,-1.4367,-1.5219,-1.5819,-1.6283,-1.6454,-1.7166,-1.8018,-1.8089,-1.8078,-1.7939,-1.7939,-1.8218,-1.845,-1.8087,-1.79,-1.7714,-1.7279,-1.7099,-1.7091,-1.7279,-1.7279,-1.7232,-1.7084,-1.699,-1.6824,-1.6658,-1.6725,-1.6791,-1.6791,-1.7012,-1.7099,-1.6925,-1.6979,-1.7207,-1.7542,-1.7434,-1.738,-1.7488,-1.7286,-1.7106,-1.6885,-1.6414,-1.6163,-1.6204,-1.5153,-1.5248,-1.6763,-1.6237,-1.6109,-1.6548,-1.6548,-1.6548,-1.6581,-1.6369,-1.6313,-0.4941,-0.5852,-0.6871,-0.7649,-0.7943,-0.813,-0.8292,-0.8182,-0.8048,-0.8048,-0.7951,-0.7902,-0.7877,-0.7869,-0.7768,-0.7465,-0.7672,-0.7768,-0.7461,-0.7184,-0.7032,-0.6971,-0.6922,-0.6918,-0.6947,-0.7091,-0.7312,-0.7598,-0.717,-0.7158,-0.7757,-0.7605,-0.7702,-0.8196,-0.8799,-0.9134,-0.9179,-0.9522,-0.969,-0.9686,-0.9648,-0.9852,-1.0176,-1.0272,-1.0233,-1.0137,-1.1043,-1.1523,-1.1673,-1.2137,-1.2367,-1.2499,-1.3093,-1.3814,-1.4512,-1.5074,-1.5282,-1.529,-1.539,-1.5411,-1.5514,-1.6299,-1.6818,-1.7184,-1.775,-1.7691,-1.7426,-1.7426,-1.7466,-1.7473,-1.7419,-1.7099,-1.677,-1.6723,-1.6346,-1.6251,-1.7099,-1.7279,-1.7037,-1.6156,-1.563,-1.5245,-1.5034,-1.556,-1.5974,-1.5974,-1.6393,-1.6683,-1.6683,-1.7005,-1.72,-1.712,-1.72,-1.7145,-1.677,-1.6723,-1.6588,-1.6319,-1.6028,-1.5493,-1.4627,-1.5255,-1.5302,-1.4723,-1.3746,-1.3698,-1.4682,-1.4682,-1.535,-1.6581,-1.6116,-1.5959,-0.5012,-0.5684,-0.6403,-0.7062,-0.7469,-0.7789,-0.8069,-0.8,-0.787,-0.787,-0.7767,-0.7677,-0.778,-0.78,-0.7613,-0.7017,-0.734,-0.7454,-0.7003,-0.7085,-0.7056,-0.6753,-0.6841,-0.682,-0.6626,-0.6912,-0.7137,-0.72,-0.7058,-0.7034,-0.715,-0.7332,-0.7444,-0.7498,-0.8205,-0.8612,-0.8674,-0.8872,-0.9045,-0.9194,-0.9353,-0.9432,-0.9396,-0.9642,-1.0055,-1.0585,-1.1138,-1.1448,-1.1575,-1.1497,-1.1629,-1.1883,-1.1777,-1.2466,-1.3505,-1.3737,-1.4334,-1.5057,-1.5021,-1.5255,-1.5713,-1.628,-1.6457,-1.6525,-1.7029,-1.7072,-1.6911,-1.6911,-1.7099,-1.7239,-1.6958,-1.677,-1.6393,-1.554,-1.554,-1.5778,-1.5669,-1.6055,-1.615,-1.5134,-1.4752,-1.4604,-1.4497,-1.5194,-1.5784,-1.5784,-1.6015,-1.6163,-1.6163,-1.6346,-1.6534,-1.673,-1.673,-1.6636,-1.6588,-1.6447,-1.6265,-1.5981,-1.5879,-1.5588,-1.5159,-1.5016,-1.4729,-1.4298,-1.4382,-1.4669,-1.5159,-1.4586,-1.4634,-1.5296,-1.4472,-1.4118,-0.4912,-0.5404,-0.5959,-0.6455,-0.6933,-0.737,-0.7732,-0.7679,-0.762,-0.771,-0.7584,-0.7476,-0.7694,-0.7731,-0.7529,-0.6849,-0.718,-0.732,-0.6741,-0.7031,-0.7123,-0.6637,-0.6779,-0.6764,-0.6425,-0.676,-0.6991,-0.6943,-0.6968,-0.692,-0.6722,-0.7082,-0.7172,-0.6843,-0.7626,-0.8073,-0.8112,-0.8353,-0.8541,-0.8737,-0.8938,-0.8963,-0.887,-0.9064,-0.9674,-1.0616,-1.0852,-1.1131,-1.1386,-1.1032,-1.1032,-1.1243,-1.068,-1.1288,-1.2414,-1.2478,-1.3231,-1.424,-1.424,-1.4682,-1.5347,-1.5738,-1.5849,-1.5895,-1.6282,-1.64,-1.64,-1.64,-1.6629,-1.6878,-1.6585,-1.6313,-1.5789,-1.4684,-1.4925,-1.5242,-1.479,-1.4867,-1.486,-1.4388,-1.41,-1.4004,-1.4244,-1.5112,-1.5784,-1.5784,-1.5588,-1.5397,-1.5397,-1.5201,-1.5296,-1.592,-1.5832,-1.5879,-1.6346,-1.6218,-1.6028,-1.5832,-1.5784,-1.5689,-1.5445,-1.4921,-1.4436,-1.3902,-1.4914,-1.5296,-1.5003,-1.4238,-1.3902,-1.3854,-1.3071,-1.2678,-0.4498,-0.5078,-0.5681,-0.59,-0.6339,-0.6814,-0.7147,-0.7127,-0.7126,-0.7465,-0.7358,-0.7293,-0.7464,-0.7496,-0.7496,-0.7458,-0.7488,-0.7427,-0.7198,-0.7025,-0.6844,-0.6633,-0.6626,-0.6564,-0.6406,-0.6583,-0.6729,-0.6712,-0.6554,-0.6522,-0.6702,-0.6563,-0.6436,-0.6416,-0.703,-0.7364,-0.7364,-0.7996,-0.83,-0.8321,-0.8346,-0.8659,-0.9246,-0.8961,-0.9076,-0.9519,-0.9903,-1.0288,-1.0656,-1.0608,-1.0396,-1.012,-1.0178,-1.0815,-1.1671,-1.1796,-1.231,-1.2987,-1.2987,-1.3231,-1.3602,-1.4148,-1.4629,-1.5181,-1.5658,-1.5825,-1.5825,-1.5825,-1.5879,-1.5939,-1.6228,-1.5501,-1.4709,-1.4666,-1.4463,-1.4539,-1.5504,-1.4232,-1.3167,-1.41,-1.3463,-1.3119,-1.41,-1.5112,-1.5784,-1.5784,-1.4968,-1.4394,-1.4394,-1.3511,-1.3264,-1.4292,-1.4394,-1.4777,-1.5778,-1.5832,-1.5832,-1.5784,-1.5784,-1.535,-1.4442,-1.5255,-1.4813,-1.2829,-1.3854,-1.3902,-1.2872,-1.2829,-1.278,-1.278,-1.2727,-1.2678,-0.4096,-0.4494,-0.5011,-0.5258,-0.5585,-0.5998,-0.6565,-0.6749,-0.6857,-0.6952,-0.7017,-0.7106,-0.7167,-0.718,-0.7253,-0.7447,-0.7331,-0.72,-0.7179,-0.7049,-0.6837,-0.6522,-0.6576,-0.6575,-0.6291,-0.6521,-0.6647,-0.6526,-0.6558,-0.6562,-0.6513,-0.6453,-0.6363,-0.6278,-0.6658,-0.6898,-0.6966,-0.7502,-0.7796,-0.7801,-0.7909,-0.8103,-0.8323,-0.8344,-0.8515,-0.8827,-0.9202,-0.9597,-1.0018,-0.9856,-0.9864,-0.997,-0.9821,-1.0119,-1.0731,-1.0892,-1.1232,-1.1611,-1.1611,-1.1811,-1.2103,-1.2536,-1.342,-1.4385,-1.4587,-1.533,-1.5928,-1.5067,-1.4825,-1.47,-1.4153,-1.3691,-1.3399,-1.3399,-1.2807,-1.2585,-1.357,-1.3879,-1.3852,-1.3346,-1.3516,-1.3854,-1.425,-1.4586,-1.4825,-1.4825,-1.395,-1.327,-1.327,-1.2926,-1.3119,-1.4202,-1.4298,-1.4729,-1.573,-1.5784,-1.5784,-1.5784,-1.5784,-1.5635,-1.5302,-1.5588,-1.5153,-1.3757,-1.41,-1.3757,-1.2678,-1.2047,-1.1755,-1.1707,-1.1033,-1.0694,-0.4002,-0.4289,-0.473,-0.4904,-0.5031,-0.5275,-0.5911,-0.6168,-0.632,-0.6578,-0.6761,-0.6894,-0.7026,-0.674,-0.6639,-0.7244,-0.6924,-0.6722,-0.6997,-0.6887,-0.667,-0.6358,-0.6476,-0.6449,-0.6042,-0.6367,-0.6478,-0.6164,-0.631,-0.642,-0.6331,-0.6327,-0.6302,-0.6211,-0.6428,-0.6562,-0.6589,-0.7067,-0.7297,-0.7297,-0.7441,-0.758,-0.7715,-0.7736,-0.7893,-0.819,-0.8466,-0.8932,-0.9451,-0.9352,-0.9388,-0.9494,-0.933,-0.9492,-0.9844,-0.9969,-1.0159,-1.0298,-1.0223,-1.0465,-1.0899,-1.1292,-1.2274,-1.3362,-1.3538,-1.4262,-1.4898,-1.3997,-1.3757,-1.363,-1.3024,-1.2606,-1.2317,-1.2214,-1.2017,-1.2012,-1.2601,-1.3406,-1.3886,-1.3453,-1.3864,-1.4418,-1.4896,-1.4593,-1.4298,-1.4298,-1.3119,-1.2193,-1.2193,-1.1858,-1.2198,-1.3607,-1.3775,-1.431,-1.5683,-1.5784,-1.5784,-1.5784,-1.5493,-1.5445,-1.5778,-1.5493,-1.4968,-1.4298,-1.3956,-1.327,-1.2193,-1.1512,-1.1028,-1.0641,-0.9916,-0.9579,0.0,0.0,0.0,-0.4793,-0.4644,-0.464,-0.5217,-0.5378,-0.559,-0.6323,-0.6527,-0.6709,-0.7098,-0.6201,-0.5732,-0.6792,-0.6358,-0.6058,-0.6589,-0.6522,-0.6355,-0.6208,-0.6314,-0.6199,-0.5661,-0.6102,-0.6191,-0.5644,-0.5791,-0.6,-0.6199,-0.6211,-0.6215,-0.6215,-0.6327,-0.6331,-0.6219,-0.6655,-0.6881,-0.6913,-0.6881,-0.7115,-0.7486,-0.7166,-0.7184,-0.7492,-0.7718,-0.8241,-0.8967,-0.9169,-0.8995,-0.8629,-0.8759,-0.8934,-0.9092,-0.91,-0.9096,-0.9064,-0.8881,-0.9282,-0.9929,-1.0414,-1.1191,-1.2072,-1.2533,-1.2678,-1.2689,-1.2684,-1.2678,-1.2732,-1.3017,-1.2334,-1.1441,-1.1134,-1.2134,-1.3082,-1.2833,-1.2752,-1.3154,-1.4439,-1.4473,-1.4714,-1.6011,-1.5097,-1.4196,-1.4196,-1.2441,-1.117,-1.117,-1.0261,-1.0462,-1.25,-1.2743,-1.3585,-1.5655,-1.5791,-1.5743,-1.5784,-1.4825,-1.4682,-1.5683,-1.4777,-1.4244,-1.4244,-1.3221,-1.2193,-1.1219,-1.117,-1.0641,-0.9579,-0.9579,-0.9579,-0.3981,0.0,0.0,0.0,0.0,0.0,-0.446,-0.4782,-0.5123,-0.5493,-0.6002,-0.6418,-0.6532,-0.5525,-0.4928,-0.5709,-0.5661,-0.5626,-0.5885,-0.618,-0.64,-0.6351,-0.6289,-0.6201,-0.6037,-0.6181,-0.6148,-0.5827,-0.6004,-0.6126,-0.6207,-0.6302,-0.6343,-0.6343,-0.6392,-0.6457,-0.6566,-0.6682,-0.6811,-0.6913,-0.6811,-0.6937,-0.7264,-0.7095,-0.7184,-0.7492,-0.7718,-0.7963,-0.8309,-0.8501,-0.8576,-0.8641,-0.8901,-0.897,-0.893,-0.919,-0.912,-0.8889,-0.8836,-0.8923,-0.9118,-0.9265,-1.0315,-1.1528,-1.1446,-1.2183,-1.2854,-1.1898,-1.1609,-1.1482,-1.0762,-1.0388,-1.0145,-1.0045,-1.1038,-1.1998,-1.1948,-1.3089,-1.425,-1.4623,-1.4473,-1.4418,-1.4781,-1.3314,-1.2052,-1.2052,-1.0886,-1.0064,-1.0064,-1.0626,-1.1561,-1.2936,-1.3906,-1.4954,-1.6069,-1.546,-1.4935,-1.4742,-1.3752,-1.3264,-1.3553,-1.3312,-1.3119,-1.3119,-1.2145,-1.1463,-1.1219,-1.04,-0.9867,-0.9579,-0.9579,-0.9579,0.0,0.0,-0.4318,-0.4,0.0,0.0,-0.3572,-0.4175,-0.4761,-0.4879,-0.564,-0.6248,-0.607,-0.5134,-0.4551,-0.4995,-0.5006,-0.5098,-0.5389,-0.5902,-0.6227,-0.6091,-0.6113,-0.6065,-0.5857,-0.5975,-0.5946,-0.5681,-0.5758,-0.591,-0.6061,-0.6278,-0.6384,-0.6306,-0.6379,-0.6412,-0.6496,-0.6539,-0.6613,-0.6683,-0.6613,-0.673,-0.6983,-0.6991,-0.7143,-0.7387,-0.7604,-0.7784,-0.802,-0.813,-0.8329,-0.8641,-0.8873,-0.8917,-0.8844,-0.9056,-0.8999,-0.882,-0.882,-0.882,-0.8844,-0.8995,-0.9725,-1.0581,-1.0485,-1.11,-1.1659,-1.0893,-1.0609,-1.0439,-0.9958,-0.9738,-0.9644,-0.9717,-1.0943,-1.2103,-1.239,-1.3535,-1.4594,-1.4861,-1.46,-1.4334,-1.4443,-1.2651,-1.1317,-1.1755,-1.0547,-0.9801,-1.0265,-1.0674,-1.1327,-1.2471,-1.3579,-1.4454,-1.4894,-1.4692,-1.4273,-1.3667,-1.2635,-1.2242,-1.2678,-1.229,-1.229,-1.2678,-1.1707,-1.0979,-1.0547,-0.9916,-0.9579,-0.9579,-0.9579,-0.9579,0.0,0.0,0.0,-0.3586,-0.333,0.0,-0.2762,-0.3533,-0.4322,-0.434,-0.5237,-0.5931,-0.5584,-0.4854,-0.4332,-0.4465,-0.4381,-0.4535,-0.5116,-0.5725,-0.5998,-0.5661,-0.588,-0.5873,-0.5385,-0.5668,-0.5718,-0.5368,-0.5345,-0.5531,-0.5898,-0.6237,-0.6355,-0.6271,-0.6363,-0.6371,-0.6271,-0.6367,-0.6453,-0.6453,-0.6453,-0.6551,-0.6735,-0.691,-0.709,-0.7199,-0.7407,-0.7683,-0.8012,-0.8012,-0.8231,-0.8629,-0.8775,-0.884,-0.8824,-0.8844,-0.8836,-0.882,-0.882,-0.8832,-0.8905,-0.9294,-0.9416,-0.949,-0.9758,-0.9868,-0.9884,-0.9884,-0.9762,-0.9701,-1.0022,-0.988,-0.9689,-0.9823,-1.1245,-1.2768,-1.3257,-1.3821,-1.4333,-1.4849,-1.4439,-1.4026,-1.4256,-1.2475,-1.1365,-1.2387,-1.0935,-1.0181,-1.1262,-1.0758,-1.0638,-1.1634,-1.2527,-1.3102,-1.3048,-1.3607,-1.3562,-1.2587,-1.156,-1.1419,-1.2344,-1.1517,-1.1517,-1.2484,-1.1658,-1.069,-0.9579,-0.9579,-0.9579,-0.9579,-0.9579,-0.9579,-0.3977,-0.4344,-0.4527,-0.3638,-0.3448,0.0,-0.2688,-0.2877,-0.3239,-0.335,-0.395,-0.4466,-0.4497,-0.3958,-0.3572,-0.3775,-0.3764,-0.4113,-0.5148,-0.5759,-0.6048,-0.5869,-0.5763,-0.5665,-0.5539,-0.562,-0.5624,-0.5553,-0.5655,-0.5802,-0.6048,-0.6274,-0.6478,-0.6583,-0.6625,-0.6625,-0.6587,-0.6625,-0.6712,-0.6815,-0.6679,-0.671,-0.6864,-0.6941,-0.709,-0.7199,-0.7407,-0.7683,-0.8012,-0.8012,-0.8231,-0.8645,-0.8917,-0.8954,-0.884,-0.8991,-0.895,-0.882,-0.882,-0.8917,-0.908,-0.9335,-0.9453,-0.9587,-0.9657,-0.9774,-0.9884,-0.9884,-0.9762,-0.9595,-0.9713,-0.9782,-0.9807,-0.9701,-1.0869,-1.2059,-1.1976,-1.2738,-1.3441,-1.359,-1.2625,-1.1819,-1.1859,-1.0766,-1.0256,-1.1317,-1.1175,-1.1004,-1.1363,-1.2192,-1.2526,-1.1897,-1.2956,-1.3559,-1.317,-1.2508,-1.1959,-1.1521,-1.0498,-1.0015,-1.0212,-1.0015,-1.04,-1.1463,-1.1317,-1.069,-0.9579,-0.9579,-0.9579,-0.9579,-0.9579,-0.9579,-0.3911,-0.3938,-0.3823,-0.3033,-0.2889,0.0,0.0,-0.2434,-0.3005,-0.2969,-0.3498,-0.3944,-0.3727,-0.3492,-0.3345,-0.3428,-0.3456,-0.3809,-0.484,-0.5371,-0.5626,-0.5603,-0.5645,-0.5637,-0.5462,-0.5538,-0.5553,-0.5466,-0.5599,-0.574,-0.5856,-0.6042,-0.6256,-0.6435,-0.6439,-0.6485,-0.6548,-0.6548,-0.6581,-0.6651,-0.6581,-0.6597,-0.6659,-0.69,-0.7041,-0.7102,-0.7366,-0.7683,-0.8012,-0.8012,-0.8231,-0.8649,-0.8958,-0.8982,-0.8852,-0.9125,-0.9112,-0.897,-0.9056,-0.9149,-0.9254,-0.9433,-0.9551,-0.9644,-0.973,-0.9815,-0.9904,-0.9998,-0.9892,-0.9728,-0.972,-0.979,-0.9864,-0.9628,-1.0569,-1.1537,-1.1597,-1.1909,-1.24,-1.306,-1.1712,-1.0547,-1.1126,-1.0306,-0.9965,-1.1028,-1.0739,-1.0703,-1.1457,-1.169,-1.1638,-1.1225,-1.2121,-1.2452,-1.1616,-1.1442,-1.1095,-1.0458,-0.992,-0.9579,-0.9579,-0.9579,-0.9871,-1.04,-1.04,-1.0158,-0.9579,-0.9579,-0.9579,-0.9579,-0.9579,-0.9579,-0.3891,-0.3621,-0.314,-0.2525,-0.231,-0.2066,0.0,0.0,0.0,-0.2636,-0.3128,-0.3457,-0.3031,-0.301,-0.3067,-0.3095,-0.3095,-0.343,-0.4353,-0.471,-0.4968,-0.5203,-0.5309,-0.5337,-0.5258,-0.5489,-0.5544,-0.5325,-0.551,-0.5649,-0.5686,-0.5862,-0.6043,-0.6284,-0.6292,-0.6334,-0.6383,-0.6448,-0.6469,-0.6473,-0.6505,-0.6522,-0.653,-0.6894,-0.7041,-0.7057,-0.7384,-0.7683,-0.8012,-0.8012,-0.8231,-0.8649,-0.8958,-0.9007,-0.8909,-0.9245,-0.9286,-0.9161,-0.9318,-0.9375,-0.9433,-0.9567,-0.9579,-0.9661,-0.9831,-0.986,-0.9872,-1.011,-1.0053,-0.987,-0.9812,-0.9872,-0.9878,-0.9642,-1.0267,-1.0978,-1.1161,-1.1055,-1.1222,-1.2287,-1.0951,-0.9965,-1.1028,-1.0306,-0.9978,-1.1084,-1.0506,-1.0406,-1.1606,-1.1041,-1.0516,-1.0371,-1.098,-1.0995,-0.9953,-1.0487,-1.0498,-0.9673,-0.9579,-0.9579,-0.9579,-0.9579,-0.9579,-0.9579,-0.9579,-0.9579,-0.9579,-0.9579,-0.9579,-0.9579,-0.9579,-0.9579,-0.4282,-0.4167,-0.3747,-0.2791,-0.2464,-0.2247,-0.1679,0.0,-0.1862,-0.1901,0.0,-0.2077,-0.2137,0.0,0.0,-0.2294,-0.2322,-0.2655,-0.3599,-0.3749,-0.4058,-0.4846,-0.4304,-0.42,-0.5046,-0.5517,-0.5658,-0.5325,-0.5593,-0.5862,-0.6036,-0.6078,-0.6247,-0.6633,-0.6641,-0.6556,-0.642,-0.657,-0.6652,-0.6668,-0.6853,-0.6926,-0.6935,-0.7102,-0.7196,-0.7204,-0.7399,-0.7683,-0.8012,-0.8012,-0.8231,-0.8649,-0.8958,-0.9084,-0.9072,-0.9112,-0.921,-0.9355,-0.9173,-0.9273,-0.9433,-0.9567,-0.9579,-0.9661,-0.9831,-0.9778,-0.9693,-0.9868,-0.99,-0.9888,-0.9912,-1.0022,-1.0087,-0.9925,-0.9969,-1.0016,-0.9884,-0.9789,-0.9826,-0.9995,-0.9789,-0.9965,-1.1028,-1.0306,-1.0024,-1.118,-1.1253,-1.1401,-1.1915,-1.1866,-1.1388,-1.0362,-1.0329,-1.018,-0.9685,-0.9735,-0.9723,-0.9628,-0.9579,-0.9579,-0.9579,-0.9579,-0.9579,-0.9579,-0.9579,-0.9579,-0.9579,-0.9579,-0.9579,-0.9579,-0.9579,-0.9579,-0.453,-0.4198,-0.3648,-0.3004,-0.2451,-0.1984,-0.1659,-0.1612,-0.1693,-0.1816,0.0,0.0,0.0,0.0,0.0,0.0,-0.2045,-0.2306,-0.2941,-0.3067,-0.3519,-0.4763,-0.4708,-0.4794,-0.5344,-0.5183,-0.5128,-0.5297,-0.5128,-0.5218,-0.562,-0.5756,-0.5929,-0.6224,-0.6364,-0.6408,-0.6416,-0.6489,-0.653,-0.6534,-0.6607,-0.6731,-0.6833,-0.702,-0.7127,-0.7199,-0.7407,-0.7683,-0.8012,-0.8012,-0.8231,-0.8649,-0.8958,-0.9096,-0.9125,-0.9328,-0.9449,-0.9502,-0.9429,-0.9453,-0.9527,-0.9604,-0.9579,-0.964,-0.9713,-0.9685,-0.9665,-0.9835,-0.9884,-0.9884,-0.9685,-0.9843,-0.9957,-0.9578,-0.9638,-0.9713,-0.9644,-0.9579,-0.9772,-1.04,-1.0015,-0.9965,-1.1028,-1.0306,-0.9834,-1.0462,-1.0538,-1.0677,-1.1013,-1.1019,-1.0762,-1.0272,-1.0118,-0.99,-0.9599,-0.9579,-0.9579,-0.9579,-0.9579,-0.9579,-0.9579,-0.9579,-0.9579,-0.9579,-0.9579,-0.9579,-0.9579,-0.9579,-0.9426,-0.9126,-0.9476,-0.9579,-0.4645,-0.4189,-0.357,-0.3134,-0.2485,-0.1891,-0.1659,-0.1622,-0.1673,-0.1828,-0.1821,0.0,0.0,0.0,-0.1657,-0.1657,0.0,-0.1971,-0.2437,-0.2675,-0.3259,-0.4484,-0.496,-0.5183,-0.5152,-0.4767,-0.4712,-0.5215,-0.4708,-0.4674,-0.5338,-0.5448,-0.5652,-0.5984,-0.6159,-0.6339,-0.6493,-0.6493,-0.6518,-0.6566,-0.6615,-0.6704,-0.683,-0.7053,-0.7208,-0.7305,-0.7484,-0.7732,-0.8016,-0.8069,-0.8276,-0.8649,-0.8958,-0.9064,-0.9064,-0.9421,-0.9583,-0.9571,-0.9571,-0.9587,-0.9579,-0.9579,-0.9579,-0.9579,-0.9579,-0.9579,-0.9652,-0.9778,-0.9847,-0.9833,-0.9685,-0.9736,-0.9805,-0.948,-0.9516,-0.9579,-0.9579,-0.9579,-0.9821,-1.0592,-1.0201,-0.9942,-1.0722,-1.0186,-0.9758,-0.9933,-1.0002,-1.0148,-1.0465,-1.0391,-1.0343,-1.0241,-1.0071,-0.9908,-0.9782,-0.9685,-0.9579,-0.9579,-0.9579,-0.9579,-0.9579,-0.9579,-0.9579,-0.9579,-0.9579,-0.9579,-0.9579,-0.9426,-0.9175,-0.8825,-0.9175,-0.9278,-0.4484,-0.4254,-0.3762,-0.3217,-0.2699,-0.2162,-0.1693,-0.165,-0.1722,-0.1794,-0.1741,-0.169,-0.1621,-0.1432,-0.1319,0.0,-0.1319,0.0,0.0,-0.2713,-0.3284,-0.3867,-0.4507,-0.468,-0.4104,-0.4325,-0.4656,-0.5073,-0.4426,-0.4486,-0.5534,-0.5359,-0.5525,-0.6163,-0.6314,-0.6501,-0.6684,-0.6688,-0.6769,-0.6971,-0.7114,-0.7167,-0.7175,-0.7387,-0.7472,-0.7484,-0.771,-0.7849,-0.8028,-0.8207,-0.8394,-0.8649,-0.8958,-0.8986,-0.8873,-0.9277,-0.9478,-0.9604,-0.9473,-0.9478,-0.9579,-0.9579,-0.9579,-0.9579,-0.9579,-0.9579,-0.9579,-0.9583,-0.9758,-0.9884,-0.9884,-0.9884,-0.9884,-0.9876,-0.975,-0.9579,-0.9579,-0.9579,-0.9628,-0.9628,-0.9762,-0.9876,-0.9926,-0.9926,-0.9941,-1.018,-1.0306,-1.0481,-1.066,-1.068,-1.0611,-1.0391,-1.0262,-1.0204,-1.0196,-0.9827,-0.9579,-0.9579,-0.9579,-0.9579,-0.9579,-0.9579,-0.9579,-0.9579,-0.9579,-0.9579,-0.9579,-0.9076,-0.8825,-0.8825,-0.8825,-0.8531,-0.4498,-0.4243,-0.3939,-0.3753,-0.3129,-0.2521,-0.2376,-0.2213,-0.2029,-0.185,-0.189,-0.1845,-0.1477,-0.1262,0.0,0.0,0.0,-0.1419,0.0,-0.2651,-0.3498,-0.4216,-0.4648,-0.4901,-0.4853,-0.4153,-0.3929,-0.4457,-0.3566,-0.3499,-0.4612,-0.4916,-0.5358,-0.5973,-0.6266,-0.6448,-0.6513,-0.6513,-0.6542,-0.6599,-0.666,-0.6818,-0.7082,-0.7143,-0.7298,-0.7488,-0.7588,-0.774,-0.8016,-0.8081,-0.8288,-0.8637,-0.8824,-0.8877,-0.8865,-0.9269,-0.9441,-0.9453,-0.9514,-0.9575,-0.9579,-0.9579,-0.9579,-0.9648,-0.9762,-0.9717,-0.9677,-0.9912,-0.9851,-0.9742,-0.9855,-0.9799,-0.9713,-0.9713,-0.9669,-0.9579,-0.9579,-0.9579,-0.9661,-0.9774,-0.9843,-0.9925,-1.0098,-1.0118,-1.0132,-1.0314,-1.0396,-1.0443,-1.0672,-1.0595,-1.0501,-1.0387,-1.027,-1.0212,-1.0212,-0.994,-0.9785,-0.9785,-0.9785,-0.9838,-0.999,-0.999,-0.9937,-0.9785,-0.9785,-0.9579,-0.9076,-0.8874,-0.8428,-0.7733,-0.7733,-0.7836,-0.4309,-0.4169,-0.3981,-0.3884,-0.3438,-0.2943,-0.2592,-0.242,-0.2273,-0.1991,-0.1919,-0.1814,-0.1532,-0.1261,-0.1122,0.0,0.0,0.0,0.0,-0.2653,-0.346,-0.4281,-0.4704,-0.4873,-0.477,-0.3999,-0.3605,-0.3901,-0.3037,-0.303,-0.4233,-0.4595,-0.512,-0.5888,-0.6233,-0.6448,-0.6518,-0.6448,-0.6448,-0.6509,-0.6578,-0.6763,-0.6992,-0.7122,-0.7343,-0.7607,-0.7739,-0.7925,-0.8111,-0.828,-0.8477,-0.8717,-0.8755,-0.8829,-0.8861,-0.918,-0.931,-0.9347,-0.9543,-0.9587,-0.9543,-0.9608,-0.9579,-0.9599,-0.9762,-0.9713,-0.9677,-0.9908,-0.9807,-0.9652,-0.9766,-0.9709,-0.9579,-0.9579,-0.9579,-0.9579,-0.9579,-0.9579,-0.9661,-0.977,-0.9896,-1.0073,-1.0192,-1.0318,-1.0367,-1.0375,-1.0383,-1.0443,-1.0672,-1.0595,-1.0526,-1.0526,-1.0367,-1.0205,-1.0075,-1.0036,-0.9967,-0.9912,-0.9912,-1.0006,-1.0168,-1.0112,-0.9999,-0.9749,-0.9612,-0.9241,-0.8646,-0.8438,-0.7962,-0.7261,-0.7107,-0.7205]},{"header":{"parameterUnit":"m.s-1","parameterCategory":1,"la1":30.6,"la2":29.2853,"lo1":-89.7004,"lo2":-87.6739,"dy":0.0162,"dx":0.0183,"nx":112,"ny":82,"refTime":"2023-10-28T06:00:00:Z","depth":0,"parameterNumber":3,"parameterNumberName":"V-component_of_WINDS"},"data":[0.0,0.0,0.0,0.0,0.0,0.0,0.0,0.0,0.0,0.0,0.0,0.0,0.0,0.0,0.0,0.0,0.0,0.0,0.0,0.0,0.0,0.0,0.0,0.0,0.0,0.0,0.0,0.0,0.0,0.0,0.0,0.0,0.0,0.0,0.0,0.0,0.0,0.0,0.0,0.0,0.0,0.0,0.0,0.0,0.0,0.0,0.0,0.0,0.0,0.0,0.0,0.0,0.0,0.0,0.0,0.0,0.0,0.0,0.0,0.0,0.0,0.0,0.0,0.0,0.0,0.0,0.0,0.0,0.0,0.0,0.0,0.0,0.0,0.0,0.0,0.0,0.0,0.0,0.0,0.0,0.0,0.0,0.0,0.0,0.0,0.0,0.0,0.0,0.0,0.0,0.4797,0.4792,0.5157,0.5388,0.5385,0.4995,0.4668,0.4512,0.0,0.0,0.0,0.0,0.0,0.0,0.0,0.0,0.0,0.0,0.0,0.0,0.0,0.0,0.0,0.0,0.0,0.0,0.0,0.0,0.0,0.0,0.0,0.0,0.0,0.0,0.0,0.0,0.0,0.0,0.0,0.0,0.0,0.0,0.0,0.0,0.0,0.0,0.0,0.0,0.0,0.0,0.0,0.0,0.0,0.0,0.0,0.0,0.0,0.0,0.0,0.0,0.0,0.0,0.0,0.0,0.0,0.0,0.0,0.0,0.0,0.0,0.0,0.0,0.0,0.0,0.0,0.0,0.0,0.0,0.0,0.0,0.0,0.0,0.0,0.0,0.0,0.0,0.0,0.0,0.0,0.0,0.0,0.0,0.0,0.0,0.0,0.0,0.0,0.0,0.0,0.0,0.0,0.0,0.0,0.0,0.0,0.0,0.0,0.0,0.0,0.0,0.0,0.0,0.516,0.5288,0.6028,0.635,0.5863,0.5551,0.5496,0.5799,0.0,0.0,0.0,0.0,0.0,0.0,0.0,0.0,0.0,0.0,0.0,0.0,0.0,0.0,0.0,0.0,0.0,0.0,0.0,0.0,0.0,0.0,0.0,0.0,0.0,0.0,0.0,0.0,0.0,0.0,0.0,0.0,0.0,0.0,0.0,0.0,0.0,0.0,0.0,0.0,0.0,0.0,0.0,0.0,0.0,0.0,0.0,0.0,0.0,0.0,0.0,0.0,0.0,0.0,0.0,0.0,0.0,0.0,0.0,0.0,0.0,0.0,0.0,0.0,0.0,0.0,0.0,0.0,0.0,0.0,0.0,0.0,0.0,0.0,0.0,0.0,0.0,0.0,0.0,0.0,0.0,0.0,0.0,0.0,0.0,0.0,0.0,0.0,0.0,0.0,0.0,0.0,0.0,0.0,0.0,0.0,0.0,0.0,0.0,0.0,0.0,0.0,0.0,0.5883,0.6431,0.6832,0.7363,0.7494,0.7139,0.6444,0.6074,0.6147,0.4607,0.0,0.0,0.0,0.0,0.0,0.0,0.0,0.0,0.0,0.0,0.0,0.0,0.0,0.0,0.0,0.0,0.0,0.0,0.0,0.0,0.0,0.0,0.0,0.0,0.0,0.0,0.0,0.0,0.0,0.0,0.0,0.0,0.0,0.0,0.0,0.0,0.0,0.0,0.0,0.0,0.0,0.0,0.0,0.0,0.0,0.0,0.0,0.0,0.0,0.0,0.0,0.0,0.0,0.0,0.0,0.0,0.0,0.0,0.0,0.0,0.0,0.0,0.0,0.0,0.0,0.0,0.0,0.0,0.0,0.0,0.0,0.0,0.0,0.0,0.0,0.0,0.0,0.0,0.0,0.0,0.0,0.0,0.0,0.0,0.0,0.0,0.0,0.0,0.0,0.0,0.0,0.0,0.0,0.0,0.0,0.0,0.0,0.0,0.0,0.0,0.0,0.0,0.6925,0.7406,0.8231,0.8525,0.8585,0.8491,0.7425,0.6698,0.652,0.502,0.0,0.0,0.0,0.0,0.0,0.0,0.0,0.0,0.0,0.0,0.0,0.0,0.0,0.0,0.0,0.0,0.0,0.0,0.0,0.0,0.0,0.0,0.0,0.0,0.0,0.0,0.0,0.0,0.0,0.0,0.0,0.0,0.0,0.0,0.0,0.0,0.0,0.0,0.0,0.0,0.0,0.0,0.0,0.0,0.0,0.0,0.0,0.0,0.0,0.0,0.0,0.0,0.0,0.0,0.0,0.0,0.0,0.0,0.0,0.0,0.0,0.0,0.0,0.0,0.0,0.0,0.0,0.0,0.0,0.0,0.0,0.0,0.0,0.0,0.0,0.0,0.0,0.0,0.0,0.0,0.0,0.0,0.0,0.0,0.0,0.0,0.0,0.0,0.0,0.0,0.0,0.0,0.0,0.0,0.0,0.0,0.0,0.0,0.0,0.0,0.0,0.0,0.6652,0.731,0.8774,0.9156,0.9419,0.9581,0.8379,0.7548,0.7426,0.544,0.0,0.0,0.0,0.0,0.0,0.0,0.0,0.0,0.0,0.0,0.0,0.0,0.0,0.0,0.0,0.0,0.0,0.0,0.0,0.0,0.0,0.0,0.0,0.0,0.0,0.0,0.0,0.0,0.0,0.0,0.0,0.0,0.0,0.0,0.0,0.0,0.0,0.0,0.0,0.0,0.0,0.0,0.0,0.0,0.0,0.0,0.0,0.0,0.0,0.0,0.0,0.0,0.0,0.0,0.0,0.0,0.0,0.0,0.0,0.0,0.0,0.0,0.0,0.0,0.0,0.0,0.0,0.0,0.0,0.0,0.0,0.0,0.0,0.0,0.0,0.0,0.0,0.0,0.0,0.0,0.0,0.0,0.0,0.0,0.0,0.0,0.0,0.0,0.0,0.0,0.0,0.0,0.0,0.0,0.0,0.0,0.0,0.0,0.0,0.0,0.0,0.0,0.7857,0.8425,0.9223,0.9622,0.9553,0.889,0.8466,0.7911,0.7117,0.0,0.0,0.0,0.0,0.0,0.0,0.0,0.0,0.0,0.0,0.0,0.0,0.0,0.0,0.0,0.0,0.0,0.0,0.0,0.0,0.0,0.0,0.0,0.0,0.0,0.0,0.0,0.0,0.0,0.0,0.0,0.0,0.0,0.0,0.0,0.0,0.0,0.0,0.0,0.0,0.0,0.0,0.0,0.0,0.0,0.0,0.0,0.0,0.0,0.0,0.0,0.0,0.0,0.0,0.0,0.0,0.0,0.0,0.0,0.0,0.0,0.0,0.0,0.0,0.0,0.0,0.0,0.0,0.0,0.0,0.0,0.0,0.0,0.0,0.0,0.0,0.0,0.0,0.0,0.0,0.0,0.0,0.0,0.0,0.0,0.0,0.0,0.0,0.0,0.0,0.0,0.0,0.0,0.0,0.0,0.0,0.0,0.0,0.0,0.0,0.0,0.0,0.762,0.8298,0.8944,0.9671,0.9958,0.9831,0.9223,0.8904,0.8331,0.7334,0.0,0.0,0.0,0.0,0.0,0.0,0.0,0.0,0.0,0.0,0.0,0.0,0.0,0.0,0.0,0.0,0.0,0.0,0.0,0.0,0.0,0.0,0.0,0.0,0.0,0.0,0.0,0.0,0.0,0.0,0.0,0.0,0.0,0.0,0.0,0.0,0.0,0.0,0.0,0.0,0.0,0.0,0.0,0.0,0.0,0.0,0.0,0.0,0.0,0.0,0.0,0.0,0.0,0.0,0.0,0.0,0.0,0.0,0.0,0.0,0.0,0.0,0.0,0.0,0.0,0.0,0.0,0.0,0.0,0.0,0.0,0.0,0.0,0.0,0.0,0.0,0.0,0.0,0.0,0.0,0.0,0.0,0.0,0.0,0.0,0.0,0.0,0.0,0.0,0.0,0.0,0.0,0.0,0.0,0.0,0.0,0.0,0.0,0.0,0.0,0.0,0.0,0.7198,0.773,0.8605,1.0149,1.0108,1.0281,1.0931,0.9833,0.8877,0.0,0.0,0.0,0.0,0.0,0.0,0.0,0.0,0.0,0.0,0.0,0.0,0.0,0.0,0.0,0.0,0.0,0.0,0.0,0.0,0.0,0.0,0.0,0.0,0.0,0.0,0.0,0.0,0.0,0.0,0.0,0.0,0.0,0.0,0.0,0.0,0.0,0.0,0.0,0.0,0.0,0.0,0.0,0.0,0.0,0.0,0.0,0.0,0.0,0.0,0.0,0.0,0.0,0.0,0.0,0.0,0.0,0.0,0.0,0.0,0.0,0.0,0.0,0.0,0.0,0.0,0.0,0.0,0.0,0.0,0.0,0.0,0.0,0.0,0.0,0.0,0.0,0.0,0.0,0.0,0.0,0.0,0.0,0.0,0.0,0.0,0.0,0.0,0.0,0.0,0.0,0.0,0.0,0.0,0.0,0.0,0.0,0.0,0.0,0.0,0.0,0.0,0.0,0.8275,0.8844,0.948,1.0427,1.0206,1.0088,1.0275,0.9897,0.9329,0.8549,0.0,0.0,0.0,0.0,0.0,0.0,0.0,0.0,0.0,0.0,0.0,0.0,0.0,0.0,0.0,0.0,0.0,0.0,0.0,0.0,0.0,0.0,0.0,0.0,0.0,0.0,0.0,0.0,0.0,0.0,0.0,0.0,0.0,0.0,0.0,0.0,0.0,0.0,0.0,0.0,0.0,0.0,0.0,0.0,0.0,0.0,0.0,0.0,0.0,0.0,0.0,0.0,0.0,0.0,0.0,0.0,0.0,0.0,0.0,0.0,0.0,0.0,0.0,0.0,0.0,0.0,0.0,0.0,0.0,0.0,0.0,0.0,0.0,0.0,0.0,0.0,0.0,0.0,0.0,0.0,0.0,0.0,0.0,0.0,0.0,0.0,0.0,0.0,0.0,0.0,0.0,0.0,0.0,0.0,0.0,0.0,0.0,0.0,0.0,0.0,0.0,0.0,0.8898,0.9705,1.0409,1.1048,1.0729,1.0485,1.052,1.0243,0.96,0.8548,0.0,0.0,0.0,0.0,0.0,0.0,0.0,0.0,0.0,0.0,0.0,0.0,0.0,0.0,0.0,0.0,0.0,0.0,0.0,0.0,0.0,0.0,0.0,0.0,0.0,0.0,0.0,0.0,0.0,0.0,0.0,0.0,0.0,0.0,0.0,0.0,0.0,0.0,0.0,0.0,0.0,0.0,0.0,0.0,0.0,0.0,0.0,0.0,0.0,0.0,0.0,0.0,0.0,0.0,0.0,0.0,0.0,0.0,0.0,0.0,0.0,0.0,0.0,0.0,0.0,0.0,0.0,0.0,0.0,0.0,0.0,0.0,0.0,0.0,0.0,0.0,0.0,0.0,0.0,0.0,0.0,0.0,0.0,0.0,0.0,0.0,0.0,0.0,0.0,0.0,0.0,0.0,0.0,0.0,0.0,0.0,0.0,0.0,0.0,0.0,0.0,0.0,0.9231,1.0286,1.1191,1.1809,1.1425,1.1163,1.1295,1.0658,0.978,0.8583,0.0,0.0,0.0,0.0,0.0,0.0,0.0,0.0,0.0,0.0,0.0,0.0,0.0,0.0,0.0,0.0,0.0,0.0,0.0,0.0,0.0,0.0,0.0,0.0,0.0,0.0,0.0,0.0,0.0,0.0,0.0,0.0,0.0,0.0,0.0,0.0,0.0,0.0,0.0,0.0,0.0,0.0,0.0,0.0,0.0,0.0,0.0,0.0,0.0,0.0,0.0,0.0,0.0,0.0,0.0,0.0,0.0,0.0,0.0,0.0,1.2517,1.1693,0.0,0.0,0.0,0.0,0.0,0.0,0.0,0.0,0.0,0.0,0.0,0.0,0.0,0.0,0.0,0.0,0.0,0.0,0.0,0.0,0.0,0.0,0.0,0.0,0.0,0.0,0.0,0.0,0.0,0.0,0.0,0.0,0.0,0.0,0.0,0.0,0.0,0.0,0.0,0.0,0.9695,1.0197,1.0763,1.1585,1.0954,1.07,1.1248,1.058,1.0107,1.0037,0.9339,0.0,0.0,0.0,0.0,0.0,0.0,0.0,0.0,0.0,0.0,0.0,0.0,0.0,0.0,0.0,0.0,0.0,0.0,0.0,0.0,0.0,0.0,0.0,0.0,0.0,0.0,0.0,0.0,0.0,0.0,0.0,0.0,0.0,0.0,0.0,0.0,0.0,0.0,0.0,0.0,0.0,0.0,0.0,0.0,0.0,0.0,0.0,0.0,0.0,0.0,0.0,0.0,0.0,0.0,0.0,0.0,0.0,0.0,0.0,1.5155,1.3292,0.0,0.0,0.0,0.0,0.0,0.0,0.0,0.0,0.0,0.0,0.0,0.0,0.0,0.0,0.0,0.0,0.0,0.0,0.0,0.0,0.0,0.0,0.0,0.0,0.0,0.0,0.0,0.0,0.0,0.0,0.0,0.0,0.0,0.0,0.0,0.0,0.0,0.0,0.0,0.0,1.0625,1.0954,1.1405,1.228,1.1583,1.1239,1.1652,1.0874,1.0253,1.0092,0.9701,0.0,0.0,0.0,0.0,0.0,0.0,0.0,0.0,0.0,0.0,0.0,0.0,0.0,0.0,0.0,0.0,0.0,0.0,0.0,0.0,0.0,0.0,0.0,0.0,0.0,0.0,0.0,0.0,0.0,0.0,0.0,0.0,0.0,0.0,0.0,0.0,0.0,0.0,0.0,0.0,0.0,0.0,0.0,0.0,0.0,0.0,0.0,0.0,0.0,0.0,0.0,0.0,0.0,2.2388,2.3196,2.411,2.3623,2.3487,2.3434,1.8857,1.6213,1.5061,1.4553,0.0,0.0,0.0,0.0,0.0,0.0,0.0,0.0,0.0,0.0,0.0,0.0,0.0,0.0,0.0,0.0,0.0,0.0,0.0,0.0,0.0,0.0,1.4809,1.4569,1.5218,1.5092,1.2235,0.0,0.0,0.0,0.0,0.0,0.0,0.0,0.0,0.0,0.0,0.0,1.1639,1.1996,1.2387,1.3141,1.2603,1.2191,1.2201,1.1386,1.0649,1.0124,1.0173,0.9819,0.0,0.0,0.0,0.0,0.0,0.0,0.0,0.0,0.0,0.0,0.0,0.0,0.0,0.0,0.0,0.0,0.0,0.0,0.0,0.0,0.0,0.0,0.0,0.0,0.0,0.0,0.0,0.0,0.0,0.0,0.0,0.0,1.7266,1.7377,0.0,0.0,0.0,0.0,0.0,0.0,0.0,0.0,0.0,0.0,0.0,0.0,0.0,2.1932,2.3053,2.4878,2.5652,2.5333,2.6277,2.6554,2.6204,2.6122,2.5763,2.5201,2.4843,0.0,1.8639,1.7646,0.0,0.0,0.0,0.0,0.0,0.0,0.0,0.0,0.0,0.0,0.0,0.0,0.0,0.0,0.0,0.0,0.0,0.0,0.0,0.0,0.0,0.0,1.6932,1.6325,1.6206,1.598,1.5074,1.3901,1.2847,1.2209,1.1398,1.0947,0.0,0.0,0.0,0.0,0.0,0.0,1.2282,1.2716,1.3054,1.3341,1.3379,1.317,1.2669,1.2238,1.2008,1.2036,1.1663,1.1521,1.167,1.0386,0.0,0.0,0.0,0.0,0.0,0.0,0.0,0.0,0.0,0.0,0.0,0.0,0.0,0.0,0.0,0.0,0.0,0.0,0.0,0.0,0.0,0.0,0.0,0.0,0.0,0.0,0.0,0.0,0.0,1.7119,1.8892,1.8982,1.9181,1.887,0.0,0.0,0.0,0.0,0.0,0.0,0.0,0.0,0.0,2.3957,2.5219,2.6195,2.6764,2.8054,2.8751,2.8821,2.9369,2.9817,3.0131,2.975,2.9606,2.9662,2.9498,2.765,2.46,2.1856,1.9582,1.7801,0.0,0.0,0.0,0.0,1.7529,1.8274,1.8312,1.8159,1.7866,1.7399,0.0,0.0,0.0,0.0,0.0,0.0,0.0,1.7049,1.717,1.7961,1.867,1.8361,1.8399,1.8253,1.7423,1.6451,1.5158,1.3176,1.2722,1.2427,1.1701,1.1653,0.0,0.0,0.0,1.2452,1.3634,1.342,1.3288,1.3635,1.3485,1.315,1.2588,1.2196,1.2011,1.212,1.1889,1.1712,1.1649,1.0867,1.0046,0.0,0.0,0.0,0.0,0.0,0.0,0.0,0.0,0.0,0.0,0.0,0.0,0.0,0.0,0.0,0.0,0.0,0.0,0.0,0.0,0.0,0.0,0.0,0.0,0.0,0.0,0.0,0.0,1.8956,2.0751,2.02,2.1391,2.1532,0.0,0.0,0.0,0.0,0.0,0.0,2.4734,2.5518,2.6608,2.8214,2.925,2.9973,3.0401,3.1129,3.1567,3.1736,3.1847,3.2301,3.3072,3.2568,3.2492,3.2815,3.2345,3.1231,2.9449,2.566,2.301,2.1304,2.0704,2.0356,2.0189,2.0347,2.0918,2.1621,2.1541,2.1451,2.1177,2.0126,1.9196,1.8241,1.6987,0.0,0.0,0.0,0.0,1.823,1.8876,1.9435,1.9863,1.9991,2.0184,2.0105,1.917,1.8561,1.7393,1.4667,1.4188,1.3868,1.2692,1.261,0.0,1.3458,1.3246,1.3483,1.4705,1.4213,1.3807,1.3936,1.3752,1.3351,1.2653,1.2341,1.2234,1.2288,1.2116,1.189,1.161,1.1199,1.0418,0.9187,0.0,0.0,0.0,0.0,0.0,0.0,0.0,0.0,0.0,0.0,0.0,0.0,0.0,0.0,0.0,0.0,0.0,0.0,0.0,0.0,0.0,0.0,0.0,0.0,0.0,0.0,0.0,0.0,0.0,2.1064,2.399,0.0,0.0,0.0,0.0,2.4304,2.4661,2.5851,2.8218,2.7913,2.8743,3.1098,3.1629,3.2536,3.3936,3.4425,3.4364,3.3754,3.3567,3.3492,3.3563,3.352,3.3194,3.2628,3.2768,3.2416,3.1507,2.837,2.588,2.389,2.2805,2.2766,2.3254,2.2395,2.2719,2.3448,2.2624,2.2087,2.1923,2.2917,2.2271,2.1006,2.0337,1.9663,0.0,0.0,1.9614,2.0065,2.0854,2.0635,2.0291,2.0806,2.0843,2.0622,2.0054,1.9609,1.8834,1.7206,1.5699,1.4821,1.5309,0.0,1.4087,1.4625,1.4589,1.4601,1.4955,1.517,1.4971,1.4176,1.4517,1.4339,1.3172,1.3226,1.3323,1.3323,1.2906,1.265,1.264,1.1587,1.0985,1.0962,1.0175,0.0,0.0,0.0,0.0,0.0,0.0,0.0,0.0,0.0,0.0,0.0,0.0,0.0,0.0,0.0,0.0,0.0,0.0,0.0,0.0,0.0,0.0,0.0,0.0,0.0,0.0,0.0,0.0,2.5744,2.8438,0.0,2.7367,2.7414,2.7931,2.8823,2.9258,3.0479,3.2802,3.3067,3.3884,3.5525,3.5291,3.5535,3.633,3.6151,3.5881,3.548,3.5117,3.464,3.4051,3.3612,3.3518,3.3657,3.3306,3.3416,3.3671,3.1707,2.9504,2.7229,2.5991,2.5433,2.5297,2.4967,2.5075,2.5323,2.5006,2.4683,2.4226,2.345,2.2394,2.1451,2.1224,2.1259,2.1294,2.0983,2.1245,2.1572,2.1389,2.1401,2.1446,2.1183,2.1042,2.0771,2.0232,2.0016,1.9583,1.841,1.6841,1.5603,1.543,1.5126,1.496,1.5171,1.5147,1.527,1.5712,1.5543,1.5159,1.448,1.4589,1.4228,1.2999,1.2653,1.251,1.251,1.2263,1.1872,1.1307,1.1383,1.0817,0.9455,0.9762,0.9602,0.0,0.0,0.0,0.0,0.0,0.0,0.0,0.0,0.0,0.0,0.0,0.0,0.0,0.0,0.0,0.0,0.0,0.0,0.0,0.0,0.0,0.0,0.0,0.0,0.0,2.6054,2.8382,2.9215,3.1687,3.2632,3.0843,3.1265,3.1935,3.2632,3.3169,3.4428,3.6561,3.6812,3.7438,3.8682,3.7823,3.7452,3.7735,3.7143,3.6616,3.6213,3.5962,3.5492,3.4883,3.4499,3.4551,3.4952,3.4518,3.4582,3.4916,3.3814,3.2214,3.0353,2.916,2.8297,2.7708,2.7493,2.7278,2.7048,2.6685,2.6292,2.5694,2.4099,2.3112,2.2555,2.2304,2.2463,2.2644,2.2369,2.2532,2.261,2.1917,2.1967,2.2077,2.1647,2.1431,2.1202,2.0648,2.0548,2.0216,1.9157,1.7801,1.6579,1.5874,1.5621,1.5596,1.5743,1.5668,1.5782,1.6312,1.5966,1.545,1.4942,1.4807,1.4368,1.343,1.2952,1.2629,1.2423,1.2189,1.1706,1.0872,1.1389,1.0971,0.9368,1.0084,1.0126,0.9447,0.0,0.0,0.0,0.0,0.0,0.0,0.0,0.0,0.0,0.0,0.0,0.0,0.0,0.0,0.0,0.0,0.0,0.0,0.0,0.0,0.0,0.0,0.0,2.6288,2.9808,3.1994,3.121,3.3625,3.4339,3.1716,3.3392,3.4947,3.5651,3.6296,3.7454,3.9266,3.8756,3.8971,4.024,3.8929,3.8229,3.8292,3.7554,3.6738,3.593,3.6088,3.615,3.6151,3.6261,3.6307,3.6338,3.6307,3.5907,3.5246,3.4629,3.3952,3.315,3.2033,3.1196,3.054,2.9871,2.9217,2.8534,2.7418,2.6727,2.6136,2.5095,2.4657,2.4408,2.3765,2.3386,2.3265,2.3612,2.3526,2.3178,2.2555,2.2292,2.2184,2.2212,2.2105,2.1841,2.1326,2.1226,2.0855,1.9573,1.8627,1.7732,1.6807,1.6185,1.5979,1.6457,1.625,0.0,1.6646,1.6436,1.6022,1.5492,1.5255,1.4953,1.4454,1.4215,1.3829,1.3237,1.2822,1.228,1.1562,1.1678,1.1529,1.1068,1.1305,1.1452,1.1489,0.0,0.0,0.0,0.0,0.0,0.0,0.0,0.0,0.0,0.0,0.0,0.0,0.0,0.0,0.0,0.0,0.0,0.0,0.0,0.0,0.0,2.8921,3.1312,3.0895,3.2801,3.4733,3.61,3.7783,3.8538,3.7788,3.7844,3.7982,3.818,3.8036,3.8163,3.8792,3.8651,3.8946,3.9761,3.8949,3.91,4.0446,3.9232,3.8685,3.8824,3.7981,3.7296,3.6798,3.6461,3.6568,3.7007,3.6491,3.6642,3.7112,3.6388,3.5549,3.4566,3.2798,3.1728,3.11,3.0476,2.9585,2.8619,2.8062,2.7354,2.6564,2.5979,2.5641,2.5402,2.5214,2.5423,2.5494,2.443,2.4074,2.3809,2.2867,2.2269,2.2023,2.2467,2.2197,2.1793,2.1688,2.1626,2.1339,2.0291,1.9463,1.8634,1.7638,1.7035,1.6761,1.7034,1.7001,1.698,1.7105,1.7126,1.6896,1.6263,1.6231,1.5827,1.4783,1.4272,1.3755,1.3103,1.281,1.254,1.2238,1.2764,1.2864,1.2394,1.2311,1.2041,0.0,0.0,0.0,0.0,0.0,0.0,0.0,0.0,0.0,0.0,0.0,0.0,0.0,0.0,0.0,0.0,0.0,0.0,0.0,0.0,0.0,0.0,3.2857,3.5484,3.5968,3.6427,3.7495,3.9598,3.9995,4.012,4.012,3.9558,3.9295,3.9532,3.9111,3.9146,3.9818,3.9846,4.0219,4.105,4.0381,4.0362,4.1098,4.0011,3.948,3.943,3.8713,3.8222,3.7895,3.7658,3.7774,3.8137,3.7745,3.776,3.7989,3.756,3.6857,3.5878,0.0,0.0,0.0,0.0,3.0306,2.988,2.8952,2.8366,2.7855,2.6866,2.6551,2.6576,2.6347,2.6465,2.6537,2.5903,2.5492,2.5042,2.4095,2.3492,2.3192,2.3332,2.2745,2.2204,2.2252,2.2034,2.1566,2.0762,2.0275,0.0,1.8615,1.7615,1.706,1.7305,1.7235,1.7173,1.7325,1.7284,1.7124,1.6823,1.653,1.6106,1.5523,1.4883,0.0,0.0,0.0,1.3319,1.3221,1.3405,0.0,0.0,0.0,1.2883,1.2681,1.3344,0.0,0.0,1.2551,1.2319,0.0,0.0,0.0,0.0,0.0,0.0,0.0,0.0,0.0,0.0,0.0,0.0,0.0,0.0,0.0,0.0,3.6471,3.8477,4.0834,4.0157,4.0042,4.1771,4.0901,4.0212,4.0297,3.9831,3.9761,4.0315,4.005,4.0409,4.1655,4.1645,0.0,0.0,0.0,4.1547,4.0857,4.0222,3.949,3.8718,3.8771,3.8832,3.8996,3.9175,3.9272,3.9299,3.9299,3.8924,3.8328,3.8328,3.7822,3.6959,3.5743,3.4164,3.2403,3.1213,3.1255,3.1691,3.0124,0.0,0.0,2.8018,2.7752,2.7998,2.7487,2.7163,2.7109,2.7557,2.7187,2.6483,2.5627,2.5139,2.4785,2.4326,2.3469,2.2751,2.2818,2.2356,2.1771,2.1162,2.0996,2.0631,1.9656,1.821,1.7256,1.7509,1.7282,1.7199,1.7496,1.7303,1.7178,1.7344,1.6673,0.0,1.6441,1.5872,1.5162,1.437,1.4429,1.4472,1.4414,1.3893,1.3833,1.4313,1.3903,1.3889,1.4299,1.4299,1.4543,1.4999,1.3969,1.3628,0.0,0.0,0.0,0.0,0.0,0.0,0.0,0.0,0.0,0.0,0.0,0.0,0.0,0.0,0.0,3.6774,3.8737,4.0729,4.312,4.2211,4.1437,4.178,4.1518,4.1562,4.2207,4.1774,4.1778,4.261,4.221,4.2102,4.2474,4.1931,4.181,4.2283,4.1593,4.1189,4.1116,4.032,3.9752,3.9495,3.8893,0.0,3.886,3.8996,3.9148,3.9299,3.9299,3.9232,3.91,3.91,3.8242,3.6807,3.5538,3.4404,3.3351,3.262,3.245,3.2502,3.1727,3.1507,3.1416,3.0633,3.0439,3.0393,2.9641,2.9461,0.0,2.7844,2.7403,2.7026,2.573,2.4836,2.4159,2.3751,2.3342,2.2884,2.2442,2.26,2.266,2.2081,2.1471,2.0985,2.0793,1.9682,1.8755,1.8489,1.8386,1.838,1.8445,1.8436,1.8436,1.8406,1.8303,1.7851,1.6877,1.7149,1.6873,1.5714,1.5706,1.5722,1.5643,1.5194,1.4979,1.508,1.4949,1.492,1.502,1.4902,1.4944,1.5148,1.4829,1.4698,0.0,0.0,0.0,0.0,0.0,0.0,0.0,0.0,0.0,0.0,0.0,3.0197,3.2264,0.0,3.7047,3.9929,4.1473,4.2758,4.4011,4.3124,4.2344,4.2344,4.2027,4.1934,4.2255,4.2201,4.2432,4.3144,4.3164,4.3151,4.315,4.3182,4.3169,4.3087,4.2356,4.2036,4.2194,4.0682,3.9874,3.9789,3.9054,3.8738,3.8805,3.886,3.8942,3.904,3.904,3.9094,3.9148,3.9148,3.8397,3.7091,3.6127,3.5082,3.3984,3.3124,3.3161,3.3524,3.2679,3.2565,3.2659,3.1871,3.1508,3.1269,3.0629,3.0231,2.9845,2.9153,2.8818,2.8494,2.7778,2.717,2.6627,2.6122,2.5643,2.5116,2.4442,2.4134,2.3817,2.3164,2.2489,2.1902,2.1611,2.1041,2.0407,1.9652,1.9445,1.939,1.9533,1.919,1.9085,1.9456,1.8973,1.8442,1.7904,1.753,1.7071,1.6443,1.6087,1.5886,1.5853,1.5368,1.5101,1.5101,1.5299,1.5329,1.5207,1.5314,1.5314,1.5253,1.5148,1.5133,0.0,0.0,0.0,0.0,0.0,0.0,0.0,2.8793,2.9722,3.1315,3.2546,3.4178,3.7003,3.7982,3.9458,4.2783,4.362,4.3996,4.4433,4.357,4.2886,4.2886,4.248,4.2184,4.222,4.2619,4.3133,4.3735,4.4122,4.4316,4.4237,4.475,4.487,4.4483,4.3739,4.3265,4.3149,4.1233,4.0148,3.9824,3.9111,3.8777,3.8805,3.8805,3.8805,3.8805,3.8805,3.886,3.8969,3.8942,3.8379,3.7427,3.6863,3.5906,3.47,3.3482,3.362,3.4292,3.3412,3.3396,3.3649,3.28,3.2292,3.1929,3.1387,3.0721,3.0185,3.0413,3.0215,2.9886,2.9653,2.951,2.9191,2.835,2.7996,2.7615,2.6726,2.5834,2.5014,2.4347,2.3495,2.2752,2.2265,2.2164,2.1809,2.0692,2.0344,2.0258,2.0443,1.9901,1.9719,2.0302,1.9506,1.8945,1.8974,1.7923,1.7263,1.7256,1.6647,1.6277,1.6277,1.5662,1.5321,1.5305,1.5566,1.558,1.5358,1.5653,1.5682,1.5492,1.5418,1.5343,2.4345,2.5484,2.7102,2.9892,3.0117,3.117,0.0,3.6701,3.5615,3.7226,3.8058,3.8792,3.9884,4.0057,4.1086,4.4325,4.3787,4.3458,4.4971,4.386,4.2886,4.2886,4.289,4.3097,4.3617,4.4454,4.5311,4.6147,4.6247,4.6324,4.6436,4.6028,4.5783,4.5798,4.5173,4.4247,4.2954,4.2034,4.0946,3.9623,3.8964,3.8683,3.8805,3.8805,3.8805,3.8805,3.8805,3.8805,3.8805,3.8683,3.8204,3.7492,3.7308,3.6751,3.5924,3.4468,3.405,3.4134,3.4144,3.4244,3.439,3.4405,3.4037,3.3402,3.2583,3.1891,3.1247,3.0599,3.0422,3.0194,2.9181,2.9205,2.9048,2.7252,2.7984,2.8722,2.7322,2.6645,2.6117,2.5446,2.4011,2.2875,2.2825,2.281,2.2381,2.1199,2.1005,2.0901,2.0698,2.0787,2.0814,2.0662,2.0527,2.0214,1.9649,1.9195,1.8916,1.8861,1.8543,1.8365,1.8365,1.7378,1.6832,1.6758,1.6285,1.6011,1.5911,1.6065,1.6162,1.6191,1.6067,1.5711,2.7889,2.912,3.0339,3.184,3.331,3.5137,3.8006,3.8092,3.7975,3.9474,4.0243,4.0845,4.1495,4.1635,4.2357,4.4633,4.4506,4.4384,4.5081,4.4202,4.3147,4.2251,4.2652,4.3079,4.3316,4.4165,4.5051,4.5846,4.6324,4.6419,4.6005,4.6188,4.6103,4.5663,4.5065,4.432,4.3425,4.1883,4.0623,3.9644,3.9001,3.8655,3.8572,3.8655,3.8628,3.8572,3.8655,3.8628,3.8572,3.8588,3.8381,3.794,3.7075,3.6562,3.6173,3.5121,3.4732,3.4693,3.4397,3.4349,3.4358,3.4125,3.3571,3.2863,3.2144,3.1396,3.0733,3.0479,3.0422,3.0356,2.9901,2.9932,2.9962,2.9436,2.9754,2.9982,2.9234,2.8459,2.7712,2.7041,2.572,2.4792,2.5053,2.489,2.4642,2.4518,2.3372,2.2619,2.2825,2.2576,2.2234,2.1839,2.2051,2.1993,2.1442,2.1145,2.0812,2.0349,1.9838,1.9375,1.8963,1.8129,1.767,1.7639,1.7572,1.7463,1.7287,1.7608,1.7667,1.7464,1.7491,1.7329,2.9988,3.1433,3.2867,3.3924,3.6185,3.8326,3.8903,3.9525,4.0188,4.089,4.1533,4.2078,4.2474,4.245,4.3003,4.4835,4.5029,4.5047,4.5276,4.4606,4.3578,4.219,4.2432,4.2754,4.2858,4.3905,4.4875,4.5623,4.6224,4.6295,4.5711,4.6248,4.6324,4.5711,4.5102,4.4483,4.3871,4.1997,4.0641,3.9836,3.9373,3.9007,3.8683,3.8738,3.8711,3.8628,3.856,3.856,3.8628,3.8616,3.839,3.8003,3.7183,3.6688,3.6401,3.5678,3.5168,3.4839,3.4404,3.4275,3.4243,3.3898,3.3151,3.2331,3.1879,3.103,3.0259,3.0563,3.065,3.0705,3.0945,3.1165,3.1331,3.1499,3.1655,3.1616,3.1042,3.0235,2.9359,2.8476,2.7331,2.6534,2.6689,2.6415,2.637,2.6908,2.5656,2.4746,2.4989,2.4575,2.4102,2.3772,2.3907,2.3782,2.3157,2.284,2.235,2.1634,2.1054,2.0496,1.9981,1.9202,1.8779,1.8748,1.8786,1.8691,1.8483,1.884,1.8869,1.8618,1.8703,1.8658,2.9254,3.1175,3.3905,3.6896,3.8905,4.0541,4.2086,4.2976,4.315,4.2083,4.2414,4.2855,4.2886,4.2287,4.2683,4.5339,4.5116,4.4884,4.5673,4.5102,4.4213,4.3178,4.2391,4.2163,4.275,4.4302,4.5594,4.6317,4.6387,4.6405,4.637,4.6525,4.6525,4.637,4.5776,4.5034,4.4101,4.2805,4.1481,4.0179,4.0162,3.9868,3.9382,3.9232,3.9179,3.9152,3.8628,3.8711,3.9152,3.8766,3.8098,3.7394,3.7998,3.7733,3.6902,3.6158,3.5128,3.4133,3.4101,3.4201,3.43,3.4267,3.3419,3.2407,3.2374,3.1374,3.0336,3.1079,3.1276,3.1423,3.2073,3.2777,3.3114,3.236,3.3209,3.3779,3.2295,3.1654,3.1007,2.9612,2.8483,2.7527,2.6817,2.6686,2.6794,2.7142,2.7232,2.7132,2.67,2.6604,2.6588,2.6588,2.6125,2.5445,2.4517,2.3893,2.3264,2.2595,2.2293,2.2131,2.2098,2.1089,2.0484,2.0424,1.967,1.9244,1.9171,1.9244,1.9314,1.9383,1.9367,1.9267,3.2123,3.4697,3.7274,3.881,4.0402,4.1747,4.24,4.2703,4.2545,4.1395,4.0615,3.9866,3.9009,3.9259,4.0063,4.1535,4.3344,4.4692,4.4981,4.5231,4.4696,4.2774,4.2626,4.2568,4.2229,4.307,4.4185,4.5451,4.5539,4.575,4.6235,4.6319,4.6319,4.627,4.5598,4.4646,4.3447,4.3016,4.1871,4.007,4.0194,4.0211,4.0053,4.0052,4.006,4.0001,3.9311,3.9454,4.0133,3.9286,3.8613,3.8107,3.7995,3.726,3.6208,3.5844,3.5214,3.4537,3.4209,3.4126,3.4095,3.3706,3.2924,3.2152,3.2245,3.1212,3.0158,3.0957,3.0816,3.062,3.1428,3.145,3.1559,3.2613,3.2595,3.2275,3.2176,3.2043,3.1681,3.0703,2.9881,2.9373,2.948,2.8831,2.8468,2.899,2.8299,2.7721,2.7693,2.7693,2.7611,2.7394,2.7025,2.6565,2.5938,2.5543,2.5013,2.4299,2.4124,2.3849,2.3358,2.2457,2.1719,2.1168,2.0846,2.0474,2.0004,2.0549,2.0837,2.0867,2.1011,2.0964,3.564,3.7972,3.9898,4.0931,4.1968,4.2706,4.2479,4.2251,4.1582,3.9871,3.8598,3.7391,3.6049,3.6181,3.7164,3.9182,4.1066,4.2754,4.4187,4.4835,4.4692,4.3417,4.3578,4.3536,4.2949,4.2996,4.3613,4.4992,4.5439,4.5857,4.6308,4.644,4.644,4.6343,4.5417,4.456,4.3816,4.3428,4.2508,4.1116,4.1034,4.0889,4.0648,4.0786,4.0856,4.0822,4.0111,4.0256,4.092,3.9976,3.9299,3.8759,3.8319,3.7471,3.6453,3.5999,3.5638,3.5237,3.4569,3.4234,3.4045,3.3665,3.3023,3.2424,3.2495,3.1644,3.0804,3.1586,3.1284,3.0894,3.1717,3.1577,3.1554,3.2868,3.2736,3.2255,3.2152,3.2519,3.2503,3.1284,3.1114,3.1126,3.0939,3.025,2.9781,2.9935,2.9415,2.8958,2.8923,2.8914,2.8833,2.8616,2.7971,2.7419,2.7134,2.6475,2.5881,2.5419,2.5103,2.4724,2.4247,2.3473,2.2687,2.1904,2.184,2.145,2.0766,2.1268,2.1396,2.1182,2.1622,2.1648,3.937,4.0799,4.1779,4.3161,4.3564,4.3394,4.2417,4.162,4.0349,3.76,3.6413,3.5421,3.3977,3.3277,3.4246,3.8309,3.8597,3.9679,4.3618,4.4233,4.4518,4.5158,4.5227,4.5126,4.4875,4.4153,4.4116,4.5146,4.6018,4.6525,4.6613,4.6865,4.6888,4.6637,4.5347,4.4813,4.5128,4.4032,4.3358,4.3142,4.2572,4.1905,4.1145,4.1437,4.1569,4.1547,4.0989,4.1035,4.1503,4.0804,4.0098,3.9382,3.8931,3.8274,3.7511,3.6661,3.6322,3.6156,3.5214,3.4586,3.4176,3.4126,3.3656,3.3145,3.3153,3.2611,3.2158,3.2886,3.2595,3.2222,3.2902,3.3137,3.317,3.3194,3.368,3.3777,3.24,3.3161,3.3501,3.1406,3.2141,3.2643,3.1195,3.0969,3.0726,3.0091,3.0554,3.0768,3.026,3.0189,3.0189,3.0189,2.8911,2.8043,2.801,2.6733,2.593,2.5897,2.5242,2.4865,2.4865,2.4112,2.3358,2.2605,2.2492,2.2053,2.1288,2.1369,2.106,2.0422,2.1305,2.1343,4.0566,4.2806,4.456,4.3718,4.3996,4.3811,4.1248,3.9638,3.7972,3.5471,3.3001,3.0969,2.9933,3.1631,3.3767,3.5501,3.9569,4.343,4.5955,4.7347,4.8169,4.8332,4.8211,4.7872,4.7213,4.6514,4.6368,4.6913,4.5801,4.5641,4.6817,4.6957,4.6957,4.6888,4.5976,4.5526,4.5627,4.4019,4.3474,4.3975,4.2831,4.2136,4.1856,4.2292,4.2472,4.2436,4.1689,4.1741,4.2259,4.1345,4.058,3.9953,3.9359,3.8506,3.7554,3.7013,3.6591,3.6259,3.6006,3.5616,3.5091,3.4358,3.3884,3.3649,3.3803,3.2983,3.2158,3.2886,3.2951,3.2854,3.3032,3.3469,3.3971,3.4547,3.4806,3.4651,3.3761,3.3841,3.3793,3.274,3.2838,3.2805,3.1882,3.1737,3.1672,3.1494,3.1607,3.1329,3.0179,3.0038,3.0081,3.0189,2.937,2.86,2.8059,2.7175,2.6438,2.5914,2.5717,2.5619,2.5619,2.439,2.3325,2.2541,2.1971,2.1076,1.9839,2.0897,2.1074,2.0479,2.1275,2.152,4.3519,4.5405,4.6645,4.5061,4.4534,4.3445,3.9909,3.7882,3.5768,3.236,3.0028,2.8229,2.707,2.8993,3.1464,3.3623,3.7871,4.2214,4.5993,4.7474,4.8603,4.9866,4.9773,4.9505,4.9215,4.8043,4.7623,4.8393,4.6786,4.6189,4.7084,4.7227,4.7249,4.7138,4.646,4.5907,4.5462,4.4688,4.4165,4.3934,4.3275,4.2731,4.2331,4.267,4.2842,4.2824,4.2372,4.2371,4.2692,4.2067,4.1636,4.1289,4.0433,3.9744,3.915,3.847,3.784,3.728,3.7037,3.6542,3.5817,3.4592,3.4225,3.4183,3.3924,3.3413,3.308,3.3793,3.3777,3.3599,3.3947,3.4295,3.4709,3.5114,3.5454,3.5477,3.4732,3.457,3.4376,3.3663,3.3291,3.2967,3.2546,3.2481,3.2368,3.206,3.2302,3.2138,3.1102,3.0634,3.0423,3.0489,2.9603,2.8845,2.8437,2.748,2.673,2.6356,2.6008,2.5809,2.5809,2.4987,2.4168,2.3402,2.2963,2.2232,2.1144,2.194,2.1825,2.0878,2.1642,2.1658,4.7071,4.8061,4.8245,4.6593,4.4979,4.2679,3.8456,3.5998,3.3396,2.9004,2.7419,2.6435,2.5109,2.6288,2.8746,3.2618,3.5349,3.9111,4.5204,4.6534,4.7915,5.0702,5.0806,5.0796,5.1146,4.9312,4.8553,4.967,4.826,4.7363,4.7363,4.7575,4.7539,4.7201,4.6636,4.5915,4.5065,4.5394,4.4911,4.3528,4.3668,4.3334,4.2609,4.2824,4.2901,4.2901,4.2901,4.2882,4.2844,4.2729,4.2731,4.2715,4.1534,4.1169,4.1178,4.0196,3.9368,3.8669,3.807,3.7396,3.6574,3.4997,3.4666,3.4748,3.3924,3.399,3.446,3.5033,3.4887,3.4686,3.5263,3.5565,3.5704,3.5555,3.6078,3.6413,3.5721,3.548,3.5147,3.4356,3.3819,3.3478,3.3421,3.3405,3.3194,3.2562,3.2998,3.3168,3.2581,3.169,3.1095,3.1095,3.0049,2.9284,2.9083,2.7996,2.7185,2.6891,2.6308,2.5877,2.5701,2.5656,2.526,2.4517,2.4419,2.4031,2.335,2.3447,2.2799,2.1487,2.2281,2.1987,4.8706,4.978,4.9736,4.6757,4.4917,4.2408,3.7039,3.3104,2.9832,2.7072,2.5382,2.4349,2.42,2.5953,2.8734,3.2784,3.598,4.0151,4.647,4.858,5.0265,5.2426,5.3211,5.3604,5.3675,5.1563,5.0406,5.0953,4.8897,4.7636,4.7636,4.7678,4.737,4.6659,4.5904,4.5415,4.5251,4.479,4.4293,4.3735,4.339,4.2992,4.2609,4.2824,4.2901,4.2901,4.2901,4.2805,4.2631,4.2512,4.2454,4.2382,4.1393,4.1129,4.1178,4.0311,3.9802,3.9471,3.8523,3.8106,3.772,3.5954,3.5425,3.5334,3.4738,3.5068,3.5531,3.5266,3.6114,3.6973,3.6558,3.7479,3.8309,3.7451,3.7692,3.8026,3.7671,3.6995,3.6125,3.4973,3.5206,3.5456,3.5067,3.5092,3.5118,3.5004,3.4579,3.4243,3.4129,3.2943,3.2142,3.2142,3.1913,3.1291,2.9995,2.9619,2.8722,2.6922,2.7153,2.6857,2.5749,2.5656,2.526,2.4517,2.3966,2.3318,2.2588,2.3204,2.3076,2.2297,2.3062,2.334,4.9896,5.068,5.0343,4.7569,4.5024,4.1676,3.5766,3.1899,2.8679,2.5642,2.4421,2.3917,2.3986,2.5951,2.8464,3.1228,3.4022,3.805,4.4324,4.6136,4.8211,5.1994,5.2571,5.2948,5.3605,5.1638,5.0509,5.0897,4.9288,4.8094,4.772,4.7301,4.6902,4.6522,4.5725,4.5133,4.4776,4.4546,4.4108,4.3445,4.3483,4.3248,4.2767,4.3032,4.3069,4.2901,4.2901,4.2843,4.2747,4.2689,4.2709,4.271,4.2157,4.1993,4.2016,4.1523,4.1032,4.0521,4.0032,3.9428,3.8652,3.7286,3.651,3.5949,3.4924,3.5048,3.5703,3.6505,3.7103,3.7676,3.8219,3.8964,3.9289,3.8164,3.8207,3.8497,3.8514,3.8166,3.7506,3.6376,3.6662,3.6944,3.6522,3.6386,3.6333,3.6333,3.5706,3.523,3.523,3.4633,3.3884,3.3011,3.2815,3.2177,3.0751,3.0272,2.9414,2.7932,2.7457,2.6942,2.63,2.5945,2.5587,2.523,2.4904,2.4544,2.4133,2.4475,2.4297,2.3649,2.4008,2.4043,5.0615,5.1228,5.0759,4.8287,4.4915,4.0671,3.4803,3.1074,2.792,2.4673,2.4016,2.4036,2.4036,2.5625,2.7604,2.9685,3.1629,3.5183,4.1716,4.3363,4.5751,5.0795,5.1428,5.1847,5.286,5.1247,5.0249,5.0582,4.9486,4.855,4.7972,4.7002,4.6453,4.6374,4.5489,4.4709,4.4108,4.4412,4.4132,4.3282,4.3767,4.3656,4.3014,4.3266,4.3267,4.2995,4.292,4.292,4.2976,4.2881,4.2899,4.2992,4.2803,4.2745,4.2745,4.2629,4.2153,4.1534,4.13,4.0582,3.9567,3.8561,3.7672,3.6718,3.5165,3.5235,3.6183,3.7638,3.7986,3.8268,3.9778,4.0135,3.9816,3.8749,3.8765,3.9065,3.9313,3.9356,3.9091,3.8149,3.8274,3.8379,3.7963,3.7723,3.758,3.758,3.698,3.6448,3.6294,3.6483,3.6056,3.4472,3.389,3.3045,3.1704,3.1132,3.0473,2.9573,2.8481,2.7807,2.7613,2.7015,2.6572,2.6348,2.6241,2.6067,2.583,2.5832,2.5551,2.4974,2.4974,2.4733,5.0493,5.162,5.1445,4.8305,4.4027,3.9355,3.4503,2.9927,2.6165,2.4379,2.4094,2.418,2.418,2.4324,2.5675,2.9479,3.0226,3.3031,4.0733,4.3158,4.5625,4.9607,5.1381,5.2332,5.2456,5.1299,5.0566,5.0598,4.9486,4.8781,4.8711,4.7247,4.6259,4.5957,4.4709,4.3857,4.3498,4.4097,4.4229,4.3833,4.4184,4.4001,4.3354,4.3388,4.3388,4.3336,4.3032,4.305,4.3232,4.2787,4.2629,4.2629,4.2566,4.2566,4.2609,4.2609,4.2512,4.2248,4.1337,4.0953,4.0636,3.9326,3.8642,3.7961,3.5926,3.6622,3.8071,3.7885,3.8705,3.9863,4.0747,4.0868,4.0571,3.9956,4.0227,4.0649,4.0869,4.0892,4.0737,4.0214,4.0166,4.0014,3.9577,3.9474,3.9462,3.9462,3.8918,3.8261,3.7538,3.8405,3.8607,3.7353,3.5987,3.4647,3.3292,3.3247,3.2839,3.1858,3.1574,3.1086,3.0276,2.9553,2.8747,2.7827,2.7389,2.6874,2.6226,2.6314,2.6175,2.5875,2.5875,2.5929,4.964,5.1274,5.122,4.8478,4.4498,3.9912,3.4739,3.0192,2.6511,2.4523,2.4161,2.419,2.419,2.4151,2.4945,2.7574,2.76,2.9436,3.5591,3.8053,4.1099,4.6174,4.831,4.9784,5.0808,5.0015,4.9452,4.9452,4.8526,4.819,4.8698,4.7242,4.6096,4.5426,4.4445,4.3924,4.4001,4.427,4.4327,4.4213,4.4544,4.4332,4.3642,4.364,4.3625,4.3543,4.3068,4.2995,4.3267,4.2881,4.2746,4.2767,4.2627,4.2727,4.2937,4.2647,4.2609,4.2598,4.2089,4.1899,4.1696,4.039,4.0217,4.0202,3.8317,3.8035,3.8614,3.967,4.0165,4.0588,4.1509,4.117,4.0525,4.0342,4.056,4.0967,4.1567,4.1765,4.1703,4.1276,4.1421,4.1421,4.0866,4.076,4.0692,4.0546,3.959,3.8907,3.9084,3.9077,3.8925,3.8607,3.7631,3.6483,3.5204,3.4687,3.4045,3.3104,3.2664,3.2066,3.1245,3.0528,2.9774,2.8922,2.8168,2.7639,2.7368,2.6723,2.6349,2.6242,2.6028,2.599,4.7204,4.9375,4.9961,4.7536,4.3852,3.9504,3.4487,3.019,2.6665,2.462,2.4199,2.4199,2.4209,2.4142,2.4571,2.6015,2.6003,2.7487,3.2328,3.4652,3.7773,4.297,4.5187,4.6866,4.8268,4.8357,4.8319,4.8319,4.7738,4.7548,4.794,4.6924,4.6007,4.5301,4.4569,4.4256,4.4397,4.4498,4.4544,4.453,4.4751,4.4535,4.3918,4.3836,4.3772,4.3695,4.3087,4.3013,4.3285,4.305,4.2938,4.2939,4.2883,4.3032,4.3214,4.2881,4.2769,4.2772,4.265,4.2566,4.2356,4.1446,4.1422,4.1573,4.058,3.9751,3.9437,4.0899,4.132,4.1486,4.2055,4.154,4.0902,4.0962,4.1064,4.1328,4.2083,4.2351,4.2351,4.2068,4.2292,4.2374,4.1945,4.1808,4.1706,4.1568,4.0697,4.0162,4.0504,4.0214,3.9954,3.9931,3.9193,3.8174,3.6755,3.5932,3.5281,3.4792,3.4158,3.3589,3.3122,3.2299,3.1429,3.0519,2.9644,2.8939,2.8442,2.7588,2.6971,2.6612,2.6358,2.6151,4.2814,4.5601,4.7461,4.5037,4.1462,3.7476,3.3437,2.9448,2.6153,2.4541,2.42,2.4209,2.4192,2.4143,2.4388,2.5273,2.602,2.8004,3.2391,3.4549,3.7007,4.0527,4.2602,4.4061,4.4876,4.643,4.7397,4.7397,4.7397,4.7055,4.6259,4.6203,4.6036,4.5707,4.5173,4.472,4.4397,4.472,4.4858,4.4815,4.4796,4.4595,4.4177,4.3934,4.3788,4.3775,4.316,4.305,4.3303,4.3303,4.3196,4.3032,4.3352,4.3437,4.3406,4.3388,4.3141,4.281,4.281,4.2671,4.2503,4.2465,4.199,4.1547,4.232,4.1779,4.0913,4.1056,4.1963,4.2769,4.2318,4.2151,4.2086,4.2086,4.1984,4.2008,4.2492,4.2706,4.2783,4.2783,4.2783,4.2783,4.2783,4.2668,4.2591,4.2591,4.267,4.2459,4.1702,4.226,4.2441,4.1665,4.0742,3.9502,3.7836,3.7065,3.6849,3.7232,3.6558,3.631,3.6624,3.5438,3.4163,3.2884,3.2144,3.0957,2.9282,2.9089,2.8337,2.7078,2.7078,2.6662,3.8544,4.0445,4.1214,3.9328,3.6994,3.4292,3.0931,2.8285,2.6093,2.457,2.4348,2.4393,2.4348,2.4365,2.5022,2.6989,2.7859,2.9226,3.1941,3.5224,3.8233,4.0626,4.4052,4.6335,4.6582,4.6051,4.5937,4.6544,4.6032,4.5843,4.6184,4.5634,4.5256,4.5148,4.4978,4.4833,4.4668,4.4783,4.4815,4.4719,4.4719,4.464,4.4463,4.4151,4.4136,4.4317,4.3726,4.3658,4.3977,4.374,4.3592,4.3542,4.356,4.356,4.3493,4.3213,4.2977,4.2791,4.2692,4.2589,4.2503,4.2548,4.2009,4.1489,4.2338,4.1956,4.1357,4.1972,4.251,4.2699,4.1869,4.2099,4.2404,4.1725,4.1976,4.2432,4.257,4.2706,4.2822,4.2861,4.2862,4.2824,4.2688,4.2728,4.2767,4.2629,4.2277,4.2138,4.2446,4.2228,4.2156,4.2464,4.174,4.0723,3.9501,3.8291,3.7864,3.8491,3.7828,3.745,3.7521,3.6557,3.5594,3.4643,3.3424,3.2317,3.1272,3.0383,2.9117,2.7506,2.7039,2.6636,3.3848,3.5771,3.6541,3.5252,3.3647,3.1726,2.9218,2.7356,2.5809,2.4589,2.4428,2.4486,2.4455,2.4468,2.5001,2.6589,2.764,2.892,3.0791,3.4375,3.7847,4.0684,4.3672,4.5634,4.5975,4.5331,4.5122,4.5672,4.5217,4.5129,4.5635,4.5186,4.487,4.484,4.4846,4.4821,4.4757,4.4757,4.4738,4.4659,4.4659,4.4632,4.4551,4.4244,4.4229,4.4416,4.3949,4.3899,0.0,4.4038,4.3899,4.3756,4.3793,4.3679,4.3493,4.3231,4.3032,4.2865,4.2769,4.2688,4.2625,4.2667,4.2305,4.196,4.2465,4.2287,4.2038,4.2465,4.2747,4.2755,4.2095,4.2366,4.2638,4.1996,4.2248,4.2609,4.2609,4.2706,4.2822,4.2843,4.2881,4.2862,4.2728,4.2824,4.2862,4.2728,4.239,4.2339,4.2847,4.2466,4.2339,4.2865,4.2194,4.1451,4.0816,3.9536,3.9031,3.9662,3.8815,3.8347,3.8453,3.7662,3.6783,3.5942,3.4977,3.39,3.2722,3.1219,2.9726,2.8285,2.7589,2.7062,0.0,3.1445,3.3018,3.2267,3.1053,2.9617,2.8012,2.6585,0.0,2.4587,2.4479,2.4555,2.4603,2.4561,2.4631,2.493,2.6262,2.7895,2.9653,3.3011,3.6812,4.0991,4.2196,4.2962,4.3701,4.4459,4.4895,4.4895,4.4914,4.4877,4.4796,4.4858,4.4821,4.4699,4.4764,4.4745,4.4699,4.4699,4.4659,4.4592,4.4592,4.4551,4.4501,4.4229,4.4166,4.4206,4.398,4.3899,4.3989,4.4231,4.4099,4.3775,4.3999,4.3807,4.3388,4.3388,4.3213,4.2977,4.2995,4.2901,4.2783,4.2731,4.2767,4.2764,4.2649,4.2688,4.2764,4.2629,4.2747,4.2881,4.2822,4.2783,4.2803,4.2783,4.2688,4.2609,4.2609,4.2725,4.2803,4.2803,4.2861,4.2901,4.2901,4.2901,4.2901,4.2901,4.2901,4.2901,4.2901,4.2901,4.2901,4.2901,4.223,4.1795,4.1795,4.0704,4.0273,4.0743,3.9626,3.9085,3.946,3.8716,3.7832,3.69,3.6538,3.5492,3.367,3.169,3.0283,2.942,2.8679,2.7904,2.5371,0.0,2.7042,2.6321,2.6306,2.6266,0.0,2.5458,2.5501,2.485,2.476,2.4985,2.5615,2.5257,2.5716,2.824,2.9898,3.1553,3.3515,3.7842,4.167,4.3908,4.4886,4.5174,4.468,4.4781,4.4895,4.4895,4.4846,4.4827,4.4796,4.4808,4.4757,4.4632,4.4699,4.4699,4.4619,4.4619,4.4592,4.451,4.451,4.4515,4.4501,4.4426,4.4435,4.4505,4.4486,4.4541,4.4576,4.4595,4.4426,4.4143,4.4045,4.3714,4.325,4.325,4.3013,4.2728,4.2863,4.2862,4.2693,4.2081,4.2315,4.2783,4.265,4.2689,4.2764,4.2629,4.2747,4.2862,4.2688,4.2725,4.2764,4.2668,4.2629,4.2629,4.2725,4.2783,4.2822,4.2862,4.29,4.2901,4.2901,4.2901,4.2901,4.2901,4.2901,4.2901,4.2901,4.2901,4.2901,4.2901,4.2719,4.2611,4.2611,4.1325,4.0799,4.1415,4.0709,4.0238,4.0256,3.9514,3.8683,3.7748,3.6702,3.5598,3.4446,3.2774,3.1564,3.0745,3.0056,2.93,2.4181,2.4729,2.5212,2.4871,2.4865,2.4968,2.5064,2.4906,2.4743,2.4783,2.484,2.5014,2.542,2.5572,2.635,2.8457,3.0503,3.3133,3.6881,4.007,4.277,4.4775,4.5402,4.5461,4.4964,4.4895,4.4883,4.4846,4.4808,4.4802,4.4764,4.477,4.4751,4.4605,4.4672,4.4659,4.457,4.4551,4.4542,4.4501,4.4501,4.4501,4.4501,4.4501,4.4542,4.4605,4.4632,4.4712,4.4783,4.468,4.4412,4.405,4.3889,4.3461,4.2919,4.2919,4.2823,4.2707,4.2823,4.2861,4.277,4.2336,4.2481,4.2823,4.2709,4.2747,4.2948,4.347,4.3728,4.3738,4.3198,4.3149,4.3156,4.2778,4.2688,4.2707,4.2823,4.2842,4.2861,4.2882,4.2901,4.2901,4.2901,4.2901,4.2901,4.2901,4.2901,4.2901,4.2901,4.2901,4.2901,4.2901,4.2901,4.2901,4.2901,4.2159,4.1851,4.223,4.1359,4.0889,4.1035,3.9985,3.8954,3.8019,3.6933,3.5936,3.5013,3.3804,3.2616,3.1466,3.1104,3.0561,2.4174,2.4948,2.5649,2.5606,2.5132,2.4899,2.5714,2.4821,2.4004,2.4707,2.4986,2.511,2.5033,2.6062,2.7183,2.7945,3.0635,3.4541,3.9967,4.1257,4.2438,4.4542,4.4903,4.491,4.4761,4.4843,4.487,4.4815,4.4783,4.4745,4.4712,4.4757,4.4751,4.4605,4.4672,4.4632,4.4501,4.4501,4.4501,4.4501,4.4515,4.4515,4.4501,4.4515,4.4556,4.4592,4.4605,4.4685,4.4783,4.4685,4.4341,4.3881,4.3742,4.3338,4.2787,4.2728,4.2857,4.3042,4.3003,4.2933,4.2901,4.2901,4.2901,4.2918,4.2986,4.3023,4.3293,4.451,4.4761,4.4518,4.3819,4.3645,4.3494,4.2926,4.2803,4.2822,4.2862,4.2882,4.2901,4.2901,4.2901,4.2901,4.2901,4.2901,4.2901,4.2901,4.2901,4.2901,4.2901,4.2901,4.2901,4.2901,4.29,4.2881,4.2881,4.2881,4.2844,4.2844,4.1869,4.1417,4.1668,4.0202,3.8991,3.8165,3.7322,3.6446,3.559,3.4909,3.3729,3.2153,3.2153,3.1745,2.4009,2.5619,2.6626,2.5744,2.5523,2.5573,2.5841,2.5325,2.4847,2.5013,2.5602,2.6083,2.6077,2.7865,2.9644,3.0487,3.4696,3.919,4.3024,4.3721,4.3942,4.4279,4.491,4.4973,4.4064,4.4566,4.4931,4.4808,4.4751,4.4712,4.4712,4.4757,4.4751,4.4605,4.4672,4.4632,4.4501,4.4501,4.4501,4.4501,4.457,4.4551,4.4501,4.4551,4.4592,4.4605,4.4659,4.4738,4.4815,4.4789,4.4589,4.4299,4.4158,4.3946,4.3656,4.332,4.3616,4.4108,4.3839,4.3385,4.2901,4.2901,4.2901,4.3027,4.3696,4.3778,4.3856,4.4798,4.4157,4.3332,4.3738,4.3412,4.2926,4.282,4.2803,4.2803,4.2822,4.2861,4.2901,4.2901,4.2901,4.2901,4.2901,4.2901,4.2901,4.2901,4.2901,4.2901,4.2901,4.2901,4.2901,4.2901,4.2861,4.2822,4.2822,4.2707,4.2649,4.2649,4.2621,4.2317,4.1648,4.0077,3.9139,3.8942,3.8133,3.7289,3.6414,3.6288,3.5377,3.3757,3.3757,3.2969,2.3129,2.4479,2.5758,2.5809,2.6599,2.7505,2.8059,2.6946,2.6187,2.7522,2.771,2.779,2.8232,3.0392,3.3018,3.578,3.8514,4.1199,4.3781,4.4135,4.4308,4.4738,4.5111,4.5126,4.4554,4.441,4.4268,4.4115,4.3605,4.3289,4.3289,4.3328,4.3535,4.3994,4.4038,4.3999,4.3912,4.3912,4.4124,4.4501,4.4565,4.4565,4.4501,4.4605,4.4632,4.4605,4.4672,4.4461,4.4084,4.4064,4.3909,4.3681,4.3557,4.3639,4.386,4.3831,4.4215,4.4639,4.4086,4.3687,4.3367,4.3008,4.2881,4.2897,4.3294,4.3268,4.331,4.4063,4.4386,4.4438,4.4404,4.4399,4.4235,4.3512,4.3354,4.3248,4.2914,4.2881,4.2901,4.2901,4.2901,4.2901,4.2901,4.2901,4.2901,4.2901,4.2901,4.2901,4.2901,4.2901,4.2901,4.2901,4.2842,4.2803,4.2803,4.2686,4.2609,4.2609,4.2689,4.2348,4.1535,4.0364,3.9499,3.8995,3.8205,3.7363,3.6487,3.6487,3.5915,3.4789,3.431,3.3736,2.2787,2.3734,2.4998,2.6176,2.7331,2.8613,3.0273,2.8962,2.8147,3.0763,3.0776,3.0369,3.0586,3.2786,3.5919,4.0043,4.1456,4.2603,4.425,4.4442,4.4653,4.5304,4.5199,4.5004,4.4843,4.3992,4.3391,4.3184,4.2504,4.2102,4.2102,4.2115,4.2442,4.3152,4.3171,4.3133,4.3068,4.3068,4.3474,4.4228,4.431,4.4404,4.4537,4.4672,4.4585,4.4369,4.4604,4.414,4.3215,4.3384,4.3363,4.3192,4.2866,4.3055,4.361,4.4327,4.466,4.47,4.4509,4.4207,4.3832,4.3352,4.3152,4.3075,4.2857,4.2832,4.2949,4.3261,4.4285,4.5225,4.4922,4.5054,4.5086,4.4276,4.394,4.3674,4.3221,4.2989,4.2881,4.29,4.2844,4.2843,4.2881,4.2843,4.2843,4.2843,4.2843,4.2843,4.2843,4.2843,4.2843,4.2843,4.2783,4.2724,4.2686,4.2589,4.253,4.253,4.257,4.232,4.169,4.0702,3.9837,3.9153,3.8366,3.7542,3.6684,3.6899,3.6505,3.5627,3.4952,3.4609,2.3978,2.482,2.5482,2.7166,2.6988,2.7424,3.1412,3.1133,3.0968,3.4255,3.4832,3.4273,3.2783,3.453,3.7343,4.0788,4.2785,4.4298,4.542,4.558,4.5603,4.5661,4.4897,4.4259,4.4013,4.3087,4.243,4.2222,4.214,4.2102,4.2102,4.2165,4.2203,4.2196,4.2196,4.2158,4.2111,4.2111,4.2551,4.3476,4.3554,4.3976,4.4699,4.4745,4.4361,4.363,4.4436,4.3851,4.2366,4.3221,4.3585,4.3485,4.2599,4.244,4.2926,4.473,4.479,4.4189,4.5564,4.5101,4.3922,4.3984,4.4005,4.3859,4.3057,4.3248,4.358,4.2859,4.3209,4.3954,4.4779,4.4375,4.3936,4.4746,4.4335,4.3796,4.3744,4.3248,4.2841,4.29,4.2747,4.2668,4.2783,4.2688,4.2629,4.2629,4.2629,4.2629,4.2629,4.2629,4.2629,4.2629,4.2566,4.2465,4.2348,4.2328,4.2328,4.2328,4.251,4.2532,4.2432,4.0929,4.0012,3.9825,3.9152,3.8383,3.7523,3.8347,3.79,3.6327,3.6256,3.5916,2.2482,2.3833,2.5265,2.5979,2.7014,2.8867,3.2645,3.3027,3.3536,3.6854,3.7524,3.7467,3.7382,3.7761,3.9001,4.181,4.3292,4.4423,4.538,4.507,4.4951,4.5451,4.4806,4.4419,4.4743,4.3403,4.2432,4.2252,4.1174,4.0547,4.0547,4.0572,4.081,4.1331,4.1349,4.1362,4.1381,4.1343,4.1519,4.1901,4.2398,4.2774,4.3036,4.375,4.3844,4.3517,4.3894,4.3353,4.2184,4.1995,4.1907,4.197,4.2487,4.3091,4.3758,4.4491,4.4698,4.4595,4.4723,4.4385,4.3922,4.4056,4.4075,4.409,4.429,4.4041,4.3625,4.3416,4.3082,4.3015,4.4007,4.4725,4.5192,4.5101,4.5212,4.5106,4.4175,4.3742,4.3417,4.2932,4.2707,4.2609,4.2686,4.2629,4.2609,4.2609,4.2609,4.2609,4.2609,4.2609,4.2609,4.2609,4.2546,4.2463,4.2308,4.2308,4.2308,4.2308,4.2369,4.2389,4.2366,4.1391,4.0548,3.9895,3.9241,3.8473,3.7595,3.7972,3.7829,3.7202,3.6772,3.6447,2.2148,2.3195,2.4602,2.5719,2.7663,3.0285,3.4018,3.4814,3.5892,3.9747,3.991,3.9518,4.0082,3.9593,3.983,4.1991,4.3101,4.402,4.4911,4.4575,4.4438,4.4995,4.4591,4.4325,4.4475,4.3061,4.1843,4.1153,3.9912,3.9082,3.8819,3.9045,3.9451,4.0064,4.0346,4.0502,4.0558,4.0766,4.0766,4.0577,4.1582,4.2083,4.2101,4.2819,4.3133,4.3083,4.3133,4.2636,4.1744,4.1148,4.0842,4.0896,4.2493,4.3379,4.3796,4.407,4.4586,4.5114,4.4768,4.4496,4.4259,4.4436,4.4455,4.4467,4.4778,4.4491,4.4001,4.3789,4.3059,4.2532,4.3212,4.436,4.5275,4.5057,4.5243,4.5173,4.4153,4.3718,4.3372,4.2833,4.2609,4.251,4.2568,4.253,4.251,4.251,4.251,4.251,4.251,4.251,4.251,4.251,4.2447,4.2405,4.2308,4.2308,4.2308,4.2308,4.2308,4.2308,4.2308,4.1658,4.0997,4.0365,3.9906,3.9262,3.8382,3.8743,3.8654,3.8061,3.7648,3.7341,2.3568,2.3274,2.3536,2.6886,2.8981,3.1331,3.5545,3.6498,3.7947,4.3034,4.2068,4.028,4.0215,3.9593,3.96,4.1141,4.2183,4.3139,4.4145,4.4281,4.4286,4.4286,4.4215,4.3777,4.2792,4.174,4.0378,3.8648,3.8371,3.7943,3.7148,3.785,3.83,3.83,3.9138,3.9589,3.9589,4.0384,4.0384,3.9608,4.1229,4.2064,4.2184,4.2203,4.2203,4.2203,4.2203,4.1713,4.091,4.091,4.0714,4.0611,4.2601,4.3061,4.2694,4.3576,4.455,4.5525,4.6081,4.5696,4.5006,4.5231,4.5291,4.5126,4.4285,4.4471,4.4782,4.387,4.3059,4.2503,4.2503,4.2974,4.3718,4.4575,4.4205,4.3611,4.3593,4.302,4.2524,4.2607,4.245,4.2346,4.2483,4.2405,4.2308,4.2308,4.2308,4.2308,4.2308,4.2308,4.2308,4.2308,4.2308,4.2308,4.2308,4.2308,4.2308,4.2308,4.2308,4.2308,4.2308,4.1658,4.1305,4.1305,4.1365,4.097,4.0104,4.1103,4.0652,3.8922,3.9049,3.8707,2.3271,2.4178,2.5888,2.8014,3.0691,3.3611,3.6653,3.7339,3.8456,4.2374,4.1609,4.0406,4.094,3.9976,3.941,4.0406,4.1304,4.2393,4.3886,4.3072,4.2554,4.3177,4.2726,4.2239,4.1896,4.1529,4.0807,3.9575,3.8848,3.8037,3.7148,3.7336,3.7455,3.7455,3.8263,3.87,3.8759,3.9557,3.9858,3.9669,4.0691,4.1167,4.1255,4.2523,4.2743,4.2128,4.2178,4.1713,4.0879,4.0656,4.0963,4.1673,4.2237,4.2383,4.2344,4.2958,4.3159,4.3196,4.3718,4.3748,4.3638,4.4239,4.4418,4.4538,4.5364,4.4862,4.4088,4.4369,4.3426,4.2366,4.2366,4.2524,4.2902,4.3855,4.4345,4.4417,4.386,4.3496,4.3133,4.2633,4.2407,4.2308,4.2346,4.2346,4.2308,4.2308,4.2308,4.2308,4.2308,4.2308,4.2308,4.2308,4.2308,4.2308,4.2308,4.2308,4.2308,4.2308,4.2405,4.2405,4.2308,4.2192,4.1819,4.1169,4.1268,4.0623,3.9185,4.0144,4.0075,3.9049,3.9229,3.9191,2.3045,2.4793,2.7452,2.9408,3.2168,3.5081,3.7627,3.8725,3.9986,4.2717,4.1657,4.0492,4.1294,4.0157,3.9449,4.0549,4.1151,4.1839,4.287,4.2144,4.1695,4.2269,4.1867,4.1542,4.1543,4.1141,4.0326,3.9014,3.8034,3.7092,3.6152,3.6453,3.661,3.661,3.7399,3.8005,3.836,3.9169,3.9633,3.9657,4.0428,4.081,4.0873,4.1977,4.2555,4.2699,4.2712,4.1946,4.0739,4.1086,4.1594,4.2116,4.2321,4.2371,4.2358,4.2741,4.2667,4.2441,4.2886,4.3213,4.3539,4.4086,4.435,4.4642,4.558,4.4805,4.3706,4.4187,4.3355,4.2308,4.2308,4.2308,4.2453,4.3059,4.3566,4.3799,4.3315,4.3148,4.2964,4.2514,4.2366,4.2308,4.2366,4.2366,4.2366,4.2366,4.2328,4.2308,4.2366,4.2366,4.2366,4.2366,4.2366,4.2366,4.2366,4.2366,4.2366,4.2366,4.2526,4.2566,4.243,4.2566,4.2313,4.1669,4.181,4.1363,4.0298,4.0936,4.0832,4.0094,3.9878,3.9624,2.3101,2.5327,2.8422,3.0987,3.3673,3.6317,3.8782,4.0406,4.182,4.3357,4.1868,4.0519,4.1256,4.0137,3.9534,4.0931,4.1208,4.1266,4.1266,4.1218,4.1198,4.1255,4.1265,4.1237,4.114,4.0444,3.9259,3.7441,3.6448,3.5493,3.4548,3.5176,3.5597,3.5661,3.6441,3.7268,3.8075,3.8951,3.9364,3.9383,4.0178,4.0597,4.0678,4.0829,4.1801,4.3371,4.336,4.2294,4.0617,4.1974,4.2421,4.2297,4.2759,4.2791,4.2617,4.2741,4.2732,4.2711,4.3075,4.3579,4.4125,4.44,4.4702,4.4983,4.5127,4.4371,4.3489,4.356,4.2959,4.2308,4.2308,4.2308,4.2328,4.2328,4.2308,4.2308,4.2308,4.2308,4.2308,4.2308,4.2361,4.2438,4.2503,4.2577,4.2615,4.2562,4.2407,4.2387,4.2503,4.2503,4.2483,4.2503,4.2483,4.2483,4.2503,4.2503,4.2524,4.2524,4.2704,4.2746,4.2629,4.2727,4.2706,4.2544,4.2724,4.271,4.2521,4.2728,4.2388,4.1593,4.0871,4.0095,2.4728,2.6655,2.948,3.2638,3.6356,3.969,4.1552,4.1246,4.0664,4.1027,4.0673,4.0358,4.054,3.9727,3.8906,3.8572,3.9088,3.9546,3.9546,3.8981,3.8605,3.8623,3.9223,3.907,3.7732,3.8635,3.8545,3.6672,3.5761,3.4841,3.3794,3.3274,3.3271,3.3835,3.4641,3.5496,3.6404,3.7242,3.7636,3.7655,3.845,3.8881,3.899,4.0344,4.1227,4.1657,4.2115,4.1975,4.1488,4.243,4.3026,4.3339,4.3247,4.293,4.2465,4.2086,4.1788,4.1625,4.2161,4.2374,4.2632,4.3907,4.3768,4.3299,4.4519,4.3808,4.2703,4.3346,4.2932,4.2308,4.2308,4.2409,4.253,4.253,4.2409,4.2308,4.2308,4.2308,4.2308,4.2308,4.2933,4.3288,4.2677,4.323,4.3546,4.2914,4.2668,4.255,4.257,4.2447,4.2366,4.2483,4.2405,4.2407,4.2568,4.2588,4.2627,4.2743,4.2823,4.2862,4.2843,4.2862,4.2862,4.2805,4.2862,4.2537,4.1903,4.2666,4.2538,4.1593,4.1651,4.1142,2.4115,2.7025,3.1085,3.4835,3.8056,4.053,4.1399,4.0597,3.968,3.968,4.0014,4.0167,3.9747,3.9317,3.8732,3.7937,3.8472,3.8885,3.8523,3.8438,3.8287,3.7882,3.8597,3.8586,3.7297,3.797,3.7863,3.6415,3.5549,3.466,3.3658,3.3496,3.3436,3.3404,3.4159,3.4993,3.5897,3.631,3.6727,3.7145,3.7152,3.7209,3.7373,3.9479,4.0196,3.9894,4.1393,4.1887,4.1716,4.2549,4.2993,4.307,4.2498,4.1871,4.1259,4.1282,4.0711,4.005,4.0598,4.1265,4.1995,4.2832,4.3171,4.3382,4.4173,4.3481,4.2539,4.2949,4.2708,4.2328,4.243,4.253,4.2629,4.2709,4.267,4.2591,4.2591,4.2591,4.2591,4.2591,4.3014,4.3254,4.2895,4.3281,4.3483,4.3066,4.2843,4.2785,4.2841,4.2745,4.2667,4.2645,4.2609,4.2611,4.2688,4.2727,4.2804,4.2936,4.3086,4.3105,4.305,4.3303,4.3249,4.2901,4.2976,4.2832,4.2377,4.2849,4.2849,4.2359,4.2068,4.1668,2.3019,2.7109,3.2458,3.6489,3.8686,3.9881,4.0034,3.9412,3.8782,3.8782,3.924,3.9422,3.8706,3.8572,3.8329,3.7567,3.8065,3.8291,3.7548,3.8019,3.8189,3.7532,3.8172,3.8353,3.7532,3.7403,3.7022,3.6166,3.5091,3.4181,3.3524,3.38,3.3705,3.31,3.3811,3.4604,3.5469,3.5476,3.5825,3.6539,3.5813,3.5679,3.6132,3.8184,3.8867,3.8561,4.0891,4.1734,4.154,4.2383,4.262,4.2344,4.1561,4.0785,4.0144,4.0472,3.9814,3.8813,3.9263,4.0287,4.1469,4.1905,4.2757,4.3633,4.3942,4.3376,4.265,4.265,4.2532,4.2432,4.2609,4.2688,4.2765,4.2901,4.2994,4.2976,4.2901,4.2901,4.292,4.2958,4.2995,4.3123,4.3397,4.3287,4.3178,4.3178,4.305,4.2994,4.3105,4.3104,4.2993,4.2878,4.288,4.2881,4.2879,4.2919,4.3012,4.3141,4.3323,4.3375,4.3339,4.3697,4.3664,4.3105,4.3285,4.3375,4.3251,4.3251,4.3251,4.3196,4.2504,4.2086,2.337,2.7529,3.2325,3.5793,3.7368,3.8247,3.9011,3.8495,3.7865,3.7865,3.7406,3.6978,3.6863,3.6825,3.6547,3.5693,3.6288,3.6547,3.5673,3.571,3.576,3.5653,3.6458,3.6657,3.5737,3.5649,3.5545,3.5365,3.3199,3.2122,3.2626,3.1377,3.089,3.1409,3.2137,3.2937,3.3815,3.3761,3.3794,3.3918,3.3786,3.45,3.5931,3.6269,3.7212,3.8674,4.0332,4.103,4.1048,4.1809,4.2088,4.2028,4.1683,4.1285,4.0838,4.005,3.9553,3.9319,3.9448,3.9628,4.0154,4.2321,4.2559,4.2265,4.3658,4.3514,4.2862,4.2862,4.2825,4.2843,4.2844,4.2994,4.3123,4.3142,4.3286,4.3322,4.2994,4.2901,4.2976,4.3211,4.3384,4.381,4.477,4.4093,4.3445,4.3445,4.3268,4.3178,4.3178,4.3031,4.2975,4.3049,4.2975,4.2975,4.3123,4.3142,4.3214,4.3359,4.3446,4.3599,4.3876,4.3682,4.3666,4.3844,4.4099,4.4114,4.3878,4.3878,4.3649,4.3196,4.3247,4.2826,2.4771,2.7325,3.0287,3.414,3.5712,3.6642,3.796,3.7636,3.7024,3.7024,3.6347,3.5927,3.6405,3.65,3.64,3.6102,3.5878,3.5835,3.6025,3.6029,3.5676,3.474,3.5817,3.5921,3.4088,3.4749,3.4883,3.3872,3.3203,3.2569,3.1924,3.1602,3.1154,3.0498,3.1164,3.1723,3.2091,3.159,3.1805,3.2737,3.3727,3.4597,3.5375,3.63,3.7362,3.8493,3.9657,4.0422,4.0873,4.128,4.1406,4.1272,4.0734,4.0303,3.9926,3.9475,3.9116,3.8844,3.8879,3.9102,3.9636,4.1197,4.1778,4.2087,4.3232,4.3341,4.3068,4.3068,4.2994,4.2938,4.305,4.3123,4.3268,4.3582,4.3582,4.3496,4.3494,4.3374,4.3339,4.3642,4.3772,4.3966,4.4453,4.3972,4.3515,4.3515,4.341,4.3375,4.3375,4.3286,4.3214,4.316,4.316,4.3196,4.3214,4.3269,4.3358,4.3464,4.348,4.3565,4.3716,4.3765,4.3862,4.4005,4.3936,4.3841,4.3716,4.391,4.3894,4.3647,4.3886,4.3776,2.4692,2.6266,2.8186,3.1553,3.333,3.4674,3.6375,3.6126,3.566,3.608,3.5488,3.5171,3.6003,3.6175,3.6198,3.6293,3.5691,3.5384,3.5936,3.596,3.5404,3.3947,3.4875,3.4798,3.2675,3.3604,3.3796,3.2489,3.2783,3.2554,3.1458,3.1779,3.1378,3.0091,3.0728,3.1078,3.1088,3.0376,3.0669,3.1911,3.3213,3.4196,3.4926,3.6187,3.724,3.812,3.8966,3.9801,4.0541,4.0639,4.0639,4.054,4.0207,3.9858,3.9522,3.9727,3.94,3.886,3.886,3.9008,3.9339,4.0339,4.1155,4.1953,4.2976,4.3286,4.3286,4.3286,4.3178,4.3123,4.3488,4.3632,4.3825,4.4207,4.4126,4.3956,4.3883,4.3795,4.3777,4.3955,4.4048,4.4079,4.4002,4.3732,4.3515,4.3515,4.3565,4.3632,4.3632,4.3681,4.3647,4.3444,4.3497,4.348,4.3286,4.3376,4.3446,4.3497,4.3515,4.3549,4.3615,4.3798,4.3939,4.4091,4.3779,4.3647,4.3728,4.3983,4.4091,4.4106,4.4303,4.4397,2.1627,2.402,2.6727,2.7759,2.9822,3.2057,3.3804,3.3528,3.3349,3.4934,3.4617,3.4312,3.5114,3.5267,3.5267,3.5275,3.5229,3.4942,3.4232,3.4148,3.3826,3.2972,3.2934,3.2627,3.1663,3.1647,3.1656,3.158,3.0835,3.0682,3.1362,3.0713,3.028,3.0185,3.091,3.1274,3.1274,3.1057,3.0977,3.1053,3.1147,3.2458,3.4809,3.4964,3.5902,3.7482,3.8291,3.9078,3.9769,3.9762,3.9838,4.003,4.0821,4.0899,4.0703,4.148,4.1065,4.0118,4.0118,3.9544,3.9088,4.0655,4.1169,4.1427,4.302,4.3479,4.3479,4.3479,4.348,4.3645,4.4434,4.4858,4.5103,4.5138,4.5183,4.4912,4.3781,4.3965,4.4275,4.4048,4.4206,4.4289,4.4048,4.3732,4.3515,4.3515,4.3781,4.3974,4.3974,4.4192,4.4246,4.3986,4.3974,4.3846,4.3496,4.3497,4.3497,4.3515,4.3515,4.3649,4.3958,4.3682,4.3793,4.4374,4.4106,4.4091,4.4341,4.4374,4.4388,4.4388,4.4383,4.4397,2.1448,2.2724,2.4493,2.6435,2.7605,2.8836,3.1052,3.1752,3.2088,3.2707,3.3012,3.3253,3.354,3.3597,3.3941,3.5037,3.4304,3.3692,3.3956,3.3525,3.2871,3.2058,3.1967,3.1609,3.075,3.1181,3.1274,3.0701,3.0854,3.0873,3.0643,3.0357,2.9937,2.9376,2.9572,2.9437,2.8879,2.9813,3.0282,3.0301,3.0858,3.2199,3.4177,3.4755,3.5637,3.6768,3.8144,3.8852,3.9088,3.9713,3.9933,3.9987,4.0908,4.1157,4.1123,4.1929,4.1556,4.066,4.066,4.0032,3.9434,4.0527,4.1456,4.2226,4.2818,4.3594,4.421,4.3913,4.383,4.3934,4.438,4.4606,4.4695,4.4695,4.4848,4.4809,4.4214,4.4528,4.4782,4.4344,4.421,4.4106,4.402,4.391,4.383,4.383,4.4075,4.4265,4.4265,4.4346,4.4289,4.4036,4.4005,4.3862,4.3513,4.3515,4.3515,4.3515,4.3515,4.3548,4.3666,4.3565,4.3697,4.4136,4.4048,4.4136,4.4397,4.4572,4.465,4.4663,4.4875,4.4976,2.1208,2.2067,2.3513,2.5231,2.5883,2.6671,2.8894,2.9818,3.0385,3.0949,3.1469,3.192,3.2191,3.2053,3.2453,3.4082,3.3471,3.2855,3.3096,3.2401,3.1549,3.0736,3.0631,3.0178,2.9046,2.9956,3.0152,2.9,2.9688,3.0044,2.9784,2.9765,2.949,2.8911,2.9143,2.8853,2.7985,2.9296,2.9964,2.9964,3.0552,3.1724,3.3418,3.4014,3.488,3.6014,3.7413,3.8308,3.8807,3.9715,4.0067,4.0122,4.1023,4.1527,4.1806,4.2338,4.2112,4.1495,4.1192,4.0465,3.9804,4.0891,4.1769,4.2541,4.31,4.3893,4.4527,4.4224,4.4136,4.4237,4.4683,4.4884,4.4985,4.4993,4.5046,4.5027,4.4866,4.4897,4.4894,4.4699,4.4307,4.4048,4.4198,4.4093,4.4005,4.4005,4.4289,4.4533,4.4533,4.4643,4.4552,4.4162,4.4192,4.4042,4.3531,4.3515,4.3515,4.3515,4.3599,4.3615,4.3496,4.3599,4.3781,4.4005,4.4094,4.4265,4.4533,4.4714,4.4856,4.4969,4.5194,4.5307,0.0,0.0,0.0,2.3959,2.4605,2.5658,2.7319,2.7666,2.8102,2.9746,3.0061,3.0261,3.1055,3.0648,3.074,3.2301,3.2708,3.2487,3.1506,3.0682,2.9898,2.9051,2.8928,2.8254,2.6632,2.7955,2.8215,2.6555,2.7243,2.8077,2.8853,2.8911,2.893,2.893,2.9765,2.9784,2.8949,2.9713,3.0102,3.0095,3.0102,3.0971,3.2589,3.2661,3.3616,3.5248,3.6118,3.7364,3.8841,3.9717,4.0157,4.0377,4.1208,4.203,4.2775,4.2813,4.2794,4.2641,4.1781,4.0813,4.0198,4.1768,4.2133,4.2275,4.389,4.4397,4.4435,4.4416,4.4397,4.4585,4.5397,4.583,4.6101,4.6156,4.5884,4.5622,4.5693,4.5026,4.4584,4.5108,4.4544,4.4135,4.4595,4.4315,4.4017,4.4017,4.4484,4.48,4.48,4.5117,4.5091,4.4508,4.4622,4.4434,4.3603,4.3533,4.355,4.3515,4.383,4.3878,4.3531,4.3846,4.4002,4.4002,4.4279,4.4533,4.4788,4.48,4.4969,4.5307,4.5307,4.5307,2.1609,0.0,0.0,0.0,0.0,0.0,2.4817,2.5493,2.6203,2.7304,2.7937,2.8365,2.8579,2.8592,2.8681,2.9034,3.0177,3.0918,3.0631,3.0374,3.0109,2.9879,2.9273,2.8713,2.8249,2.8617,2.8465,2.7415,2.8096,2.8669,2.8891,2.949,2.9841,2.9841,3.007,3.0056,2.9773,2.9987,3.0098,3.0095,3.0098,3.0971,3.2599,3.2676,3.3616,3.5248,3.6118,3.7064,3.8069,3.8946,3.9709,4.0435,4.1877,4.2202,4.2011,4.3233,4.2908,4.182,4.1571,4.1313,4.113,4.1578,4.2758,4.3983,4.3863,4.4495,4.52,4.4794,4.4688,4.4802,4.5261,4.5449,4.5524,4.5546,4.5758,4.598,4.5993,4.5458,4.5025,4.5172,4.4544,4.4048,4.4175,4.4414,4.4591,4.4591,4.491,4.5162,4.5162,4.5574,4.5729,4.5298,4.5664,4.5516,4.445,4.4583,4.4473,4.3899,4.4117,4.4246,4.4158,4.4231,4.4289,4.4289,4.4546,4.4726,4.4788,4.5045,4.5205,4.5307,4.5307,4.5307,0.0,0.0,2.4029,2.3906,0.0,0.0,2.4447,2.4946,2.5378,2.5852,2.6536,2.7062,2.7102,2.7533,2.7754,2.7281,2.839,2.9286,2.9254,2.9174,2.8987,2.8657,2.8452,2.8083,2.7408,2.7663,2.7529,2.6727,2.709,2.7657,2.8363,2.9535,3.0032,2.9669,3.0013,3.0006,2.9608,2.9959,3.0142,3.0147,3.0142,3.0836,3.2161,3.2539,3.3425,3.4751,3.5583,3.6623,3.7731,3.8247,3.9183,4.0435,4.1743,4.1953,4.1609,4.2603,4.2335,4.1495,4.1495,4.1495,4.1609,4.2316,4.3416,4.4501,4.4745,4.5361,4.5906,4.5592,4.5277,4.5217,4.6105,4.5812,4.5373,4.5717,4.558,4.5568,4.624,4.551,4.4915,4.5568,4.4769,4.4116,4.4451,4.4669,4.4763,4.465,4.5011,4.5379,4.5597,4.6004,4.629,4.6339,4.621,4.5842,4.5166,4.4883,4.4588,4.4185,4.443,4.4519,4.4397,4.4506,4.4506,4.4397,4.4663,4.4868,4.5011,4.5194,4.5307,4.5307,4.5307,4.5307,0.0,0.0,0.0,2.5116,2.4876,0.0,2.522,2.5341,2.5317,2.5255,2.5742,2.6212,2.6269,2.7009,2.7354,2.6502,2.7089,2.7658,2.7775,2.7676,2.7338,2.6632,2.7084,2.6906,2.5472,2.5971,2.606,2.5256,2.5281,2.602,2.7599,2.9185,2.9739,2.9037,2.9777,2.9815,2.9037,2.9796,3.0197,3.0197,3.0197,3.0655,3.1515,3.2336,3.3177,3.4052,3.4846,3.6146,3.7693,3.7693,3.8725,4.0377,4.1285,4.159,4.1514,4.1609,4.1571,4.1495,4.1495,4.1552,4.1896,4.3491,4.4064,4.4407,4.5908,4.6424,4.65,4.65,4.5927,4.564,4.715,4.6481,4.5583,4.6214,4.5526,4.5082,4.6425,4.5383,4.4609,4.6043,4.5108,4.4318,4.5044,4.4982,4.4751,4.4479,4.4898,4.5456,4.6025,4.6366,4.6774,4.7321,4.6547,4.5881,4.5693,4.4856,4.436,4.4443,4.4701,4.4758,4.4511,4.4733,4.4733,4.4452,4.4676,4.4957,4.5307,4.5307,4.5307,4.5307,4.5307,4.5307,2.4088,2.4957,2.5837,2.4714,2.5333,0.0,2.4796,2.5011,2.5459,2.5444,2.5477,2.5491,2.5505,2.5713,2.5828,2.5642,2.5762,2.6341,2.761,2.7689,2.7567,2.7466,2.6969,2.6511,2.6198,2.6301,2.604,2.5176,2.5774,2.6581,2.7567,2.8597,2.9372,2.9849,3.004,3.004,2.9868,3.004,3.0121,3.0117,3.0128,3.0581,3.1447,3.231,3.3177,3.4052,3.4846,3.6146,3.7693,3.7693,3.8725,4.0454,4.1953,4.2125,4.159,4.2297,4.2106,4.1495,4.1495,4.1953,4.2717,4.3682,4.4475,4.5105,4.543,4.5984,4.65,4.65,4.5927,4.5383,4.5698,4.6023,4.6137,4.564,4.6159,4.663,4.6308,4.574,4.5375,4.5698,4.5143,4.4694,4.4845,4.506,4.5098,4.4763,4.4819,4.5183,4.6,4.6515,4.6952,4.7276,4.7523,4.7091,4.5739,4.5682,4.5425,4.4752,4.5023,4.5173,4.5129,4.5173,4.5045,4.4726,4.4763,4.4957,4.5307,4.5307,4.5307,4.5307,4.5307,4.5307,2.487,2.54,2.597,2.5622,2.5855,0.0,0.0,2.5568,2.5625,2.6062,2.5701,2.5438,2.5905,2.5662,2.5406,2.5395,2.5391,2.5676,2.6436,2.6851,2.6898,2.6504,2.6415,2.6237,2.5835,2.5779,2.5576,2.5175,2.5926,2.6575,2.6969,2.7828,2.8661,2.9482,2.9501,2.9711,3.0157,3.0157,3.015,3.0154,3.015,3.0386,3.0832,3.2119,3.2947,3.3414,3.4655,3.6146,3.7693,3.7693,3.8725,4.0473,4.2144,4.2259,4.1648,4.2928,4.287,4.2202,4.2603,4.3042,4.3539,4.438,4.4934,4.5373,4.5774,4.6175,4.6596,4.7035,4.6538,4.6014,4.6475,4.656,4.6405,4.6035,4.6009,4.6057,4.6083,4.564,4.5286,4.5547,4.5287,4.5011,4.4831,4.5087,4.5184,4.4856,4.4946,4.5456,4.66,4.7106,4.7562,4.8142,4.7945,4.7294,4.6158,4.5679,4.5342,4.5072,4.5213,4.5307,4.5307,4.5307,4.5224,4.5045,4.5045,4.5121,4.5307,4.5307,4.5307,4.5307,4.5307,4.5307,2.5841,2.6177,2.6533,2.6835,2.6736,2.6619,0.0,0.0,0.0,2.6471,2.5945,2.5608,2.635,2.5919,2.5441,2.5437,2.5437,2.5414,2.5332,2.5884,2.6014,2.5291,2.5807,2.5941,2.5279,2.515,2.5138,2.5185,2.5785,2.6294,2.6606,2.7287,2.8128,2.9095,2.9133,2.9483,3.0192,3.0338,3.0433,3.0452,3.0605,3.0682,3.072,3.226,3.2947,3.3024,3.4552,3.6146,3.7693,3.7693,3.8725,4.0473,4.2144,4.2374,4.1915,4.3261,4.3452,4.31,4.3605,4.3873,4.414,4.501,4.5307,4.5449,4.6252,4.6385,4.6443,4.7311,4.7043,4.6683,4.7433,4.7201,4.6721,4.6611,4.5837,4.529,4.5828,4.5392,4.5009,4.5458,4.5397,4.5184,4.4856,4.5087,4.5241,4.5083,4.5281,4.5986,4.7429,4.7824,4.8182,4.8793,4.8038,4.7153,4.6326,4.5426,4.5023,4.5267,4.5307,4.5307,4.5307,4.5307,4.5307,4.5307,4.5307,4.5307,4.5307,4.5307,4.5307,4.5307,4.5307,4.5307,2.7422,2.8742,2.945,2.7417,2.8526,2.9367,2.6509,0.0,2.6634,2.5966,0.0,2.5678,2.5712,0.0,0.0,2.5581,2.5578,2.5526,2.541,2.5468,2.544,2.5222,2.538,2.5437,2.5223,2.5144,2.5133,2.5185,2.5227,2.5907,2.737,2.756,2.8323,2.9918,2.9956,3.0035,3.0204,3.0911,3.1293,3.1369,3.2069,3.2413,3.2451,3.3414,3.3853,3.3891,3.4808,3.6146,3.7693,3.7693,3.8725,4.0473,4.2144,4.2737,4.2679,4.287,4.3329,4.3777,4.3157,4.3395,4.414,4.501,4.5307,4.5449,4.6252,4.6003,4.5602,4.6424,4.6577,4.6519,4.6634,4.715,4.7455,4.6691,4.6402,4.6132,4.5521,4.5322,4.5254,4.5317,4.5322,4.5184,4.4856,4.5087,4.5451,4.5904,4.5987,4.6594,4.8238,4.8491,4.8365,4.7976,4.7823,4.7136,4.5564,4.5314,4.5256,4.5297,4.5307,4.5307,4.5307,4.5307,4.5307,4.5307,4.5307,4.5307,4.5307,4.5307,4.5307,4.5307,4.5307,4.5307,2.7817,2.8086,2.8183,2.7709,2.7665,2.7507,2.6648,2.6357,2.6274,2.6383,0.0,0.0,0.0,0.0,0.0,0.0,2.5622,2.5403,2.4846,2.5205,2.5441,2.5238,2.5248,2.5252,2.5141,2.5195,2.5206,2.5191,2.5206,2.5507,2.6161,2.6651,2.7453,2.8668,2.9157,2.9667,3.0185,3.0529,3.072,3.0739,3.1083,3.1496,3.1973,3.2852,3.3528,3.4052,3.4846,3.6146,3.7693,3.7693,3.8725,4.0473,4.2144,4.2794,4.2928,4.3883,4.4456,4.4704,4.436,4.4475,4.4819,4.5182,4.5307,4.5354,4.5698,4.5564,4.5468,4.6271,4.65,4.65,4.6562,4.6808,4.6844,4.6046,4.5833,4.5698,4.5373,4.5307,4.5246,4.5045,4.5173,4.5184,4.4856,4.5087,4.5532,4.6233,4.6336,4.6946,4.8672,4.845,4.8048,4.7815,4.7349,4.6577,4.5403,4.5307,4.5307,4.5307,4.5307,4.5307,4.5307,4.5307,4.5307,4.5307,4.5307,4.5307,4.5307,4.5307,4.5319,4.5361,4.5309,4.5307,2.8135,2.8028,2.7819,2.8048,2.7368,2.6632,2.6648,2.6513,2.6412,2.6558,2.6461,0.0,0.0,0.0,2.5708,2.5708,0.0,2.5392,2.4743,2.519,2.5397,2.4952,2.5081,2.5195,2.5181,2.5257,2.5268,2.5208,2.5248,2.5374,2.5522,2.6337,2.7172,2.8001,2.8822,2.9662,3.0548,3.0548,3.0663,3.0892,3.1121,3.1541,3.2134,3.3005,3.3731,3.4369,3.5209,3.6375,3.7712,3.796,3.8935,4.0473,4.2144,4.2641,4.2641,4.4322,4.5086,4.5269,4.5029,4.5105,4.5307,4.5307,4.5307,4.5307,4.5307,4.5307,4.5411,4.6003,4.6328,4.6511,4.6562,4.6551,4.6377,4.5827,4.55,4.5307,4.5307,4.5307,4.5235,4.4981,4.5311,4.5549,4.5311,4.5475,4.5908,4.6729,4.7054,4.7742,4.9232,4.8888,4.8399,4.8181,4.7379,4.6615,4.6023,4.5564,4.5307,4.5307,4.5307,4.5307,4.5307,4.5307,4.5307,4.5307,4.5307,4.5307,4.5307,4.5319,4.5351,4.54,4.5351,4.535,2.8714,2.9795,3.0098,2.851,2.8682,2.8669,2.6274,2.6981,2.7661,2.6071,2.7014,2.7624,2.6043,2.5722,2.5708,0.0,2.5708,0.0,0.0,2.554,2.5158,2.4244,2.4769,2.5253,2.5373,2.5337,2.5278,2.5217,2.526,2.5606,2.6319,2.7251,2.8095,2.8841,2.9707,3.0586,3.1446,3.1465,3.1847,3.2623,3.3471,3.3899,3.3937,3.4751,3.5152,3.5209,3.608,3.6929,3.7769,3.861,3.9489,4.0473,4.2144,4.2278,4.1743,4.3414,4.459,4.5182,4.4331,4.459,4.5307,4.5307,4.5307,4.5307,4.5307,4.5307,4.5307,4.5326,4.5908,4.65,4.65,4.65,4.65,4.6462,4.587,4.5307,4.5307,4.5307,4.5297,4.5297,4.5927,4.6462,4.6451,4.6451,4.6768,4.7635,4.8487,4.9308,5.0149,5.0245,4.992,4.9148,4.8277,4.775,4.7712,4.6233,4.5307,4.5307,4.5307,4.5307,4.5307,4.5307,4.5307,4.5307,4.5307,4.5307,4.5307,4.537,4.54,4.54,4.54,4.5476,2.8198,2.8178,2.8025,2.8031,2.7459,2.6796,2.6495,2.7352,2.7719,2.6048,2.7024,2.7692,2.6013,2.5692,0.0,0.0,0.0,2.5488,0.0,2.4702,2.4695,2.486,2.5081,2.5212,2.5261,2.5326,2.5342,2.5274,2.5376,2.5503,2.5663,2.7017,2.7888,2.8103,2.9478,3.0338,3.0643,3.0643,3.0777,3.1045,3.1331,3.2076,3.3138,3.3425,3.4151,3.5229,3.5507,3.6413,3.7712,3.8018,3.8992,4.0416,4.1514,4.1762,4.1705,4.3376,4.4178,4.4475,4.4762,4.5048,4.5307,4.5307,4.5307,4.5392,4.5927,4.5717,4.5526,4.6634,4.6347,4.5831,4.6366,4.6099,4.5698,4.5698,4.5488,4.5307,4.5307,4.5307,4.5449,4.5984,4.6309,4.6691,4.7253,4.7349,4.7665,4.8525,4.8907,4.9396,5.0206,4.9843,4.9404,4.9129,4.8315,4.7788,4.7788,4.6268,4.5303,4.5303,4.5303,4.5311,4.5298,4.5298,4.529,4.5303,4.5303,4.5307,4.537,4.539,4.5475,4.5599,4.5599,4.5601,2.7398,2.7083,2.6835,2.7421,2.6792,2.6084,2.6318,2.7315,2.7719,2.6018,2.7022,2.7675,2.597,2.5672,2.5698,0.0,0.0,0.0,0.0,2.4721,2.4818,2.5245,2.5229,2.5217,2.5276,2.5074,2.5054,2.5346,2.5189,2.513,2.5293,2.6915,2.7794,2.7701,2.9325,3.0338,3.0663,3.0338,3.0338,3.0624,3.0949,3.1649,3.2718,3.3329,3.4181,3.5223,3.5834,3.6693,3.7752,3.8335,3.9251,4.0358,4.1189,4.1313,4.1246,4.2956,4.3567,4.3739,4.4895,4.5105,4.4895,4.5201,4.5307,4.5403,4.5927,4.5698,4.5526,4.6615,4.6137,4.5411,4.5946,4.5679,4.5307,4.5307,4.5307,4.5307,4.5307,4.5307,4.5449,4.5965,4.6557,4.7139,4.7693,4.8285,4.8774,4.9071,4.911,4.9396,5.0206,4.9843,4.9519,4.9519,4.8774,4.8009,4.7398,4.6468,4.5903,4.5895,4.6634,4.7073,4.7078,4.6331,4.6296,4.7127,4.5959,4.5676,4.6369,4.6089,4.6035,4.6171,4.6511,4.6476]}]]